[[{"header":{"parameterUnit":"m.s-1","parameterCategory":1,"la1":31.0,"la2":29.5877,"lo1":-88.7671,"lo2":-86.6584,"dy":0.0162,"dx":0.0185,"nx":115,"ny":88,"refTime":"2023-07-12T06:00:00:Z","depth":0,"parameterNumber":2,"parameterNumberName":"U-component_of_WINDS"},"data":[0.0,0.0,0.0,0.0,0.0,0.0,0.0,0.0,0.0,0.0,0.0,0.0,0.0,0.0,0.0,0.0,0.0,0.0,0.0,0.0,0.0,0.0,0.0,0.0,0.0,0.0,0.0,0.0,0.0,0.0,0.0,0.0,0.0,0.0,0.0,0.0,0.0,0.0,0.0,0.0,0.0,0.0,0.0,0.0,0.0,0.0,0.0,0.0,0.0,0.0,0.0,0.0,0.0,0.0,0.0,0.0,0.0,0.0,0.0,0.0,0.0,0.0,0.0,0.0,0.0,0.0,0.0,0.0,0.0,0.0,0.0,0.0,0.0,0.0,0.0,0.0,0.0,0.0,0.0,0.0,0.0,0.0,0.0,0.0,0.0,0.0,0.0,0.0,0.0,0.0,0.0,0.0,0.0,0.0,0.0,0.0,0.0,0.0,0.0,0.0,0.0,0.0,0.0,0.0,0.0,0.0,0.0,0.0,0.0,0.0,0.0,0.0,0.0,0.0,0.0,0.0,0.0,0.0,0.0,0.0,0.0,0.0,0.0,0.0,0.0,0.0,0.0,0.0,0.0,0.0,0.0,0.0,0.0,0.0,0.0,0.0,0.0,0.0,0.0,0.0,0.0,0.0,0.0,0.0,0.0,0.0,0.0,0.0,0.0,0.0,0.0,0.0,0.0,0.0,0.0,0.0,0.0,0.0,0.0,0.0,0.0,0.0,0.0,0.0,0.0,0.0,0.0,0.0,0.0,0.0,0.0,0.0,0.0,0.0,0.0,0.0,0.0,0.0,0.0,0.0,0.0,0.0,0.0,0.0,0.0,0.0,0.0,0.0,0.0,0.0,0.0,0.0,0.0,0.0,0.0,0.0,0.0,0.0,0.0,0.0,0.0,0.0,0.0,0.0,0.0,0.0,0.0,0.0,0.0,0.0,0.0,0.0,0.0,0.0,0.0,0.0,0.0,0.0,0.0,0.0,0.0,0.0,0.0,0.0,0.0,0.0,0.0,0.0,0.0,0.0,0.0,0.0,0.0,0.0,0.0,0.0,0.0,0.0,0.0,0.0,0.0,0.0,0.0,0.0,0.0,0.0,0.0,0.0,0.0,0.0,0.0,0.0,0.0,0.0,0.0,0.0,0.0,0.0,0.0,0.0,0.0,0.0,0.0,0.0,0.0,0.0,0.0,0.0,0.0,0.0,0.0,0.0,0.0,0.0,0.0,0.0,0.0,0.0,0.0,0.0,0.0,0.0,0.0,0.0,0.0,0.0,0.0,0.0,0.0,0.0,0.0,0.0,0.0,0.0,0.0,0.0,0.0,0.0,0.0,0.0,0.0,0.0,0.0,0.0,0.0,0.0,0.0,0.0,0.0,0.0,0.0,0.0,0.0,0.0,0.0,0.0,0.0,0.0,0.0,0.0,0.0,0.0,0.0,0.0,0.0,0.0,0.0,0.0,0.0,0.0,0.0,0.0,0.0,0.0,0.0,0.0,0.0,0.0,0.0,0.0,0.0,0.0,0.0,0.0,0.0,0.0,0.0,0.0,0.0,0.0,0.0,0.0,0.0,0.0,0.0,0.0,0.0,0.0,0.0,0.0,0.0,0.0,0.0,0.0,0.0,0.0,0.0,0.0,0.0,0.0,0.0,0.0,0.0,0.0,0.0,0.0,0.0,0.0,0.0,0.0,0.0,0.0,0.0,0.0,0.0,0.0,0.0,0.0,0.0,0.0,0.0,0.0,0.0,0.0,0.0,0.0,0.0,0.0,0.0,0.0,0.0,0.0,0.0,0.0,0.0,0.0,0.0,0.0,0.0,0.0,0.0,0.0,0.0,0.0,0.0,0.0,0.0,0.0,0.0,0.0,0.0,0.0,0.0,0.0,0.0,0.0,0.0,0.0,0.0,0.0,0.0,0.0,0.0,0.0,0.0,0.0,0.0,0.0,0.0,0.0,0.0,0.0,0.0,0.0,0.0,0.0,0.0,0.0,0.0,0.0,0.0,0.0,0.0,0.0,0.0,0.0,0.0,0.0,0.0,0.0,0.0,0.0,0.0,0.0,0.0,0.0,0.0,0.0,0.0,0.0,0.0,0.0,0.0,0.0,0.0,0.0,0.0,0.0,0.0,0.0,0.0,0.0,0.0,0.0,0.0,0.0,0.0,0.0,0.0,0.0,0.0,0.0,0.0,0.0,0.0,0.0,0.0,0.0,0.0,0.0,0.0,0.0,0.0,0.0,0.0,0.0,0.0,0.0,0.0,0.0,0.0,0.0,0.0,0.0,0.0,0.0,0.0,0.0,0.0,0.0,0.0,0.0,0.0,0.0,0.0,0.0,0.0,0.0,0.0,0.0,0.0,0.0,0.0,0.0,0.0,0.0,0.0,0.0,0.0,0.0,0.0,0.0,0.0,0.0,0.0,0.0,0.0,0.0,0.0,0.0,0.0,0.0,0.0,0.0,0.0,0.0,0.0,0.0,0.0,0.0,0.0,0.0,0.0,0.0,0.0,0.0,0.0,0.0,0.0,0.0,0.0,0.0,0.0,0.0,0.0,0.0,0.0,0.0,0.0,0.0,0.0,0.0,0.0,0.0,0.0,0.0,0.0,0.0,0.0,0.0,0.0,0.0,0.0,0.0,0.0,0.0,0.0,0.0,0.0,0.0,0.0,0.0,0.0,0.0,0.0,0.0,0.0,0.0,0.0,0.0,0.0,0.0,0.0,0.0,0.0,0.0,0.0,0.0,0.0,0.0,0.0,0.0,0.0,0.0,0.0,0.0,0.0,0.0,0.0,0.0,0.0,0.0,0.0,0.0,0.0,0.0,0.0,0.0,0.0,0.0,0.0,0.0,0.0,0.0,0.0,0.0,0.0,0.0,0.0,0.0,0.0,0.0,0.0,0.0,0.0,0.0,0.0,0.0,0.0,0.0,0.0,0.0,0.0,0.0,0.0,0.0,0.0,0.0,0.0,0.0,0.0,0.0,0.0,0.0,0.0,0.0,0.0,0.0,0.0,0.0,0.0,0.0,0.0,0.0,0.0,0.0,0.0,0.0,0.0,0.0,0.0,0.0,0.0,0.0,0.0,0.0,0.0,0.0,0.0,0.0,0.0,0.0,0.0,0.0,0.0,0.0,0.0,0.0,0.0,0.0,0.0,0.0,0.0,0.0,0.0,0.0,0.0,0.0,0.0,0.0,0.0,0.0,0.0,0.0,0.0,0.0,0.0,0.0,0.0,0.0,0.0,0.0,0.0,0.0,0.0,0.0,0.0,0.0,0.0,0.0,0.0,0.0,0.0,0.0,0.0,0.0,0.0,0.0,0.0,0.0,0.0,0.0,0.0,0.0,0.0,0.0,0.0,0.0,0.0,0.0,0.0,0.0,0.0,0.0,0.0,0.0,0.0,0.0,0.0,0.0,0.0,0.0,0.0,0.0,0.0,0.0,0.0,0.0,0.0,0.0,0.0,0.0,0.0,0.0,0.0,0.0,0.0,0.0,0.0,0.0,0.0,0.0,0.0,0.0,0.0,0.0,0.0,0.0,0.0,0.0,0.0,0.0,0.0,0.0,0.0,0.0,0.0,0.0,0.0,0.0,0.0,0.0,0.0,0.0,0.0,0.0,0.0,0.0,0.0,0.0,0.0,0.0,0.0,0.0,0.0,0.0,0.0,0.0,0.0,0.0,0.0,0.0,0.0,0.0,0.0,0.0,0.0,0.0,0.0,0.0,0.0,0.0,0.0,0.0,0.0,0.0,0.0,0.0,0.0,0.0,0.0,0.0,0.0,0.0,0.0,0.0,0.0,0.0,0.0,0.0,0.0,0.0,0.0,0.0,0.0,0.0,0.0,0.0,0.0,0.0,0.0,0.0,0.0,0.0,0.0,0.0,0.0,0.0,0.0,0.0,0.0,0.0,0.0,0.0,0.0,0.0,0.0,0.0,0.0,0.0,0.0,0.0,0.0,0.0,0.0,0.0,0.0,0.0,0.0,0.0,0.0,0.0,0.0,0.0,0.0,0.0,0.0,0.0,0.0,0.0,0.0,0.0,0.0,0.0,0.0,0.0,0.0,0.0,0.0,0.0,0.0,0.0,0.0,0.0,0.0,0.0,0.0,0.0,0.0,0.0,0.0,0.0,0.0,0.0,0.0,0.0,0.0,0.0,0.0,0.0,0.0,0.0,0.0,0.0,0.0,0.0,0.0,0.0,0.0,0.0,0.0,0.0,0.0,0.0,0.0,0.0,0.0,0.0,0.0,0.0,0.0,0.0,0.0,0.0,0.0,0.0,-1.8066,0.0,0.0,0.0,0.0,0.0,0.0,0.0,0.0,0.0,0.0,0.0,0.0,0.0,0.0,0.0,0.0,0.0,0.0,0.0,0.0,0.0,0.0,0.0,0.0,0.0,0.0,0.0,0.0,0.0,0.0,0.0,0.0,0.0,0.0,0.0,0.0,0.0,0.0,0.0,0.0,0.0,0.0,0.0,0.0,0.0,0.0,0.0,0.0,0.0,0.0,0.0,0.0,0.0,0.0,0.0,0.0,0.0,0.0,0.0,0.0,0.0,0.0,0.0,0.0,0.0,0.0,0.0,0.0,0.0,0.0,0.0,0.0,0.0,0.0,0.0,0.0,0.0,0.0,0.0,0.0,0.0,0.0,0.0,0.0,0.0,0.0,0.0,0.0,0.0,0.0,0.0,0.0,0.0,0.0,0.0,0.0,0.0,0.0,0.0,0.0,0.0,0.0,0.0,0.0,0.0,0.0,0.0,0.0,0.0,0.0,-2.0629,-2.0367,-2.0629,-2.0271,-1.9152,0.0,0.0,0.0,0.0,0.0,0.0,0.0,0.0,0.0,0.0,0.0,0.0,0.0,0.0,0.0,0.0,0.0,0.0,0.0,0.0,0.0,0.0,0.0,0.0,0.0,0.0,0.0,0.0,0.0,0.0,0.0,0.0,0.0,0.0,0.0,0.0,0.0,0.0,0.0,0.0,0.0,0.0,0.0,0.0,0.0,0.0,0.0,0.0,0.0,0.0,0.0,0.0,0.0,0.0,0.0,0.0,0.0,0.0,0.0,0.0,0.0,0.0,0.0,0.0,0.0,0.0,0.0,0.0,0.0,0.0,0.0,0.0,0.0,0.0,0.0,0.0,0.0,0.0,0.0,0.0,0.0,0.0,0.0,0.0,0.0,0.0,0.0,0.0,0.0,0.0,0.0,0.0,0.0,0.0,0.0,0.0,0.0,0.0,0.0,0.0,0.0,0.0,0.0,0.0,0.0,0.0,0.0,0.0,0.0,0.0,0.0,0.0,-2.2309,-2.187,-2.0595,0.0,0.0,0.0,0.0,0.0,0.0,0.0,0.0,0.0,0.0,0.0,0.0,0.0,0.0,0.0,0.0,0.0,0.0,0.0,0.0,0.0,0.0,0.0,0.0,0.0,0.0,0.0,0.0,0.0,0.0,0.0,0.0,0.0,0.0,0.0,0.0,0.0,0.0,0.0,0.0,0.0,0.0,0.0,0.0,0.0,0.0,0.0,0.0,0.0,0.0,0.0,0.0,0.0,0.0,0.0,0.0,0.0,0.0,0.0,0.0,0.0,0.0,0.0,0.0,0.0,0.0,0.0,0.0,0.0,0.0,0.0,0.0,0.0,0.0,0.0,0.0,0.0,0.0,0.0,0.0,0.0,0.0,0.0,0.0,0.0,0.0,0.0,0.0,0.0,0.0,0.0,0.0,0.0,0.0,0.0,0.0,0.0,0.0,0.0,0.0,0.0,0.0,0.0,0.0,0.0,0.0,0.0,0.0,0.0,0.0,-2.1808,-2.3855,-2.4256,0.0,-2.232,0.0,0.0,0.0,0.0,0.0,0.0,0.0,0.0,0.0,0.0,0.0,0.0,0.0,0.0,0.0,0.0,0.0,0.0,0.0,0.0,0.0,0.0,0.0,0.0,0.0,0.0,0.0,0.0,0.0,0.0,0.0,0.0,0.0,0.0,0.0,0.0,0.0,0.0,0.0,0.0,0.0,0.0,0.0,0.0,0.0,0.0,0.0,0.0,0.0,0.0,0.0,0.0,0.0,0.0,0.0,0.0,0.0,0.0,0.0,0.0,0.0,0.0,0.0,0.0,0.0,0.0,0.0,0.0,0.0,0.0,0.0,0.0,0.0,0.0,0.0,0.0,0.0,0.0,0.0,0.0,0.0,0.0,0.0,0.0,0.0,0.0,0.0,0.0,0.0,0.0,0.0,0.0,0.0,0.0,0.0,0.0,0.0,0.0,0.0,0.0,0.0,0.0,0.0,0.0,0.0,0.0,0.0,0.0,0.0,0.0,-2.2971,-2.5169,-2.4676,-2.3675,0.0,0.0,0.0,0.0,0.0,0.0,0.0,0.0,0.0,0.0,0.0,0.0,0.0,0.0,0.0,0.0,0.0,0.0,0.0,0.0,0.0,0.0,0.0,0.0,0.0,0.0,0.0,0.0,0.0,0.0,0.0,0.0,0.0,0.0,0.0,0.0,0.0,0.0,0.0,0.0,0.0,0.0,0.0,0.0,0.0,0.0,0.0,0.0,0.0,0.0,0.0,0.0,0.0,0.0,0.0,0.0,0.0,0.0,0.0,0.0,0.0,0.0,0.0,0.0,0.0,0.0,0.0,0.0,0.0,0.0,0.0,0.0,0.0,0.0,0.0,0.0,0.0,0.0,0.0,0.0,0.0,0.0,0.0,0.0,0.0,0.0,0.0,0.0,0.0,0.0,0.0,0.0,0.0,0.0,0.0,0.0,0.0,0.0,0.0,0.0,0.0,0.0,0.0,0.0,0.0,0.0,0.0,0.0,0.0,0.0,-2.324,-2.4427,-2.6531,-2.5548,-2.4166,-2.2596,0.0,0.0,0.0,0.0,0.0,0.0,0.0,0.0,0.0,0.0,0.0,0.0,0.0,0.0,0.0,0.0,0.0,0.0,0.0,0.0,0.0,0.0,0.0,0.0,0.0,0.0,0.0,0.0,0.0,0.0,0.0,0.0,0.0,0.0,0.0,0.0,0.0,0.0,0.0,0.0,0.0,0.0,0.0,0.0,0.0,0.0,0.0,0.0,0.0,0.0,0.0,0.0,0.0,0.0,0.0,0.0,0.0,0.0,0.0,0.0,0.0,0.0,0.0,0.0,0.0,0.0,0.0,0.0,0.0,0.0,0.0,0.0,0.0,0.0,0.0,0.0,0.0,0.0,0.0,0.0,0.0,0.0,0.0,0.0,0.0,0.0,0.0,0.0,0.0,0.0,0.0,0.0,0.0,0.0,0.0,0.0,0.0,0.0,0.0,0.0,0.0,0.0,0.0,0.0,0.0,0.0,0.0,0.0,-2.6089,-2.5329,-2.6058,-2.8621,-2.7352,-2.5841,0.0,0.0,0.0,0.0,0.0,0.0,0.0,0.0,0.0,0.0,0.0,0.0,0.0,0.0,0.0,0.0,0.0,0.0,0.0,0.0,0.0,0.0,0.0,0.0,0.0,0.0,0.0,0.0,0.0,0.0,0.0,0.0,0.0,0.0,0.0,0.0,0.0,0.0,0.0,0.0,0.0,0.0,0.0,0.0,0.0,0.0,0.0,0.0,0.0,0.0,0.0,0.0,0.0,0.0,0.0,0.0,0.0,0.0,0.0,0.0,0.0,0.0,0.0,0.0,0.0,0.0,0.0,0.0,0.0,0.0,0.0,0.0,0.0,0.0,0.0,0.0,0.0,0.0,0.0,0.0,0.0,0.0,0.0,0.0,0.0,0.0,0.0,0.0,0.0,0.0,0.0,0.0,0.0,0.0,0.0,0.0,0.0,0.0,0.0,0.0,0.0,0.0,0.0,0.0,0.0,0.0,0.0,0.0,0.0,-2.3591,-2.5224,-2.7304,-2.9549,-2.7354,-2.6126,0.0,0.0,0.0,0.0,0.0,0.0,0.0,0.0,0.0,0.0,0.0,0.0,0.0,0.0,0.0,0.0,0.0,0.0,0.0,0.0,0.0,0.0,0.0,0.0,0.0,0.0,0.0,0.0,0.0,0.0,0.0,0.0,0.0,0.0,0.0,0.0,0.0,0.0,0.0,0.0,0.0,0.0,0.0,0.0,0.0,0.0,0.0,0.0,0.0,0.0,0.0,0.0,0.0,0.0,0.0,0.0,0.0,0.0,0.0,0.0,0.0,0.0,0.0,0.0,0.0,0.0,0.0,0.0,0.0,0.0,0.0,0.0,0.0,0.0,0.0,0.0,0.0,0.0,0.0,0.0,0.0,0.0,0.0,0.0,0.0,0.0,0.0,0.0,0.0,0.0,0.0,0.0,0.0,0.0,0.0,0.0,0.0,0.0,0.0,0.0,0.0,0.0,0.0,0.0,0.0,0.0,0.0,0.0,0.0,-2.4236,0.0,-2.8379,-2.9805,-2.737,-2.5935,0.0,0.0,0.0,0.0,0.0,0.0,0.0,0.0,0.0,0.0,0.0,0.0,0.0,0.0,0.0,0.0,0.0,0.0,0.0,0.0,0.0,0.0,0.0,0.0,0.0,0.0,0.0,0.0,0.0,0.0,0.0,0.0,0.0,0.0,0.0,0.0,0.0,0.0,0.0,0.0,0.0,0.0,0.0,0.0,0.0,0.0,0.0,0.0,0.0,0.0,0.0,0.0,0.0,0.0,0.0,0.0,0.0,0.0,0.0,0.0,0.0,0.0,0.0,0.0,0.0,0.0,0.0,0.0,0.0,0.0,0.0,0.0,0.0,0.0,0.0,0.0,0.0,0.0,0.0,0.0,0.0,0.0,0.0,0.0,0.0,0.0,0.0,0.0,0.0,0.0,0.0,0.0,0.0,0.0,0.0,0.0,0.0,0.0,0.0,0.0,0.0,0.0,0.0,0.0,0.0,0.0,0.0,0.0,-2.4935,-2.8571,-2.8957,-2.9298,-2.9575,-2.7682,-2.5462,0.0,0.0,0.0,0.0,0.0,0.0,0.0,0.0,0.0,0.0,0.0,0.0,0.0,0.0,0.0,0.0,0.0,0.0,0.0,0.0,0.0,0.0,0.0,0.0,0.0,0.0,0.0,0.0,0.0,0.0,0.0,0.0,0.0,0.0,0.0,0.0,0.0,0.0,0.0,0.0,0.0,0.0,0.0,0.0,0.0,0.0,0.0,0.0,0.0,0.0,0.0,0.0,0.0,0.0,0.0,0.0,0.0,0.0,0.0,0.0,0.0,0.0,0.0,0.0,0.0,0.0,0.0,0.0,0.0,0.0,0.0,0.0,0.0,0.0,0.0,0.0,0.0,0.0,0.0,0.0,0.0,0.0,0.0,0.0,0.0,0.0,0.0,0.0,0.0,0.0,0.0,0.0,0.0,0.0,0.0,0.0,0.0,0.0,0.0,0.0,0.0,0.0,0.0,0.0,0.0,0.0,0.0,0.0,0.0,-2.6608,-2.8252,-3.0174,-3.2139,-2.874,-2.7329,0.0,0.0,0.0,0.0,0.0,0.0,0.0,0.0,0.0,0.0,0.0,0.0,0.0,0.0,0.0,0.0,0.0,0.0,0.0,0.0,0.0,0.0,0.0,0.0,0.0,0.0,0.0,0.0,0.0,0.0,0.0,0.0,0.0,0.0,0.0,0.0,0.0,0.0,0.0,0.0,0.0,0.0,0.0,0.0,0.0,0.0,0.0,0.0,0.0,0.0,0.0,0.0,0.0,0.0,0.0,0.0,0.0,0.0,0.0,0.0,0.0,0.0,0.0,0.0,0.0,0.0,0.0,0.0,0.0,0.0,0.0,0.0,0.0,0.0,0.0,0.0,0.0,0.0,0.0,0.0,0.0,0.0,0.0,0.0,0.0,0.0,0.0,0.0,0.0,0.0,0.0,0.0,0.0,0.0,0.0,0.0,0.0,0.0,0.0,0.0,0.0,0.0,0.0,0.0,0.0,0.0,0.0,0.0,0.0,-2.796,-2.9726,-3.1819,-3.4082,-3.0263,-2.8683,-2.969,0.0,0.0,0.0,0.0,0.0,0.0,0.0,0.0,0.0,0.0,0.0,0.0,0.0,0.0,0.0,0.0,0.0,0.0,0.0,0.0,0.0,0.0,0.0,0.0,0.0,0.0,0.0,0.0,0.0,0.0,0.0,0.0,0.0,0.0,0.0,0.0,0.0,0.0,0.0,0.0,0.0,0.0,0.0,0.0,0.0,0.0,0.0,0.0,0.0,0.0,0.0,0.0,0.0,0.0,0.0,0.0,0.0,0.0,0.0,0.0,0.0,0.0,0.0,0.0,0.0,0.0,0.0,0.0,0.0,0.0,0.0,0.0,0.0,0.0,0.0,0.0,0.0,0.0,0.0,0.0,0.0,0.0,0.0,0.0,0.0,0.0,0.0,0.0,0.0,0.0,0.0,0.0,0.0,0.0,0.0,0.0,0.0,0.0,0.0,0.0,0.0,0.0,0.0,0.0,0.0,0.0,0.0,0.0,-3.179,-3.3024,-3.4176,-3.5153,-3.2217,-2.9757,0.0,0.0,0.0,0.0,0.0,0.0,0.0,0.0,0.0,0.0,0.0,0.0,0.0,0.0,0.0,0.0,0.0,0.0,0.0,0.0,0.0,0.0,0.0,0.0,0.0,0.0,0.0,0.0,0.0,0.0,0.0,0.0,0.0,0.0,0.0,0.0,0.0,0.0,0.0,0.0,0.0,0.0,0.0,0.0,0.0,0.0,0.0,0.0,0.0,0.0,0.0,0.0,0.0,0.0,0.0,0.0,0.0,0.0,0.0,0.0,0.0,0.0,0.0,0.0,0.0,0.0,0.0,0.0,0.0,0.0,0.0,0.0,0.0,0.0,0.0,0.0,0.0,0.0,0.0,0.0,0.0,0.0,0.0,0.0,0.0,0.0,0.0,0.0,0.0,0.0,0.0,0.0,0.0,0.0,0.0,0.0,0.0,0.0,0.0,0.0,0.0,0.0,0.0,0.0,0.0,0.0,0.0,0.0,0.0,-3.3643,-3.5705,-3.7028,-3.7526,-3.4453,-3.2411,0.0,0.0,0.0,0.0,0.0,0.0,0.0,0.0,0.0,0.0,0.0,0.0,0.0,0.0,0.0,0.0,0.0,0.0,0.0,0.0,0.0,0.0,0.0,0.0,0.0,0.0,0.0,0.0,0.0,0.0,0.0,0.0,0.0,0.0,0.0,0.0,0.0,0.0,0.0,0.0,0.0,0.0,0.0,0.0,0.0,0.0,0.0,0.0,0.0,0.0,0.0,0.0,0.0,0.0,0.0,0.0,0.0,0.0,0.0,0.0,0.0,0.0,0.0,0.0,0.0,0.0,0.0,0.0,0.0,0.0,0.0,0.0,0.0,0.0,0.0,0.0,0.0,0.0,0.0,0.0,0.0,0.0,0.0,0.0,0.0,0.0,0.0,0.0,0.0,0.0,0.0,0.0,0.0,0.0,0.0,0.0,0.0,0.0,0.0,0.0,0.0,0.0,0.0,0.0,0.0,0.0,0.0,0.0,-3.0891,-3.3907,-3.6962,-3.863,-3.8797,-3.6388,-3.4328,0.0,0.0,0.0,0.0,0.0,0.0,0.0,0.0,0.0,0.0,0.0,0.0,0.0,0.0,0.0,0.0,0.0,0.0,0.0,0.0,0.0,0.0,0.0,0.0,0.0,0.0,0.0,0.0,0.0,0.0,0.0,0.0,0.0,0.0,0.0,0.0,0.0,0.0,0.0,0.0,0.0,0.0,0.0,0.0,0.0,0.0,0.0,0.0,0.0,0.0,0.0,0.0,0.0,0.0,0.0,0.0,0.0,0.0,0.0,0.0,0.0,0.0,0.0,0.0,0.0,0.0,0.0,0.0,0.0,0.0,0.0,0.0,0.0,0.0,0.0,0.0,0.0,0.0,0.0,0.0,0.0,0.0,0.0,0.0,0.0,0.0,0.0,0.0,0.0,0.0,0.0,0.0,0.0,0.0,0.0,0.0,0.0,0.0,0.0,0.0,0.0,0.0,0.0,0.0,0.0,0.0,0.0,0.0,-3.1163,-3.3417,-3.7165,-3.9116,-3.8875,-3.791,-3.563,0.0,0.0,0.0,0.0,0.0,0.0,0.0,0.0,0.0,0.0,0.0,0.0,0.0,0.0,0.0,0.0,0.0,0.0,0.0,0.0,0.0,0.0,0.0,0.0,0.0,0.0,0.0,0.0,0.0,0.0,0.0,0.0,0.0,0.0,0.0,0.0,0.0,0.0,0.0,0.0,0.0,0.0,0.0,0.0,0.0,0.0,0.0,0.0,0.0,0.0,0.0,0.0,0.0,0.0,0.0,0.0,0.0,0.0,0.0,0.0,0.0,0.0,0.0,0.0,0.0,0.0,0.0,0.0,0.0,0.0,0.0,0.0,0.0,0.0,0.0,0.0,0.0,0.0,0.0,0.0,0.0,0.0,0.0,0.0,0.0,0.0,0.0,0.0,0.0,0.0,0.0,0.0,0.0,0.0,0.0,0.0,0.0,0.0,0.0,0.0,0.0,0.0,0.0,0.0,0.0,0.0,0.0,0.0,-3.1078,-3.3281,-3.5718,-3.7313,-3.7789,-3.7565,-3.5892,0.0,0.0,0.0,0.0,0.0,0.0,0.0,0.0,0.0,0.0,0.0,0.0,0.0,0.0,0.0,0.0,0.0,0.0,0.0,0.0,0.0,0.0,0.0,0.0,0.0,0.0,0.0,0.0,0.0,0.0,0.0,0.0,0.0,0.0,0.0,0.0,0.0,0.0,0.0,0.0,0.0,0.0,0.0,0.0,0.0,0.0,0.0,0.0,-2.8954,0.0,0.0,0.0,0.0,0.0,0.0,0.0,0.0,0.0,0.0,0.0,0.0,0.0,0.0,0.0,0.0,0.0,0.0,0.0,0.0,0.0,0.0,0.0,0.0,0.0,0.0,0.0,0.0,0.0,0.0,0.0,0.0,0.0,0.0,0.0,0.0,0.0,0.0,0.0,0.0,0.0,0.0,0.0,0.0,0.0,0.0,0.0,0.0,0.0,0.0,0.0,0.0,0.0,0.0,0.0,0.0,0.0,0.0,0.0,-3.0872,-3.2341,-3.4521,-3.6018,-3.6493,-3.6729,-3.5446,0.0,0.0,0.0,0.0,0.0,0.0,0.0,0.0,0.0,0.0,0.0,0.0,0.0,0.0,0.0,0.0,0.0,0.0,0.0,0.0,0.0,0.0,0.0,0.0,0.0,0.0,0.0,0.0,0.0,0.0,0.0,0.0,0.0,0.0,0.0,0.0,0.0,0.0,0.0,0.0,0.0,0.0,0.0,0.0,0.0,0.0,0.0,0.0,0.0,0.0,0.0,0.0,0.0,0.0,0.0,0.0,0.0,0.0,0.0,0.0,0.0,0.0,0.0,0.0,0.0,0.0,0.0,0.0,0.0,0.0,0.0,0.0,0.0,0.0,0.0,0.0,0.0,0.0,0.0,0.0,0.0,0.0,0.0,0.0,0.0,0.0,0.0,0.0,0.0,0.0,0.0,0.0,0.0,0.0,0.0,0.0,0.0,0.0,0.0,0.0,0.0,0.0,0.0,0.0,0.0,0.0,0.0,-2.8828,-3.0568,-3.1215,-3.3488,-3.4834,-3.5265,-3.5749,-3.4566,-3.1676,0.0,0.0,0.0,0.0,0.0,0.0,0.0,0.0,0.0,0.0,0.0,0.0,0.0,0.0,0.0,0.0,0.0,0.0,0.0,0.0,0.0,0.0,0.0,0.0,0.0,0.0,0.0,0.0,0.0,0.0,0.0,0.0,0.0,0.0,0.0,0.0,0.0,0.0,-2.5935,-2.8502,0.0,0.0,0.0,0.0,0.0,0.0,0.0,0.0,-3.2194,0.0,0.0,0.0,0.0,0.0,0.0,0.0,0.0,0.0,0.0,0.0,0.0,0.0,0.0,0.0,0.0,0.0,0.0,0.0,0.0,0.0,0.0,0.0,0.0,0.0,0.0,0.0,0.0,0.0,0.0,0.0,0.0,0.0,0.0,0.0,0.0,0.0,0.0,0.0,0.0,0.0,0.0,0.0,0.0,0.0,0.0,0.0,0.0,0.0,0.0,0.0,0.0,0.0,0.0,0.0,0.0,-2.7138,-2.8859,-3.0176,-3.1189,-3.233,-3.3445,-3.4619,-3.4607,-3.3093,-3.0051,0.0,0.0,0.0,0.0,0.0,0.0,0.0,0.0,0.0,0.0,0.0,0.0,0.0,0.0,0.0,0.0,0.0,0.0,0.0,0.0,0.0,0.0,0.0,0.0,0.0,0.0,0.0,0.0,0.0,0.0,0.0,0.0,0.0,0.0,0.0,0.0,0.0,0.0,0.0,-3.0659,-3.1882,0.0,0.0,0.0,0.0,0.0,0.0,0.0,0.0,-3.1414,0.0,0.0,0.0,0.0,0.0,0.0,0.0,0.0,0.0,0.0,0.0,0.0,0.0,0.0,0.0,0.0,0.0,0.0,0.0,0.0,0.0,0.0,0.0,0.0,0.0,0.0,0.0,0.0,0.0,0.0,0.0,0.0,0.0,0.0,0.0,0.0,0.0,0.0,0.0,0.0,0.0,0.0,0.0,0.0,0.0,0.0,0.0,0.0,0.0,0.0,0.0,0.0,0.0,0.0,0.0,-2.7336,-2.8734,-2.9869,-3.0732,-3.1764,-3.2442,-3.2694,-3.2985,-3.1885,0.0,0.0,0.0,0.0,0.0,0.0,0.0,0.0,0.0,0.0,0.0,0.0,0.0,0.0,0.0,0.0,0.0,0.0,0.0,0.0,0.0,0.0,0.0,0.0,0.0,0.0,0.0,0.0,0.0,0.0,0.0,0.0,0.0,0.0,0.0,0.0,0.0,0.0,0.0,0.0,-3.1267,-3.288,-3.4858,0.0,0.0,0.0,0.0,0.0,0.0,-3.1663,-3.1256,0.0,0.0,0.0,0.0,0.0,0.0,0.0,0.0,0.0,0.0,0.0,0.0,0.0,0.0,0.0,0.0,0.0,0.0,0.0,0.0,0.0,0.0,0.0,0.0,0.0,0.0,0.0,0.0,0.0,0.0,0.0,0.0,0.0,0.0,0.0,0.0,0.0,0.0,0.0,0.0,0.0,0.0,0.0,0.0,0.0,0.0,0.0,0.0,0.0,0.0,0.0,0.0,0.0,0.0,0.0,-2.7314,-2.869,-2.9692,-3.0342,-3.1369,-3.1675,-3.1182,-3.1808,-3.0953,0.0,0.0,0.0,0.0,0.0,0.0,0.0,0.0,0.0,0.0,0.0,0.0,0.0,0.0,0.0,0.0,0.0,0.0,0.0,0.0,0.0,0.0,0.0,0.0,0.0,0.0,0.0,0.0,0.0,0.0,0.0,0.0,0.0,0.0,0.0,0.0,0.0,0.0,0.0,0.0,0.0,-3.3826,-3.5156,-3.5682,0.0,0.0,0.0,0.0,-3.2616,-3.2358,0.0,0.0,0.0,0.0,0.0,0.0,0.0,0.0,0.0,0.0,0.0,0.0,0.0,0.0,0.0,0.0,0.0,0.0,0.0,0.0,0.0,0.0,0.0,0.0,0.0,0.0,0.0,0.0,0.0,0.0,0.0,0.0,0.0,0.0,0.0,0.0,0.0,0.0,0.0,0.0,0.0,0.0,0.0,0.0,0.0,0.0,0.0,0.0,0.0,0.0,0.0,0.0,0.0,0.0,0.0,0.0,-2.6752,-2.8631,-2.975,-3.0157,-3.0826,-3.1211,-3.1474,-3.1913,-3.0547,0.0,0.0,0.0,0.0,0.0,0.0,0.0,0.0,0.0,0.0,0.0,0.0,0.0,0.0,0.0,0.0,0.0,0.0,0.0,0.0,0.0,0.0,0.0,0.0,0.0,0.0,0.0,0.0,0.0,0.0,0.0,0.0,0.0,0.0,0.0,0.0,0.0,0.0,0.0,0.0,0.0,-3.4554,-3.4727,-3.5076,-3.521,0.0,0.0,-3.41,-3.371,-3.4161,0.0,0.0,0.0,0.0,0.0,0.0,0.0,0.0,0.0,0.0,0.0,0.0,0.0,0.0,0.0,0.0,0.0,0.0,0.0,0.0,0.0,0.0,0.0,0.0,0.0,0.0,0.0,0.0,0.0,0.0,0.0,0.0,0.0,0.0,0.0,0.0,0.0,0.0,0.0,0.0,0.0,0.0,0.0,0.0,0.0,0.0,0.0,0.0,0.0,0.0,0.0,0.0,0.0,0.0,0.0,-2.4632,-2.6531,-2.7991,-2.8911,-2.9326,-2.9748,-2.9984,-3.0012,-3.0189,-2.9089,0.0,0.0,0.0,0.0,0.0,0.0,0.0,0.0,0.0,0.0,0.0,0.0,0.0,0.0,0.0,0.0,0.0,0.0,0.0,0.0,0.0,0.0,0.0,0.0,0.0,0.0,0.0,0.0,0.0,0.0,0.0,0.0,0.0,0.0,0.0,0.0,0.0,0.0,0.0,0.0,0.0,0.0,-3.6797,-3.6531,0.0,0.0,0.0,-3.5057,-3.4564,0.0,0.0,0.0,0.0,0.0,0.0,0.0,0.0,0.0,0.0,0.0,0.0,0.0,0.0,0.0,0.0,0.0,0.0,0.0,0.0,0.0,0.0,0.0,0.0,0.0,0.0,0.0,0.0,0.0,0.0,0.0,0.0,0.0,0.0,0.0,0.0,0.0,0.0,0.0,0.0,0.0,0.0,0.0,0.0,0.0,0.0,0.0,0.0,0.0,0.0,0.0,0.0,0.0,0.0,0.0,0.0,0.0,-2.6617,-2.7655,-2.846,-2.9022,-2.9215,-2.9264,-2.9403,-2.9138,0.0,0.0,0.0,0.0,0.0,0.0,0.0,0.0,0.0,0.0,0.0,0.0,0.0,0.0,0.0,0.0,0.0,0.0,0.0,0.0,0.0,0.0,0.0,0.0,0.0,0.0,0.0,-2.2485,0.0,0.0,0.0,0.0,0.0,0.0,0.0,0.0,0.0,0.0,0.0,0.0,0.0,0.0,-3.4941,-3.7756,-3.7448,-3.7116,0.0,0.0,-3.5838,-3.4992,-3.4437,-3.304,0.0,0.0,0.0,0.0,0.0,0.0,0.0,0.0,0.0,0.0,0.0,0.0,0.0,0.0,0.0,0.0,0.0,0.0,0.0,0.0,0.0,0.0,0.0,0.0,0.0,0.0,0.0,0.0,0.0,0.0,0.0,0.0,0.0,0.0,0.0,0.0,0.0,0.0,0.0,0.0,0.0,0.0,0.0,0.0,0.0,0.0,0.0,0.0,0.0,0.0,0.0,0.0,0.0,0.0,0.0,-2.7335,-2.8094,-2.8932,-2.987,-2.9652,-2.9871,-3.0631,-2.9708,-2.8383,0.0,0.0,0.0,0.0,0.0,0.0,0.0,0.0,0.0,0.0,0.0,0.0,0.0,0.0,0.0,0.0,0.0,0.0,0.0,0.0,0.0,0.0,0.0,0.0,0.0,0.0,0.0,0.0,0.0,0.0,0.0,0.0,0.0,0.0,0.0,0.0,0.0,0.0,0.0,0.0,0.0,-3.4727,-3.5992,-3.6847,-3.7303,0.0,0.0,-3.6289,-3.4792,-3.4832,-3.3613,-2.9343,0.0,0.0,0.0,0.0,0.0,0.0,0.0,0.0,0.0,0.0,0.0,0.0,0.0,0.0,0.0,0.0,0.0,0.0,0.0,0.0,0.0,0.0,0.0,0.0,0.0,0.0,0.0,0.0,0.0,0.0,0.0,0.0,0.0,0.0,0.0,0.0,0.0,0.0,0.0,0.0,0.0,0.0,0.0,0.0,0.0,0.0,0.0,0.0,0.0,0.0,0.0,0.0,0.0,-2.5147,-2.6876,-2.7823,-2.8679,-2.9465,-2.9288,-2.9441,-3.0083,-2.9217,-2.7904,0.0,0.0,0.0,0.0,0.0,0.0,0.0,0.0,0.0,0.0,0.0,0.0,0.0,0.0,0.0,0.0,0.0,0.0,0.0,0.0,0.0,0.0,0.0,0.0,0.0,0.0,0.0,0.0,-2.3141,-2.3097,-2.2936,0.0,0.0,0.0,0.0,0.0,0.0,0.0,0.0,0.0,0.0,-3.3911,-3.6358,-3.622,0.0,0.0,-3.603,-3.5263,-3.4535,-3.4078,-3.2731,-2.9614,-2.8465,0.0,0.0,0.0,0.0,0.0,0.0,0.0,0.0,0.0,0.0,0.0,0.0,0.0,0.0,0.0,0.0,0.0,0.0,0.0,0.0,0.0,0.0,0.0,0.0,0.0,0.0,0.0,0.0,0.0,0.0,0.0,0.0,0.0,0.0,0.0,0.0,0.0,0.0,0.0,0.0,0.0,0.0,0.0,0.0,0.0,0.0,0.0,0.0,0.0,0.0,0.0,0.0,-2.5758,-2.7316,-2.8143,-2.8998,-2.9714,-2.9275,-2.9315,-2.9756,-2.8814,-2.7565,0.0,0.0,0.0,0.0,0.0,0.0,0.0,0.0,0.0,0.0,0.0,0.0,0.0,0.0,0.0,0.0,0.0,0.0,0.0,0.0,0.0,0.0,0.0,0.0,0.0,0.0,0.0,0.0,-2.3359,-2.3395,-2.4176,0.0,0.0,0.0,0.0,0.0,0.0,0.0,0.0,0.0,0.0,-3.3459,-3.6119,-3.5549,-3.5028,-3.5571,-3.4679,-3.3771,-3.3619,-3.2658,-3.127,-2.952,0.0,0.0,0.0,0.0,0.0,0.0,0.0,0.0,0.0,0.0,0.0,0.0,0.0,0.0,0.0,0.0,0.0,0.0,0.0,0.0,0.0,0.0,0.0,0.0,0.0,0.0,0.0,0.0,0.0,0.0,0.0,0.0,0.0,0.0,0.0,0.0,0.0,0.0,0.0,0.0,0.0,0.0,0.0,0.0,0.0,0.0,0.0,0.0,0.0,0.0,0.0,0.0,0.0,-2.717,-2.9201,-2.9374,-2.9923,-3.0746,-2.9928,-2.9616,-3.0139,-2.8614,-2.7476,-2.6788,0.0,0.0,0.0,0.0,0.0,0.0,0.0,0.0,0.0,0.0,0.0,0.0,0.0,0.0,0.0,0.0,0.0,0.0,0.0,0.0,0.0,0.0,0.0,0.0,0.0,0.0,-2.4458,-2.3525,-2.3568,0.0,0.0,0.0,0.0,0.0,0.0,0.0,0.0,0.0,0.0,-3.2353,-3.3529,-3.4846,-3.4757,-3.4446,-3.4374,-3.3146,-3.2055,-3.1724,-3.0531,-2.9431,0.0,0.0,0.0,0.0,0.0,0.0,0.0,0.0,0.0,0.0,0.0,0.0,0.0,0.0,0.0,0.0,0.0,0.0,0.0,0.0,0.0,0.0,0.0,0.0,0.0,0.0,0.0,0.0,-3.2883,0.0,0.0,0.0,0.0,0.0,0.0,0.0,0.0,0.0,0.0,0.0,-2.8304,-2.8516,0.0,0.0,0.0,0.0,0.0,0.0,0.0,0.0,0.0,0.0,0.0,0.0,-2.73,-2.9336,-2.9226,-2.9611,-3.0542,-2.9835,-2.9466,-2.9626,-2.8724,-2.7412,-2.5627,0.0,0.0,0.0,0.0,0.0,0.0,0.0,0.0,0.0,0.0,0.0,0.0,0.0,0.0,0.0,0.0,0.0,0.0,0.0,0.0,0.0,0.0,0.0,0.0,0.0,-2.4965,0.0,0.0,0.0,0.0,0.0,0.0,0.0,0.0,0.0,0.0,0.0,-3.0801,-3.1366,-3.1874,-3.2404,-3.2778,-3.2989,-3.2937,0.0,0.0,0.0,0.0,0.0,0.0,0.0,0.0,0.0,0.0,0.0,0.0,0.0,0.0,-2.7641,-2.641,-2.587,-2.5579,-2.5416,0.0,0.0,0.0,0.0,0.0,0.0,0.0,0.0,0.0,0.0,0.0,0.0,0.0,0.0,0.0,0.0,-3.3093,0.0,0.0,0.0,0.0,0.0,0.0,0.0,0.0,-2.9533,-2.9734,-2.9376,-2.9323,-2.9101,0.0,-2.8945,-2.7933,0.0,0.0,0.0,0.0,0.0,0.0,0.0,0.0,-2.7806,-2.924,-2.9164,-2.9416,-3.0032,-2.9481,-2.9051,-2.8771,-2.8114,-2.6761,-2.4548,-2.1965,-2.0606,0.0,0.0,0.0,0.0,0.0,0.0,0.0,0.0,0.0,0.0,0.0,0.0,0.0,0.0,0.0,0.0,0.0,0.0,0.0,0.0,0.0,0.0,0.0,-2.4767,0.0,0.0,0.0,0.0,0.0,0.0,0.0,0.0,0.0,-2.9469,-3.0392,-3.1079,-3.1304,-3.1414,-3.1574,-3.1574,0.0,0.0,0.0,0.0,0.0,0.0,0.0,-2.811,-2.8083,-2.8177,-2.8372,-2.8645,-2.9371,-2.9429,-2.8007,0.0,0.0,-2.6451,-2.5884,-2.557,-2.5603,-2.6059,-2.6523,-2.6594,-2.7387,-2.7941,0.0,0.0,0.0,0.0,0.0,0.0,0.0,0.0,-3.7064,-3.5974,0.0,-3.5011,0.0,0.0,0.0,0.0,0.0,0.0,0.0,0.0,-3.1163,-3.136,-3.0722,-3.013,-3.0144,-3.0663,-3.0918,-3.0231,-2.8865,-2.8697,0.0,0.0,0.0,0.0,0.0,0.0,-2.8697,-2.8999,-2.9102,-2.924,-2.9544,-2.887,-2.8225,-2.7619,-2.68,-2.5498,-2.37,-2.273,-2.1937,-2.1313,-2.0714,0.0,0.0,0.0,0.0,0.0,0.0,0.0,0.0,0.0,0.0,0.0,0.0,0.0,0.0,0.0,0.0,0.0,0.0,0.0,0.0,-2.4767,0.0,0.0,0.0,0.0,0.0,0.0,0.0,0.0,0.0,0.0,-2.9323,-3.019,-3.0947,-3.1004,0.0,0.0,0.0,0.0,-3.0695,-2.9567,-2.8539,-2.7789,-2.7359,-2.7099,-2.7112,-2.7581,0.0,0.0,-2.7613,-2.8285,-2.8292,-2.6587,-2.6129,-2.6793,-2.8722,-2.7135,-2.6074,-2.7212,-2.7226,-2.736,-2.7415,-2.7558,-2.8038,-4.0364,0.0,0.0,0.0,0.0,-3.9105,-3.8802,-3.904,-3.8203,-3.717,-3.5953,-3.5798,0.0,0.0,0.0,0.0,0.0,0.0,-3.1507,-3.1104,-3.0787,-3.0942,-3.1522,-3.0788,-3.0615,-3.0945,-3.1361,-3.103,-2.9956,-2.9929,-2.9053,-2.7503,0.0,0.0,0.0,0.0,-2.8106,-2.9075,-2.8545,-2.8229,-2.8277,-2.7688,-2.7005,-2.6271,-2.5837,-2.4836,-2.3356,-2.1934,-2.1016,-2.081,-1.9573,0.0,0.0,0.0,0.0,0.0,0.0,0.0,0.0,0.0,0.0,0.0,0.0,0.0,0.0,0.0,0.0,0.0,0.0,0.0,-2.5123,-2.4325,-2.4192,0.0,0.0,0.0,0.0,0.0,0.0,0.0,0.0,0.0,-2.9303,-3.0306,-3.0735,0.0,0.0,-3.0713,-3.0318,-3.0756,-3.081,-2.9729,0.0,0.0,0.0,-2.7136,-2.6836,-2.7317,-2.7505,-2.7249,-2.6372,-2.6376,-2.5967,-2.4562,-2.4287,-2.445,-2.4631,-2.4727,-2.4431,-2.4073,-2.4616,-2.5393,-2.574,-2.6986,-2.8037,-4.2759,-4.1524,-4.0106,-4.0026,-4.0615,-3.9476,-3.9242,-3.9609,-3.8916,-3.8137,-3.7355,-3.728,-3.6184,-3.4415,-3.3565,0.0,0.0,0.0,-3.204,-3.1693,-3.1143,-3.1045,-3.1338,-3.0788,-3.069,-3.1016,-3.1124,-3.102,-3.0744,-3.0269,-2.9416,-2.8214,0.0,0.0,-2.7886,-2.7373,-2.7521,-2.8252,-2.7378,-2.7041,-2.7478,-2.6736,-2.6005,-2.5205,-2.4973,-2.4209,-2.2696,-2.1679,-2.0883,-2.0457,-1.9434,-1.8375,0.0,0.0,0.0,0.0,0.0,0.0,0.0,0.0,0.0,0.0,0.0,-2.2868,-2.2832,0.0,0.0,0.0,-2.4145,-2.465,-2.5612,-2.472,0.0,0.0,0.0,0.0,0.0,0.0,0.0,-2.8463,-2.8996,-2.922,-2.9015,-2.9585,-2.9995,-2.9665,-2.9988,-3.0147,-2.9805,0.0,-2.9697,-2.8555,-2.8087,-2.7586,-2.6982,-2.6465,-2.636,-2.703,-2.6918,-2.6451,-2.5633,-2.5114,-2.4536,-2.3564,-2.3213,-2.3085,-2.2777,-2.299,-2.3176,-2.2741,-2.3741,-2.4816,-2.5068,-2.6356,-2.7562,-4.4454,-4.3529,-4.1107,-4.009,-3.9975,-3.9253,-3.9106,-3.9255,-3.9272,-3.8914,-3.8407,-3.9023,-3.785,-3.5517,-3.4783,0.0,0.0,-3.3735,-3.3343,-3.196,-3.1923,-3.146,-3.0624,-3.046,-3.0512,-3.0926,-3.0414,-3.0497,-3.1056,-3.0011,-2.9482,-2.9322,-2.8806,-2.798,-2.701,-2.6944,-2.6935,-2.6947,-2.6005,-2.5959,-2.6847,-2.6091,-2.5204,-2.4301,-2.4407,-2.3645,-2.1958,-2.1826,-2.1284,-2.0086,-1.9687,-1.8792,-1.7519,0.0,0.0,0.0,0.0,0.0,0.0,0.0,0.0,0.0,0.0,0.0,0.0,0.0,0.0,0.0,-2.4551,0.0,-2.6463,-2.5648,0.0,0.0,0.0,-2.7299,-2.6457,-2.8123,-2.8976,-2.8106,0.0,0.0,0.0,0.0,-2.8859,-3.0058,-2.9885,-2.9594,-2.9582,-2.8976,-2.805,-2.7037,-2.6373,-2.5865,-2.5706,-2.5614,-2.5903,-2.6719,-2.6498,-2.5809,-2.5078,-2.4287,-2.368,-2.2925,-2.2756,-2.2637,-2.2254,-2.2208,-2.229,-2.2592,-2.3861,-2.4977,-2.5017,-2.5841,-2.6636,-4.4406,-4.4649,-4.2684,-4.1559,-4.0981,-4.0288,-3.9731,-3.9288,-3.904,-3.8805,-3.8678,-3.886,-3.8049,-3.6489,-3.5966,-3.5122,-3.4059,-3.3859,-3.3391,-3.2625,-3.1382,-3.0988,-3.1202,-3.0703,-3.0498,-3.0651,-3.0689,-3.0392,-2.974,-2.9551,-2.9053,-2.8333,-2.8053,-2.7841,-2.7565,-2.6752,-2.6355,-2.6358,-2.6164,-2.5869,-2.5705,-2.5864,-2.5113,-2.3382,-2.401,-2.3447,-2.1497,-2.1396,-2.0609,-1.8968,-1.8329,-1.7106,-1.52,-1.4973,0.0,0.0,0.0,0.0,0.0,0.0,0.0,0.0,0.0,-2.4285,-2.3929,0.0,-2.6365,0.0,-2.4958,-2.5578,-2.7303,-2.6288,0.0,0.0,-2.8925,-2.8509,-2.9012,-2.9321,-2.927,-2.8469,-2.8641,-2.868,-2.8491,-2.8203,-2.8286,-2.8847,-2.9205,-2.9374,-2.9386,-2.9558,-2.9282,-2.8214,-2.7349,-2.6829,-2.6193,-2.5931,-2.5886,-2.616,-2.5155,-2.4374,-2.4112,-2.3063,-2.2196,-2.2025,-2.1653,-2.1608,-2.1807,-2.1238,-2.0879,-2.1114,-2.2596,-2.3967,-2.4112,-2.4995,-2.5975,-4.4574,-4.4532,-4.3539,-4.2642,-4.1823,-4.0812,-4.0095,-3.9501,-3.9007,-3.875,-3.8583,-3.8286,-3.76,-3.6521,-3.6322,-3.5516,-3.436,-3.4011,-3.3477,-3.2651,-3.1482,-3.0941,-3.0793,-3.0171,-2.9953,-3.0017,-2.9973,-2.9494,-2.8758,-2.866,-2.8132,-2.7172,-2.6631,-2.6348,-2.6361,-2.5968,-2.5807,-2.5791,-2.5804,-2.5664,-2.5324,-2.5236,-2.4614,-2.3318,-2.347,-2.2763,-2.0967,-2.0947,-2.0172,-1.8662,-1.7865,-1.6785,-1.5459,-1.4821,-1.4392,0.0,0.0,0.0,0.0,0.0,0.0,0.0,0.0,0.0,0.0,0.0,-2.6904,0.0,-2.604,0.0,-2.8771,-2.7653,-2.7817,-3.0264,-2.9724,-2.916,-2.9241,-2.9407,-2.9169,-2.8342,-2.8238,-2.817,-2.8191,-2.8012,-2.7941,-2.8395,-2.8429,-2.8362,-2.8398,-2.881,-2.8864,-2.7906,-2.7119,-2.6388,-2.5695,-2.5553,-2.5411,-2.5131,-2.4405,-2.3724,-2.3377,-2.2432,-2.1642,-2.1454,-2.1177,-2.0935,-2.0882,-2.0482,-2.0093,-2.014,-2.1007,-2.2093,-2.2764,-2.371,-2.4562,-4.4809,-4.409,-4.3931,-4.3348,-4.2344,-4.1021,-4.0226,-3.9837,-3.8962,-3.8349,-3.8004,-3.7398,-3.6742,-3.6075,-3.6135,-3.5413,-3.423,-3.4203,-3.3687,-3.2654,-3.1871,-3.1105,-3.0266,-2.95,-2.9291,-2.9468,-2.8876,-2.836,-2.8032,-2.7611,-2.6913,-2.5999,-2.5008,-2.4536,-2.4549,-2.4942,-2.5166,-2.5192,-2.5204,-2.5193,-2.5337,-2.4539,-2.3928,-2.347,-2.2659,-2.174,-2.0527,-2.0488,-1.9899,-1.865,-1.7803,-1.7192,-1.6684,-1.5287,-1.4553,0.0,-1.4758,0.0,0.0,0.0,0.0,0.0,0.0,0.0,0.0,-2.626,-2.7037,-2.7741,-2.7061,-2.7496,-2.9808,-2.8783,-2.8467,-2.9779,-2.9853,-2.9376,-2.85,-2.8821,-2.8769,-2.7995,-2.7691,-2.7663,-2.7564,-2.7553,-2.7584,-2.7806,-2.7406,-2.6928,-2.6789,-2.7273,-2.725,-2.6458,-2.5977,-2.5306,-2.4598,-2.4598,-2.4596,-2.4159,-2.3619,-2.3315,-2.2581,-2.1841,-2.1193,-2.082,-2.0615,-2.0438,-1.9789,-1.965,-1.9408,-1.9059,-1.9312,-2.003,-2.1559,-2.2441,-2.294,-4.474,-4.5035,-4.4248,-4.3273,-4.2277,-4.1321,-4.0516,-3.9804,-3.8012,-3.6901,-3.63,-3.5911,-3.5792,-3.5856,-3.5832,-3.5477,-3.4814,-3.457,-3.4114,-3.3433,-3.2219,-3.1584,-3.1319,-3.0075,-2.9565,-2.9505,-2.8668,-2.7886,-2.7128,-2.6837,-2.6041,-2.4881,-2.4651,-2.4406,-2.3971,0.0,0.0,0.0,-2.4675,-2.4873,-2.5404,-2.4441,-2.3563,-2.2963,-2.1731,0.0,-1.9831,-1.9963,-1.9458,-1.8322,-1.774,0.0,0.0,0.0,0.0,0.0,0.0,0.0,0.0,0.0,0.0,0.0,-2.2461,-2.4139,-2.5779,-2.6721,-2.7336,-2.756,-2.6505,-2.6333,-2.7577,-2.7406,-2.7714,-2.9217,-2.8924,-2.8713,-2.8844,-2.8409,-2.7891,-2.7729,-2.7454,-2.6941,-2.6283,-2.6119,-2.6018,-2.5981,-2.6002,-2.5572,-2.4626,-2.5278,-2.5518,-2.5026,-2.4794,-2.4209,-2.3268,-2.3622,-2.3803,-2.3143,-2.2424,-2.1796,-2.1281,-2.0425,-1.9722,-1.9557,-1.9272,-1.9098,-1.9247,-1.8729,-1.8067,-1.7871,-1.7582,-1.8235,-2.1119,-2.2177,-2.2778,-4.4253,0.0,-4.3614,-4.2667,0.0,-4.0655,-3.9764,-3.8861,-3.7512,-3.6422,-3.5586,-3.5435,-3.5284,-3.5045,-3.5427,-3.5117,-3.4291,-3.4187,-3.3817,-3.3249,-3.2053,-3.13,-3.0956,-2.9723,-2.8985,-2.8624,-2.8194,-2.7428,-2.6458,-2.6088,-2.545,-2.4457,-2.3739,-2.3426,-2.3362,-2.3119,-2.3376,-2.4145,-2.4466,-2.4713,-2.4731,-2.3998,-2.3205,-2.2461,0.0,0.0,0.0,0.0,0.0,0.0,0.0,0.0,0.0,0.0,0.0,-1.6041,-1.6224,-1.6392,-1.6653,-1.8574,-1.98,-1.9969,-2.1952,-2.3998,-2.5722,-2.6948,-2.7451,-2.6866,-2.6387,-2.6232,-2.6783,-2.7096,-2.7758,-2.8771,-2.8797,-2.875,-2.8623,-2.8106,-2.7531,-2.7014,-2.6447,-2.5866,-2.5426,-2.4971,-2.4813,-2.4807,-2.4643,-2.4235,-2.3562,-2.4555,-2.536,-2.4559,-2.4166,-2.3659,-2.2978,-2.3059,-2.3021,-2.2203,-2.1704,-2.1155,-2.0152,-1.9608,-1.9144,-1.887,-1.8496,-1.8236,-1.7945,-1.7454,-1.6916,-1.6757,-1.6681,-1.7237,-1.9289,-2.0046,-2.0673,-4.3776,-4.2936,-4.2782,-4.1923,-4.0638,-3.9778,-3.8695,-3.746,0.0,0.0,0.0,-3.5031,-3.4683,-3.4146,-3.4802,-3.4573,-3.3652,-3.3583,-3.3324,-3.2756,-3.1679,-3.0795,-3.0186,-2.9063,-2.8245,-2.7683,-2.7621,-2.6987,-2.5986,-2.5445,-2.4932,-2.4304,-2.2911,-2.2396,-2.2714,-2.2432,-2.2618,-2.3394,-2.4068,-2.4214,-2.3758,-2.3212,-2.2573,-2.1821,-2.0864,-1.9976,-1.9269,-1.9259,-1.9336,-1.9336,-1.8751,-1.8623,-1.893,-1.746,-1.6629,-1.683,-1.62,-1.5866,-1.6149,-1.7977,-1.929,-1.9545,-2.1807,-2.3769,-2.5081,-2.6531,-2.6954,-2.5882,-2.5792,-2.578,-2.595,-2.6734,-2.7519,-2.7968,-2.8426,-2.8528,-2.8157,-2.7694,-2.7059,-2.6188,-2.5402,-2.4755,-2.4437,-2.3853,-2.3468,-2.3709,-2.3283,-2.2736,-2.2628,-2.358,-2.4312,-2.3533,-2.3122,-2.2958,-2.2625,-2.2396,-2.2096,-2.1059,-2.0872,-2.0329,-1.9175,-1.8718,-1.8482,-1.7961,-1.7737,-1.7277,-1.6676,-1.6349,-1.5999,-1.5658,-1.6043,-1.6623,-1.7029,-1.7499,-1.8233,-4.3605,-4.2765,-4.2535,-4.1337,-3.968,-3.9259,-3.7828,-3.576,-3.5031,-3.4279,-3.3593,-3.3593,-3.3546,-3.3451,-3.381,-3.3846,-3.365,-3.3299,-3.2976,0.0,-3.1078,-3.0251,-2.9825,-2.8458,-2.7755,-2.7694,-2.7186,-2.6576,-2.584,-2.4915,-2.4404,-2.4163,-2.2791,-2.2126,-2.2273,-2.2371,-2.2234,-2.2001,-2.2533,-2.2817,-2.2786,-2.1846,-2.1128,-2.0595,-1.9755,-1.9172,-1.9049,-1.9183,-1.9402,-1.9563,-1.9095,-1.8991,-1.9204,-1.8257,-1.7785,-1.7764,-1.7317,-1.7014,-1.7062,-1.8311,-1.9809,-2.1358,-2.2574,-2.3387,-2.3641,-2.4182,-2.4516,-2.4396,-2.3709,-2.3229,-2.3657,-2.4791,-2.5599,-2.6005,-2.6656,-2.7201,-2.7495,-2.6869,-2.6051,-2.5228,-2.4998,-2.4138,-2.2647,-2.2345,-2.2101,-2.177,-2.1699,-2.1592,-2.1252,-2.1095,-2.1094,-2.1134,-2.1192,-2.1225,-2.1124,-2.1034,-2.0604,-1.9889,-1.9074,-1.8394,-1.7351,-1.7001,-1.675,-1.6228,-1.6196,-1.6092,-1.5848,-1.5801,-1.5594,-1.5316,-1.5468,-1.5675,-1.6125,-1.6203,-1.6576,-4.3506,-4.2708,-4.1931,-4.0769,-3.9428,-3.8041,-3.6611,-3.5219,-3.451,-3.3887,-3.3324,-3.3293,-3.3293,-3.3309,-3.345,-3.3503,-3.3471,-3.2924,-3.2453,-3.1981,-3.0695,-2.972,-2.8981,-2.8111,-2.7549,-2.72,-2.639,-2.5812,-2.5331,-2.4214,-2.3636,-2.3632,-2.2832,-2.2188,-2.174,-2.1906,-2.1851,-2.1486,-2.2192,-2.241,-2.1978,-2.1309,-2.0785,-2.0424,-1.9411,-1.8801,-1.8877,-1.874,-1.8695,-1.877,-1.8844,-1.887,-1.8947,-1.8393,-1.8,-1.8018,-1.7688,-1.7433,-1.7359,-1.8605,-1.9824,-2.096,-2.1471,-2.1773,-2.1731,-2.311,-2.361,-2.296,-2.2584,-2.2584,-2.278,-2.3743,-2.4554,-2.4959,-2.5884,-2.6526,-2.6454,-2.6347,-2.5694,-2.4646,-2.3847,-2.293,-2.1414,-2.0772,-2.0299,-1.9956,-1.9975,-1.9917,-1.9745,-1.9488,-1.9515,-1.9935,-2.0226,-2.0103,-1.9766,-1.9719,-1.9224,-1.8162,-1.7587,-1.7016,-1.6316,-1.5999,-1.5864,-1.5705,-1.5547,-1.5427,-1.5411,-1.5237,-1.507,-1.4967,-1.5251,-1.5496,-1.5325,-1.5137,-1.543,-4.3331,-4.2526,-4.1378,-4.0186,-3.8888,-3.6859,-3.564,-3.5115,-3.4258,-3.3637,-3.3356,-3.3293,-3.3293,-3.3293,-3.3098,-3.3151,-3.3151,-3.225,-3.1667,-3.1353,-3.0066,-2.8981,-2.8211,-2.7705,-2.7171,-2.6562,-2.5753,-2.5194,-2.4661,-2.3557,-2.2906,-2.2816,-2.2617,-2.2159,-2.1308,-2.1533,-2.1409,-2.1117,-2.1806,-2.182,-2.1052,-2.0713,-2.0325,-1.9841,-1.9052,-1.8577,-1.8568,-1.8284,-1.8119,-1.8193,-1.8471,-1.8682,-1.8682,-1.8378,-1.823,-1.8128,-1.7881,-1.7669,-1.7624,-1.8505,-1.9347,-1.9937,-2.0206,-2.0282,-2.0483,-2.1985,-2.2762,-2.191,-2.2397,-2.2636,-2.2491,-2.3209,-2.3962,-2.4415,-2.5161,-2.5557,-2.5401,-2.5404,-2.4888,-2.357,-2.2517,-2.1637,-2.0457,-1.9482,-1.8998,-1.8767,-1.8682,-1.8682,-1.8609,-1.8471,-1.8629,-1.8883,-1.9192,-1.9071,-1.8366,-1.8244,-1.7823,-1.6683,-1.6547,-1.6226,-1.5718,-1.5578,-1.5499,-1.5419,-1.5221,-1.5078,-1.5038,-1.4798,-1.4632,-1.4681,-1.5039,-1.5221,-1.4721,-1.4585,-1.4584,-4.3003,-4.195,-4.0961,-3.9452,-3.7583,-3.5991,-3.5376,-3.5221,-3.3841,-3.3212,-3.3293,-3.3293,-3.3293,-3.3214,-3.2573,-3.2651,-3.3087,-3.1121,-3.0438,-3.0463,-2.8889,-2.7881,-2.752,-2.7091,-2.6533,-2.5915,-2.5537,-2.4887,-2.4086,-2.3206,-2.24,-2.1707,-2.1964,-2.1882,-2.1355,-2.1284,-2.1058,-2.0453,-2.0584,-2.0314,-1.9801,-1.9466,-1.8962,-1.8333,-1.8211,-1.8183,-1.8183,-1.8146,-1.8184,-1.8406,-1.8526,-1.8673,-1.8663,-1.8839,-1.8839,-1.858,-1.7922,-1.7517,-1.7534,-1.7703,-1.8284,-1.8972,-1.9389,-1.975,-2.0298,-2.0688,-2.1042,-2.1408,-2.2613,-2.2788,-2.1859,-2.2938,-2.3666,-2.366,-2.3779,-2.3931,-2.425,-2.3751,-2.2763,-2.126,-2.1251,-2.0624,-1.9238,-1.8718,-1.8561,-1.8349,-1.8385,-1.8467,-1.834,-1.8276,-1.7916,-1.7481,-1.7441,-1.7592,-1.7389,-1.6699,-1.6337,-1.6244,-1.5888,-1.5439,-1.5241,-1.5213,-1.5149,-1.4975,-1.48,-1.4752,-1.4656,-1.4505,-1.4441,-1.4497,-1.4561,-1.4489,-1.4425,-1.4361,-1.4472,-4.3003,-4.1933,-4.0495,-3.8691,-3.6774,-3.6315,-3.6007,-3.5568,-3.4643,-3.4042,-3.3726,-3.345,-3.3293,-3.3277,-3.2956,-3.273,-3.2494,-3.1215,-3.0292,-2.972,-2.8434,-2.7675,-2.7284,-2.675,-2.6313,-2.5997,-2.4977,-2.424,-2.3659,-2.2514,-2.1605,-2.1169,-2.1407,-2.1297,-2.0883,-2.0532,-2.0213,-1.9761,-1.9624,-1.9383,-1.9145,-1.924,-1.9044,-1.8572,-1.8247,-1.7979,-1.7734,-1.7541,-1.7403,-1.7546,-1.767,-1.7812,-1.7812,-1.7963,-1.8123,-1.7981,-1.784,-1.7844,-1.8212,-1.823,-1.8673,-1.9558,-1.9433,-1.9717,-2.0617,-2.0654,-2.0698,-2.0785,-2.1851,-2.2413,-2.1912,-2.2045,-2.2106,-2.2138,-2.219,-2.2266,-2.2045,-2.2284,-2.1827,-2.0513,-2.0135,-1.9595,-1.8404,-1.7819,-1.7627,-1.7537,-1.7617,-1.7654,-1.7555,-1.7537,-1.718,-1.6442,-1.599,-1.5733,-1.5749,-1.5581,-1.5209,-1.477,-1.4559,-1.4475,-1.4731,-1.4718,-1.4655,-1.4585,-1.4569,-1.4569,-1.4513,-1.4425,-1.4433,-1.4353,-1.4274,-1.4201,-1.4201,-1.4145,-1.408,-4.2719,-4.1733,-3.9984,-3.827,-3.679,-3.6654,-3.648,-3.606,-3.511,-3.4433,-3.4083,-3.3555,-3.3198,-3.3008,-3.2783,-3.2336,-3.1766,-3.0851,-3.0105,-2.9304,-2.8393,-2.774,-2.7423,-2.693,-2.6462,-2.595,-2.4648,-2.3631,-2.299,-2.1812,-2.1059,-2.0954,-2.1016,-2.0859,-2.049,-1.996,-1.9587,-1.9227,-1.8851,-1.8649,-1.8657,-1.8967,-1.9018,-1.8795,-1.8397,-1.8037,-1.7746,-1.7325,-1.7107,-1.7107,-1.7176,-1.7166,-1.7097,-1.7314,-1.7392,-1.7351,-1.7465,-1.7754,-1.825,-1.8485,-1.8896,-1.9535,-1.9545,-1.9844,-2.0551,-2.0683,-2.0546,-2.0446,-2.1129,-2.1618,-2.1652,-2.1399,-2.1235,-2.1156,-2.1203,-2.0958,-2.0575,-2.0927,-2.0628,-1.9543,-1.9132,-1.8625,-1.7826,-1.7259,-1.6972,-1.6963,-1.6936,-1.6908,-1.6908,-1.6936,-1.6648,-1.5683,-1.4974,-1.4576,-1.4296,-1.4275,-1.4065,-1.3902,-1.3769,-1.3996,-1.4217,-1.4289,-1.4361,-1.4353,-1.4418,-1.4418,-1.4346,-1.4281,-1.4217,-1.4065,-1.4057,-1.4057,-1.4072,-1.3863,-1.379,-4.1945,-4.1338,-3.9367,-3.8328,-3.806,-3.6522,-3.6332,-3.6802,-3.4966,-3.4131,-3.405,-3.3555,-3.2929,-3.2282,-3.158,-3.1202,-3.1031,-2.9735,-2.9357,-2.9701,-2.8688,-2.8186,-2.8137,-2.771,-2.6944,-2.5952,-2.4934,-2.3399,-2.1542,-2.1162,-2.0947,-2.0901,-2.0777,-2.0669,-2.042,-1.9812,-1.9355,-1.9011,-1.8434,-1.8124,-1.8363,-1.8413,-1.8506,-1.8529,-1.8377,-1.8261,-1.8173,-1.7862,-1.7638,-1.7638,-1.7442,-1.7166,-1.6968,-1.7097,-1.7176,-1.6978,-1.6936,-1.7093,-1.7408,-1.8105,-1.8697,-1.9003,-1.9677,-2.0169,-2.0369,-2.0346,-2.03,-2.0509,-2.0604,-2.0764,-2.0984,-2.1261,-2.1486,-2.1322,-2.0773,-2.0308,-2.0134,-1.9285,-1.8648,-1.8099,-1.8033,-1.7764,-1.7292,-1.7056,-1.689,-1.689,-1.6899,-1.6872,-1.6835,-1.6862,-1.6235,-1.5238,-1.4617,-1.4466,-1.3928,-1.3645,-1.3404,-1.3353,-1.3572,-1.384,-1.3992,-1.4137,-1.4129,-1.4122,-1.4129,-1.4122,-1.4057,-1.3992,-1.3863,-1.3863,-1.392,-1.3992,-1.3855,-1.379,-1.3717,-4.0815,-3.9184,-3.7737,-3.7339,-3.7485,-3.6274,-3.6406,-3.7349,-3.6047,-3.5096,-3.4529,-3.4034,-3.3003,-3.1586,-3.1284,-3.0872,-3.0382,-2.9782,-2.9404,-2.909,-2.8488,-2.8137,-2.8005,-2.756,-2.71,-2.6513,-2.5313,-2.3609,-2.178,-2.1592,-2.1305,-2.0864,-2.0712,-2.0666,-2.045,-1.9548,-1.8901,-1.8655,-1.7926,-1.7549,-1.7605,-1.8081,-1.84,-1.8434,-1.8455,-1.8414,-1.8347,-1.8124,-1.8124,-1.824,-1.8104,-1.7969,-1.7901,-1.7638,-1.7304,-1.6968,-1.7235,-1.751,-1.7794,-1.8509,-1.9288,-1.9879,-2.002,-2.0214,-2.0342,-2.0062,-1.9738,-1.9698,-1.9937,-2.018,-2.022,-2.0053,-1.9558,-1.9125,-1.8785,-1.8419,-1.8036,-1.7777,-1.7525,-1.6945,-1.6735,-1.6568,-1.6668,-1.6523,-1.6633,-1.6835,-1.6697,-1.656,-1.6486,-1.6331,-1.5766,-1.4959,-1.4822,-1.4772,-1.4205,-1.3432,-1.2966,-1.3119,-1.3331,-1.3497,-1.3675,-1.381,-1.384,-1.3787,-1.3746,-1.3787,-1.37,-1.3688,-1.363,-1.3572,-1.3702,-1.3775,-1.3645,-1.3645,-1.3572,-3.969,-3.7764,-3.7118,-3.7094,-3.7416,-3.7019,-3.7143,-3.7602,-3.6684,-3.5802,-3.5008,-3.4301,-3.3044,-3.1547,-3.1158,-3.049,-2.9688,-2.961,-2.9264,-2.8667,-2.8396,-2.8201,-2.8054,-2.771,-2.7274,-2.6672,-2.5194,-2.3478,-2.1993,-2.183,-2.1406,-2.0725,-2.0662,-2.0662,-2.0448,-1.9254,-1.8501,-1.8282,-1.7579,-1.7158,-1.7255,-1.7781,-1.8266,-1.8448,-1.8446,-1.8475,-1.8596,-1.8539,-1.8529,-1.8654,-1.8509,-1.8442,-1.8432,-1.8172,-1.7842,-1.751,-1.7774,-1.8046,-1.8337,-1.8977,-1.9759,-2.0344,-2.0473,-2.058,-2.0653,-2.0088,-1.9562,-1.9302,-1.9376,-1.9577,-1.8919,-1.8327,-1.793,-1.7781,-1.7575,-1.7149,-1.6665,-1.6701,-1.652,-1.6232,-1.5936,-1.589,-1.6037,-1.6101,-1.623,-1.6486,-1.6266,-1.6156,-1.6239,-1.5973,-1.5575,-1.5083,-1.5078,-1.4822,-1.4396,-1.3701,-1.3506,-1.36,-1.3339,-1.3338,-1.3292,-1.3512,-1.3482,-1.3439,-1.3353,-1.3351,-1.3375,-1.3361,-1.339,-1.3339,-1.3492,-1.3564,-1.3499,-1.3499,-1.3492,-3.8697,-3.7181,-3.7637,-3.7672,-3.7719,-3.822,-3.8321,-3.7445,-3.6512,-3.5813,-3.5328,-3.4301,-3.308,-3.1919,-3.1177,-3.0107,-2.9233,-2.892,-2.881,-2.8732,-2.8508,-2.8411,-2.8363,-2.8299,-2.7628,-2.6512,-2.4611,-2.3146,-2.206,-2.1883,-2.1493,-2.0878,-2.0625,-2.0511,-2.0524,-1.9162,-1.834,-1.8118,-1.7431,-1.7131,-1.7461,-1.743,-1.7808,-1.8481,-1.8308,-1.8479,-1.9145,-1.8931,-1.8875,-1.8998,-1.8674,-1.8395,-1.8576,-1.8509,-1.8509,-1.8375,-1.8442,-1.8586,-1.8798,-1.9452,-1.9911,-2.0226,-2.0764,-2.098,-2.0731,-2.037,-1.9912,-1.9455,-1.9317,-1.8794,-1.7363,-1.7099,-1.7367,-1.8291,-1.7349,-1.6703,-1.6449,-1.6048,-1.5698,-1.568,-1.5597,-1.5661,-1.5689,-1.5624,-1.5688,-1.5743,-1.5624,-1.566,-1.5896,-1.5734,-1.5689,-1.5659,-1.5531,-1.5248,-1.4629,-1.4073,-1.4198,-1.4155,-1.3688,-1.3418,-1.3164,-1.3179,-1.2948,-1.2844,-1.2731,-1.272,-1.2899,-1.2892,-1.3041,-1.3077,-1.3244,-1.3346,-1.3346,-1.3346,-1.3426,-3.7698,-3.6341,-3.634,-3.6599,-3.6861,-3.6419,-3.653,-3.7136,-3.5548,-3.506,-3.5121,-3.4001,-3.3189,-3.259,-3.1358,-3.0386,-2.9926,-2.8716,-2.8218,-2.8574,-2.8573,-2.8462,-2.8381,-2.8381,-2.7638,-2.6425,-2.5768,-2.4732,-2.3507,-2.3049,-2.2555,-2.1847,-2.0946,-2.0524,-2.041,-1.9162,-1.8363,-1.805,-1.7094,-1.6547,-1.6465,-1.6739,-1.7032,-1.7265,-1.7583,-1.7963,-1.8534,-1.892,-1.9198,-1.9407,-1.9274,-1.9131,-1.8931,-1.8931,-1.8787,-1.8576,-1.89,-1.9044,-1.9243,-1.9835,-2.0313,-2.0506,-2.0903,-2.0917,-2.0615,-2.0384,-2.0061,-1.9621,-1.9522,-1.9094,-1.8304,-1.741,-1.6818,-1.6045,-1.5785,-1.5688,-1.5586,-1.5395,-1.5304,-1.5249,-1.5047,-1.5111,-1.5405,-1.536,-1.5052,-1.5249,-1.4932,-1.4797,-1.5051,-1.5132,-1.5052,-1.5212,-1.5417,-1.5708,-1.5212,-1.4688,-1.4514,-1.4236,-1.3782,-1.3309,-1.3106,-1.2813,-1.2564,-1.2303,-1.2192,-1.2207,-1.2305,-1.2506,-1.2746,-1.2844,-1.3032,-1.3119,-1.32,-1.3273,-1.3273,-3.7186,-3.6173,-3.6222,-3.6275,-3.6389,-3.5994,-3.6254,-3.6524,-3.4823,-3.4449,-3.481,-3.3671,-3.2984,-3.2504,-3.105,-3.0242,-2.9908,-2.8514,-2.8138,-2.8432,-2.8231,-2.8122,-2.7919,-2.741,-2.6965,-2.6276,-2.5858,-2.5177,-2.4173,-2.3822,-2.3094,-2.1963,-2.1132,-2.0553,-2.0271,-1.9226,-1.8417,-1.7941,-1.724,-1.6564,-1.6206,-1.6347,-1.6568,-1.6789,-1.7042,-1.7532,-1.8158,-1.8547,-1.8929,-1.9399,-1.955,-1.9473,-1.9341,-1.933,-1.9264,-1.9187,-1.9386,-1.9584,-1.9649,-2.0053,-2.0388,-2.0453,-2.0646,-2.0726,-2.0461,-2.0375,-2.0057,-1.9765,-1.9694,-1.9266,-1.8196,-1.748,-1.6218,-1.463,-1.4656,-1.461,-1.4594,-1.4765,-1.4738,-1.4613,-1.4504,-1.4621,-1.4675,-1.4702,-1.4462,-1.4594,-1.423,-1.4264,-1.4631,-1.4818,-1.5025,-1.5323,-1.5714,-1.5907,-1.5854,-1.54,-1.491,-1.432,-1.3707,-1.3267,-1.2854,-1.2586,-1.2361,-1.186,-1.1587,-1.1758,-1.1859,-1.2336,-1.2629,-1.2757,-1.282,-1.2973,-1.3053,-1.3053,-1.3119,-3.7138,-3.6358,-3.6853,-3.6522,-3.6072,-3.7005,-3.6887,-3.5924,-3.4508,-3.427,-3.4508,-3.3395,-3.256,-3.1802,-3.0817,-2.9986,-2.9232,-2.856,-2.8275,-2.8181,-2.7811,-2.7441,-2.7333,-2.6275,-2.5909,-2.5971,-2.5364,-2.4811,-2.4603,-2.4225,-2.3163,-2.1983,-2.1381,-2.0757,-2.0064,-1.9223,-1.8363,-1.7865,-1.7445,-1.6822,-1.6188,-1.6227,-1.6396,-1.6743,-1.6648,-1.7032,-1.7869,-1.8049,-1.8331,-1.9107,-1.9378,-1.9454,-1.9584,-1.9726,-1.9651,-1.9629,-1.9955,-1.9879,-1.9987,-1.9933,-2.003,-2.0019,-2.015,-2.0183,-2.0317,-2.0124,-1.9934,-1.9789,-1.9827,-1.9054,-1.7492,-1.677,-1.5913,-1.4396,-1.4029,-1.3951,-1.3649,-1.4173,-1.4271,-1.3968,-1.4056,-1.4302,-1.3882,-1.3935,-1.39,-1.3969,-1.3735,-1.4127,-1.4881,-1.5106,-1.5503,-1.5776,-1.6129,-1.5973,-1.5919,-1.5707,-1.5133,-1.436,-1.3739,-1.3165,-1.2582,-1.2249,-1.1902,-1.1438,-1.1202,-1.1309,-1.1592,-1.2036,-1.2335,-1.2485,-1.2592,-1.282,-1.29,-1.29,-1.2973,-3.5895,-3.5568,-3.5599,-3.5411,-3.5212,-3.5908,-3.6095,-3.5698,-3.472,-3.4398,-3.4389,-3.3236,-3.2673,-3.274,-3.112,-3.0375,-2.9945,-2.876,-2.8124,-2.813,-2.7466,-2.7176,-2.704,-2.6291,-2.5864,-2.5925,-2.5741,-2.5689,-2.5884,-2.4967,-2.4205,-2.3751,-2.1824,-2.0841,-2.036,-1.8959,-1.7984,-1.7435,-1.6597,-1.6075,-1.5782,-1.5723,-1.5694,-1.5762,-1.5969,-1.6527,-1.7458,-1.7986,-1.8278,-1.8581,-1.8697,-1.894,-1.9246,-1.9156,-1.9116,-1.934,-1.9425,-1.9347,-1.9204,-1.9441,-1.9541,-1.9585,-1.9857,-1.9987,-1.9701,-1.9962,-1.9863,-1.9657,-1.949,-1.908,-1.8031,-1.7086,-1.5716,-1.4122,-1.3699,-1.3597,-1.3545,-1.3665,-1.3887,-1.4213,-1.3984,-1.3913,-1.3953,-1.3704,-1.3424,-1.3519,-1.3493,-1.3646,-1.4693,-1.5222,-1.5417,-1.6087,-1.6376,-1.6147,-1.5945,-1.5771,-1.5322,-1.4499,-1.3786,-1.3066,-1.2344,-1.1662,-1.1256,-1.0833,-1.1021,-1.1129,-1.1329,-1.1653,-1.1877,-1.2278,-1.2372,-1.2599,-1.2746,-1.282,-1.29,-3.5748,-3.5561,-3.5421,-3.5251,-3.5135,-3.5379,-3.5532,-3.5363,-3.4526,-3.4037,-3.3786,-3.2823,-3.2293,-3.2193,-3.0975,-3.031,-3.008,-2.8883,-2.8264,-2.8,-2.7512,-2.7394,-2.7309,-2.6667,-2.6329,-2.6504,-2.6359,-2.6387,-2.6265,-2.5434,-2.4637,-2.3527,-2.207,-2.0964,-2.0238,-1.9262,-1.8135,-1.749,-1.6652,-1.6151,-1.5806,-1.5806,-1.5979,-1.6036,-1.6171,-1.6478,-1.721,-1.8222,-1.8669,-1.8416,-1.8247,-1.8383,-1.8812,-1.8617,-1.8596,-1.8956,-1.888,-1.8814,-1.9111,-1.9271,-1.9271,-1.9347,-1.9661,-1.967,-1.9528,-1.9703,-1.9628,-1.9737,-1.9445,-1.8986,-1.8131,-1.6713,-1.5159,-1.3907,-1.3443,-1.326,-1.3119,-1.3269,-1.3418,-1.3639,-1.3651,-1.3484,-1.3788,-1.3281,-1.323,-1.3329,-1.3216,-1.3898,-1.4827,-1.5103,-1.5468,-1.6193,-1.6486,-1.6221,-1.5982,-1.5799,-1.5239,-1.4469,-1.3679,-1.2953,-1.2258,-1.1451,-1.1169,-1.0982,-1.0942,-1.1015,-1.1275,-1.158,-1.1991,-1.2265,-1.2291,-1.2378,-1.2599,-1.2673,-1.2753,-3.6072,-3.591,-3.5844,-3.5735,-3.5571,-3.5532,-3.5577,-3.5244,-3.4527,-3.3812,-3.3335,-3.2504,-3.1918,-3.0989,-3.0734,-3.0017,-2.9438,-2.8949,-2.8384,-2.7959,-2.7615,-2.7645,-2.7821,-2.7006,-2.6594,-2.6693,-2.6923,-2.6572,-2.5916,-2.5336,-2.4259,-2.291,-2.1931,-2.1015,-2.0107,-1.9482,-1.8697,-1.7809,-1.7313,-1.6877,-1.6482,-1.6415,-1.6585,-1.6877,-1.6914,-1.6882,-1.7402,-1.8284,-1.8885,-1.8449,-1.7978,-1.8114,-1.8405,-1.8239,-1.8249,-1.8554,-1.85,-1.8573,-1.9147,-1.9082,-1.9113,-1.9167,-1.9252,-1.9312,-1.928,-1.9334,-1.9434,-1.9511,-1.9498,-1.8878,-1.7708,-1.5889,-1.4642,-1.3813,-1.3356,-1.2987,-1.2781,-1.2846,-1.2925,-1.2733,-1.32,-1.3135,-1.2905,-1.2821,-1.3103,-1.3216,-1.3205,-1.3746,-1.4574,-1.5092,-1.5646,-1.6432,-1.6451,-1.6266,-1.6037,-1.5817,-1.5136,-1.4349,-1.3601,-1.2862,-1.2305,-1.171,-1.1454,-1.1226,-1.1007,-1.1119,-1.1517,-1.1807,-1.2085,-1.2191,-1.2224,-1.2378,-1.2526,-1.2452,-1.2526,-3.5484,-3.5877,-3.5504,-3.5559,-3.5888,-3.6045,-3.6071,-3.6011,-3.5535,-3.4827,-3.4201,-3.3278,-3.2412,-3.1658,-3.09,-3.0284,-2.9361,-2.8934,-2.8384,-2.7437,-2.7335,-2.7647,-2.7877,-2.7277,-2.6332,-2.583,-2.6061,-2.5835,-2.5062,-2.4379,-2.3445,-2.2578,-2.1529,-2.0715,-2.0279,-1.9385,-1.8685,-1.8159,-1.7667,-1.7268,-1.709,-1.6968,-1.709,-1.7279,-1.7597,-1.7654,-1.7679,-1.8192,-1.8561,-1.8452,-1.818,-1.8116,-1.8542,-1.8103,-1.7968,-1.8312,-1.8197,-1.8101,-1.8426,-1.8541,-1.8571,-1.8881,-1.8997,-1.888,-1.866,-1.9014,-1.891,-1.8691,-1.8858,-1.8558,-1.7398,-1.5651,-1.4672,-1.4177,-1.3515,-1.2983,-1.2739,-1.2647,-1.275,-1.2924,-1.2907,-1.2867,-1.2972,-1.2725,-1.2899,-1.305,-1.3322,-1.3664,-1.4319,-1.5024,-1.5753,-1.648,-1.6513,-1.6351,-1.6136,-1.5839,-1.5172,-1.443,-1.3608,-1.2799,-1.2226,-1.1847,-1.1578,-1.1242,-1.0923,-1.1198,-1.1618,-1.1657,-1.1867,-1.1972,-1.2157,-1.2305,-1.2378,-1.2305,-1.2305,-3.5498,-3.5685,-3.553,-3.5605,-3.5827,-3.6088,-3.6156,-3.6097,-3.5941,-3.5094,-3.3963,-3.3182,-3.223,-3.1021,-3.0523,-2.9837,-2.9012,-2.8384,-2.783,-2.7358,-2.735,-2.7424,-2.7328,-2.7627,-2.715,-2.6256,-2.6967,-2.6408,-2.5,-2.3944,-2.3257,-2.2155,-2.1153,-2.0555,-2.0195,-1.9385,-1.8869,-1.8375,-1.7995,-1.771,-1.7644,-1.7644,-1.7589,-1.771,-1.8124,-1.8345,-1.8075,-1.818,-1.852,-1.8623,-1.8204,-1.7962,-1.8101,-1.7491,-1.7399,-1.7874,-1.7708,-1.7801,-1.8123,-1.8354,-1.8427,-1.8448,-1.8691,-1.8657,-1.8422,-1.8445,-1.8321,-1.8041,-1.8032,-1.7849,-1.7101,-1.6206,-1.5335,-1.4835,-1.4095,-1.3506,-1.3314,-1.2907,-1.2677,-1.2774,-1.2741,-1.2749,-1.2687,-1.2655,-1.2816,-1.3022,-1.341,-1.3705,-1.4315,-1.5019,-1.5545,-1.6173,-1.6437,-1.645,-1.6211,-1.5824,-1.5189,-1.4519,-1.3838,-1.2934,-1.2184,-1.1906,-1.1597,-1.1365,-1.1153,-1.1242,-1.1525,-1.1604,-1.1636,-1.1838,-1.2003,-1.2157,-1.2231,-1.2157,-1.2157,-3.5699,-3.5446,-3.5684,-3.5756,-3.565,-3.6028,-3.6156,-3.6054,-3.5847,-3.4962,-3.3456,-3.3073,-3.2027,-3.0542,-3.0145,-2.9446,-2.8386,-2.7285,-2.6695,-2.6806,-2.7091,-2.6739,-2.6474,-2.7223,-2.7662,-2.7694,-2.7588,-2.6515,-2.4465,-2.3782,-2.2406,-2.1342,-2.0792,-2.0223,-1.9768,-1.9525,-1.9133,-1.8643,-1.8441,-1.8267,-1.8267,-1.8201,-1.8213,-1.8104,-1.8398,-1.8553,-1.8278,-1.8294,-1.8542,-1.908,-1.8279,-1.7823,-1.7445,-1.7017,-1.685,-1.7802,-1.7613,-1.7821,-1.8375,-1.8448,-1.8281,-1.7988,-1.8364,-1.8521,-1.8173,-1.7947,-1.7781,-1.7529,-1.7397,-1.7016,-1.6747,-1.6265,-1.5945,-1.5507,-1.4737,-1.4305,-1.404,-1.3316,-1.2924,-1.2695,-1.2758,-1.279,-1.2718,-1.2725,-1.2833,-1.3005,-1.3408,-1.3841,-1.4395,-1.4899,-1.5394,-1.587,-1.6149,-1.6263,-1.6076,-1.5385,-1.4844,-1.423,-1.367,-1.2882,-1.2117,-1.1937,-1.1653,-1.1659,-1.1535,-1.1493,-1.1426,-1.1525,-1.1569,-1.1632,-1.1781,-1.1929,-1.2003,-1.1929,-1.199,-3.5701,-3.5041,-3.5711,-3.5827,-3.5739,-3.6318,-3.6527,-3.6402,-3.5725,-3.5329,-3.4684,-3.3557,-3.2348,-3.1447,-3.0865,-2.983,-2.7992,-2.6599,-2.5727,-2.5879,-2.6197,-2.5957,-2.5692,-2.6495,-2.661,-2.5939,-2.5911,-2.4518,-2.2298,-2.1251,-2.1261,-2.0097,-1.9763,-1.9599,-1.9574,-1.942,-1.9275,-1.8987,-1.8839,-1.8774,-1.8655,-1.8602,-1.8375,-1.8038,-1.8147,-1.8267,-1.8267,-1.8213,-1.8476,-1.9066,-1.8422,-1.8107,-1.8024,-1.7946,-1.835,-1.867,-1.8301,-1.8129,-1.8679,-1.8249,-1.8061,-1.8102,-1.8249,-1.8114,-1.7968,-1.7747,-1.7513,-1.7061,-1.6747,-1.6296,-1.5974,-1.5996,-1.5701,-1.5296,-1.4967,-1.4512,-1.4222,-1.372,-1.3292,-1.3036,-1.2981,-1.2932,-1.2805,-1.2797,-1.2908,-1.3116,-1.3469,-1.3751,-1.4201,-1.461,-1.5032,-1.5452,-1.5895,-1.5912,-1.5913,-1.5013,-1.429,-1.3678,-1.3071,-1.2535,-1.1998,-1.1835,-1.1761,-1.1588,-1.144,-1.1286,-1.1304,-1.1409,-1.1409,-1.1484,-1.1632,-1.1774,-1.1717,-1.1665,-1.171,-3.4979,-3.4492,-3.5329,-3.5633,-3.5661,-3.6377,-3.6318,-3.5732,-3.5284,-3.4391,-3.3222,-3.2259,-3.1354,-3.0353,-2.9312,-2.809,-2.6901,-2.6134,-2.5397,-2.5384,-2.5877,-2.5806,-2.5152,-2.5925,-2.5367,-2.4646,-2.4246,-2.3395,-2.1392,-2.1467,-2.063,-1.9726,-1.942,-1.942,-1.9368,-1.9328,-1.9275,-1.917,-1.8839,-1.8602,-1.8494,-1.8321,-1.7875,-1.7765,-1.7655,-1.782,-1.8104,-1.7765,-1.8147,-1.8732,-1.8483,-1.8375,-1.8511,-1.8655,-1.8748,-1.8862,-1.8506,-1.8283,-1.8685,-1.8301,-1.8396,-1.8212,-1.8276,-1.8288,-1.8164,-1.7897,-1.7476,-1.6879,-1.6299,-1.612,-1.6367,-1.62,-1.6254,-1.6017,-1.5396,-1.5026,-1.4799,-1.4112,-1.3677,-1.3387,-1.3139,-1.3004,-1.2951,-1.2962,-1.3068,-1.3275,-1.3576,-1.3862,-1.4132,-1.4407,-1.4825,-1.5399,-1.5912,-1.5833,-1.5683,-1.482,-1.3878,-1.3158,-1.2649,-1.2118,-1.1838,-1.1687,-1.1632,-1.1471,-1.1329,-1.1186,-1.1186,-1.126,-1.126,-1.1254,-1.1385,-1.1495,-1.1388,-1.1345,-1.1345,-3.4334,-3.3852,-3.4739,-3.5019,-3.5031,-3.5574,-3.5307,-3.4542,-3.4304,-3.3105,-3.123,-3.0914,-3.0147,-2.8654,-2.737,-2.6312,-2.556,-2.5558,-2.5149,-2.5152,-2.5739,-2.5699,-2.5135,-2.5092,-2.4838,-2.3631,-2.3086,-2.2485,-2.1493,-2.1343,-2.0623,-1.9624,-1.9214,-1.9158,-1.9052,-1.8893,-1.9011,-1.8774,-1.8375,-1.8038,-1.782,-1.7479,-1.709,-1.7034,-1.7034,-1.7257,-1.7534,-1.7424,-1.782,-1.8375,-1.8548,-1.8494,-1.8934,-1.8999,-1.8748,-1.8238,-1.8213,-1.8163,-1.8251,-1.8218,-1.8133,-1.7994,-1.852,-1.8565,-1.8431,-1.8019,-1.753,-1.6732,-1.6404,-1.5972,-1.6102,-1.6396,-1.6432,-1.6231,-1.5626,-1.5223,-1.5041,-1.4607,-1.3862,-1.3563,-1.334,-1.3052,-1.2889,-1.3195,-1.3275,-1.3513,-1.3807,-1.4117,-1.4363,-1.4395,-1.4846,-1.5492,-1.5903,-1.5762,-1.5401,-1.4681,-1.3712,-1.2809,-1.2338,-1.1883,-1.1675,-1.1558,-1.1409,-1.1186,-1.1403,-1.1254,-1.1186,-1.1117,-1.1117,-1.1174,-1.1218,-1.1206,-1.1076,-1.0929,-1.0855,-3.4533,-3.343,-3.3931,-3.3809,-3.3383,-3.3345,-3.3155,-3.2917,-3.2517,-3.1792,-3.0483,-3.0656,-2.9508,-2.7739,-2.6205,-2.5517,-2.5189,-2.4723,-2.4546,-2.469,-2.5021,-2.4723,-2.3819,-2.4041,-2.3891,-2.2971,-2.2311,-2.1355,-2.0923,-2.066,-2.0001,-1.9142,-1.8655,-1.8302,-1.841,-1.841,-1.8247,-1.8182,-1.7886,-1.7545,-1.7257,-1.7146,-1.681,-1.6528,-1.6415,-1.6539,-1.6754,-1.6922,-1.7479,-1.8104,-1.8655,-1.8881,-1.8987,-1.8987,-1.8667,-1.8244,-1.8047,-1.8013,-1.8002,-1.7829,-1.7685,-1.7767,-1.8042,-1.8263,-1.8219,-1.7991,-1.7356,-1.5959,-1.6296,-1.6219,-1.5689,-1.5401,-1.5462,-1.5394,-1.524,-1.5057,-1.5035,-1.4391,-1.3773,-1.3629,-1.3284,-1.2996,-1.2709,-1.3188,-1.3561,-1.3791,-1.4037,-1.4339,-1.4546,-1.4601,-1.4489,-1.5046,-1.5471,-1.5471,-1.4895,-1.4171,-1.3368,-1.2439,-1.207,-1.1706,-1.1484,-1.126,-1.0887,-1.0812,-1.1037,-1.118,-1.0962,-1.0887,-1.1043,-1.1069,-1.107,-1.0955,-1.0749,-1.0598,-1.0542,-3.3128,-3.2408,-3.3062,-3.2991,-3.2494,-3.255,-3.1984,-3.1095,-3.0684,-2.9772,-2.8537,-2.8046,-2.6954,-2.5611,-2.4874,-2.4738,-2.4498,-2.4159,-2.4066,-2.4354,-2.4477,-2.4173,-2.3576,-2.3366,-2.3125,-2.2775,-2.2137,-2.1534,-2.086,-2.0366,-1.9853,-1.8988,-1.8678,-1.8403,-1.8121,-1.8096,-1.7963,-1.7623,-1.7112,-1.6549,-1.6208,-1.614,-1.6083,-1.5796,-1.5796,-1.5968,-1.6255,-1.6472,-1.6978,-1.7479,-1.7929,-1.7984,-1.7984,-1.7972,-1.782,-1.7611,-1.7207,-1.7179,-1.7419,-1.7429,-1.7554,-1.7671,-1.7873,-1.7985,-1.8035,-1.7955,-1.7762,-1.7312,-1.6762,-1.6249,-1.5839,-1.5721,-1.5558,-1.5411,-1.4794,-1.4803,-1.4588,-1.3913,-1.3378,-1.3348,-1.3316,-1.2933,-1.2806,-1.3203,-1.3624,-1.3886,-1.4079,-1.4395,-1.4665,-1.4832,-1.4625,-1.4322,-1.4689,-1.4982,-1.425,-1.352,-1.2851,-1.205,-1.1774,-1.1484,-1.1186,-1.0968,-1.0669,-1.0368,-1.0363,-1.0438,-1.0513,-1.0801,-1.1013,-1.1009,-1.0918,-1.0743,-1.0586,-1.0557,-1.039,-3.1491,-3.1031,-3.1674,-3.1572,-3.1015,-3.1225,-3.036,-2.905,-2.9029,-2.8018,-2.6456,-2.5648,-2.4745,-2.4062,-2.4271,-2.4313,-2.3918,-2.4052,-2.4161,-2.4294,-2.4216,-2.3945,-2.3534,-2.3153,-2.2848,-2.2739,-2.1901,-2.1404,-2.1072,-2.0546,-1.9855,-1.9007,-1.8767,-1.843,-1.807,-1.779,-1.7476,-1.6775,-1.6265,-1.5768,-1.5381,-1.5303,-1.5362,-1.5362,-1.5362,-1.5517,-1.5911,-1.6197,-1.6539,-1.6765,-1.7079,-1.7191,-1.7257,-1.7324,-1.7213,-1.6989,-1.6602,-1.6487,-1.676,-1.6971,-1.7471,-1.7731,-1.7986,-1.8097,-1.8097,-1.7967,-1.7774,-1.7804,-1.6913,-1.6524,-1.6228,-1.5598,-1.5196,-1.4846,-1.4551,-1.4478,-1.4315,-1.3587,-1.3089,-1.3083,-1.302,-1.2916,-1.2916,-1.3281,-1.3597,-1.395,-1.419,-1.4411,-1.4522,-1.4625,-1.4355,-1.3829,-1.3845,-1.403,-1.3517,-1.2818,-1.2191,-1.1816,-1.1459,-1.1329,-1.1111,-1.0812,-1.0513,-1.0218,-0.9992,-1.0067,-1.0368,-1.0714,-1.1057,-1.0985,-1.0864,-1.0568,-1.0359,-1.0343,-1.0101,-3.0029,-2.9272,-2.9426,-2.9053,-2.8302,-2.8042,-2.7637,-2.7061,-2.7501,-2.6808,-2.5258,-2.4549,-2.4264,-2.4121,-2.4039,-2.399,-2.3806,-2.4426,-2.4689,-2.4673,-2.4483,-2.3981,-2.3533,-2.305,-2.2678,-2.2247,-2.1663,-2.1285,-2.1019,-2.0515,-1.9841,-1.9228,-1.8851,-1.8262,-1.7733,-1.728,-1.6696,-1.5992,-1.5526,-1.5303,-1.5088,-1.5029,-1.5098,-1.5088,-1.5147,-1.5205,-1.5137,-1.571,-1.5989,-1.6036,-1.6358,-1.6641,-1.6662,-1.6729,-1.6616,-1.6368,-1.6244,-1.6107,-1.6184,-1.6387,-1.6697,-1.7163,-1.7755,-1.8211,-1.8025,-1.8342,-1.8202,-1.7647,-1.6862,-1.6167,-1.5379,-1.4489,-1.4387,-1.4238,-1.415,-1.3953,-1.3648,-1.3207,-1.2819,-1.2757,-1.2741,-1.2741,-1.2894,-1.324,-1.3494,-1.3768,-1.3823,-1.4026,-1.3734,-1.3727,-1.366,-1.3323,-1.3057,-1.2913,-1.2671,-1.2128,-1.1674,-1.1537,-1.1354,-1.1236,-1.1105,-1.0738,-1.0062,-1.0143,-0.9992,-1.0067,-1.0218,-1.0651,-1.0989,-1.0979,-1.0834,-1.0569,-1.0061,-0.9748,-0.9452,-2.9189,-2.7925,-2.758,-2.7457,-2.7431,-2.7079,-2.6483,-2.6022,-2.6381,-2.565,-2.4092,-2.3999,-2.3661,-2.3326,-2.3282,-2.3692,-2.411,-2.4171,-2.4552,-2.4557,-2.4279,-2.38,-2.3352,-2.2884,-2.2359,-2.2061,-2.1561,-2.1233,-2.1106,-2.0464,-2.0085,-1.9565,-1.9091,-1.8505,-1.7852,-1.6798,-1.5928,-1.5615,-1.5059,-1.4666,-1.4893,-1.497,-1.5039,-1.5039,-1.5029,-1.5039,-1.5098,-1.5264,-1.5371,-1.542,-1.5584,-1.5816,-1.5999,-1.5999,-1.5941,-1.5806,-1.5796,-1.5758,-1.58,-1.6039,-1.6396,-1.6654,-1.7362,-1.7869,-1.7714,-1.7942,-1.821,-1.7706,-1.6862,-1.5956,-1.5773,-1.4727,-1.4007,-1.393,-1.3668,-1.3401,-1.3171,-1.2764,-1.2511,-1.2457,-1.2526,-1.2588,-1.2871,-1.3178,-1.3407,-1.3638,-1.3585,-1.3477,-1.3072,-1.2727,-1.2629,-1.2359,-1.208,-1.1924,-1.1622,-1.1384,-1.118,-1.1101,-1.1095,-1.095,-1.0773,-0.9755,-0.9231,-0.9539,-0.9916,-0.9841,-1.0062,-1.0663,-1.0908,-1.0881,-1.0833,-1.0621,-0.9995,-0.9196,-0.8705,-2.8629,-2.7265,-2.6589,-2.6414,-2.6497,-2.6196,-2.5672,-2.5201,-2.5727,-2.5198,-2.3752,-2.3635,-2.3387,-2.3016,-2.2959,-2.3575,-2.43,-2.4412,-2.4509,-2.4346,-2.4047,-2.3505,-2.304,-2.2506,-2.1987,-2.1812,-2.136,-2.1042,-2.0978,-2.0399,-2.0107,-1.9846,-1.9404,-1.8776,-1.7867,-1.642,-1.541,-1.4991,-1.4656,-1.4249,-1.4478,-1.4734,-1.4862,-1.4862,-1.4852,-1.4852,-1.4862,-1.4911,-1.4961,-1.4961,-1.502,-1.502,-1.5147,-1.5205,-1.5264,-1.5371,-1.542,-1.5536,-1.5771,-1.6098,-1.6357,-1.6536,-1.7159,-1.7333,-1.7262,-1.7492,-1.7668,-1.7638,-1.6576,-1.5807,-1.5728,-1.4506,-1.3875,-1.3663,-1.3231,-1.2938,-1.2848,-1.2603,-1.239,-1.2168,-1.2307,-1.2304,-1.263,-1.2916,-1.3188,-1.3347,-1.337,-1.3004,-1.2186,-1.1871,-1.1623,-1.1281,-1.086,-1.0765,-1.0664,-1.0712,-1.067,-1.0583,-1.0524,-1.0489,-1.0149,-0.9204,-0.9018,-0.9614,-0.9841,-0.9609,-1.0062,-1.0812,-1.0873,-1.0833,-1.0645,-1.0227,-0.9504,-0.8631,-0.792,-2.8246,-2.7417,-2.6704,-2.5875,-2.5211,-2.5226,-2.4866,-2.4465,-2.5394,-2.5335,-2.4283,-2.3155,-2.3056,-2.3543,-2.3226,-2.3697,-2.4439,-2.4547,-2.4486,-2.4182,-2.3695,-2.3088,-2.2555,-2.1951,-2.16,-2.121,-2.0903,-2.0711,-2.0646,-2.0259,-2.014,-1.99,-1.9467,-1.8738,-1.8216,-1.6345,-1.4834,-1.3803,-1.3941,-1.4001,-1.413,-1.4378,-1.4565,-1.4625,-1.4725,-1.4725,-1.4675,-1.4793,-1.4843,-1.4843,-1.4834,-1.4961,-1.5156,-1.5205,-1.5254,-1.5352,-1.541,-1.5546,-1.5886,-1.6267,-1.6387,-1.6447,-1.7024,-1.7333,-1.7288,-1.7216,-1.7148,-1.7148,-1.5807,-1.4887,-1.4466,-1.4049,-1.3702,-1.3417,-1.2939,-1.2728,-1.2669,-1.2204,-1.1926,-1.1838,-1.1885,-1.1907,-1.2285,-1.2555,-1.2953,-1.3127,-1.3187,-1.2596,-1.1567,-1.1121,-1.0842,-1.0453,-1.0037,-1.0287,-1.0323,-1.0236,-1.0159,-1.0076,-1.0005,-0.9997,-0.9853,-0.9289,-0.9326,-0.9797,-0.9841,-0.9765,-1.0363,-1.1043,-1.0593,-1.0148,-0.9991,-0.9513,-0.8836,-0.8149,-0.7416,-2.8316,-2.7525,-2.6817,-2.5988,-2.513,-2.4725,-2.4621,-2.4728,-2.5012,-2.4509,-2.3372,-2.2602,-2.2407,-2.2604,-2.2791,-2.3232,-2.4064,-2.392,-2.3804,-2.3846,-2.3207,-2.2604,-2.2002,-2.1577,-2.1285,-2.1094,-2.0839,-2.0582,-2.0646,-2.0259,-2.0151,-1.9933,-1.9111,-1.8211,-1.7071,-1.5733,-1.4619,-1.4034,-1.3863,-1.3752,-1.4001,-1.4258,-1.4455,-1.4446,-1.4538,-1.4597,-1.4666,-1.4784,-1.4843,-1.4902,-1.4902,-1.5029,-1.5156,-1.5215,-1.5264,-1.5362,-1.542,-1.5536,-1.5846,-1.6123,-1.6163,-1.6347,-1.6673,-1.7081,-1.6938,-1.6938,-1.6908,-1.6515,-1.5251,-1.4537,-1.4266,-1.3615,-1.3178,-1.3208,-1.2969,-1.2866,-1.2647,-1.1769,-1.1279,-1.1423,-1.1446,-1.1355,-1.1586,-1.2055,-1.2434,-1.2267,-1.2204,-1.1743,-1.0893,-1.0597,-1.0325,-0.9793,-0.949,-0.9892,-1.0061,-1.0136,-1.0256,-1.0327,-0.9948,-0.9601,-0.9325,-0.9101,-0.9309,-0.9621,-0.9808,-0.9992,-1.0143,-1.0137,-0.9679,-0.9236,-0.9183,-0.8798,-0.8098,-0.752,-0.6932,-2.829,-2.74,-2.6867,-2.604,-2.5098,-2.4589,-2.456,-2.4702,-2.4282,-2.3532,-2.2889,-2.2337,-2.2218,-2.2138,-2.2246,-2.2658,-2.3657,-2.3459,-2.3174,-2.3255,-2.2543,-2.1877,-2.1388,-2.1008,-2.0764,-2.07,-2.0571,-2.0388,-2.0399,-2.0205,-1.991,-1.9378,-1.8678,-1.7444,-1.6326,-1.541,-1.4688,-1.4103,-1.3743,-1.3631,-1.3761,-1.389,-1.413,-1.413,-1.424,-1.441,-1.4656,-1.4843,-1.5029,-1.5029,-1.5098,-1.5147,-1.5205,-1.5264,-1.5313,-1.5362,-1.5478,-1.5604,-1.5798,-1.5972,-1.5906,-1.5527,-1.6179,-1.6529,-1.6392,-1.6174,-1.5992,-1.5525,-1.4681,-1.4194,-1.3768,-1.3046,-1.3025,-1.3048,-1.2899,-1.2785,-1.2365,-1.1563,-1.1135,-1.1228,-1.1304,-1.1189,-1.0966,-1.1438,-1.1913,-1.1508,-1.1115,-1.067,-1.0268,-1.0109,-0.9932,-0.9576,-0.9397,-0.9858,-1.0114,-1.0136,-1.0296,-1.0517,-1.0053,-0.9434,-0.8974,-0.8756,-0.907,-0.9284,-0.9066,-0.8941,-0.9241,-0.916,-0.8851,-0.8599,-0.8458,-0.8019,-0.738,-0.6896,-0.6473,-2.8094,-2.7217,-2.6771,-2.595,-2.4981,-2.462,-2.4432,-2.4237,-2.31,-2.2949,-2.3317,-2.1632,-2.1666,-2.255,-2.2405,-2.2598,-2.3024,-2.2954,-2.2685,-2.2262,-2.1741,-2.1071,-2.0571,-2.0248,-2.0183,-1.9987,-1.9922,-2.0064,-2.0085,-2.0151,-1.9703,-1.8837,-1.8176,-1.7057,-1.6068,-1.542,-1.4703,-1.4019,-1.3821,-1.3571,-1.3442,-1.3571,-1.3761,-1.3821,-1.3932,-1.4291,-1.4656,-1.4902,-1.5088,-1.5147,-1.5215,-1.5254,-1.5362,-1.542,-1.542,-1.5478,-1.5546,-1.5672,-1.573,-1.5846,-1.5596,-1.5254,-1.533,-1.578,-1.5824,-1.5403,-1.5176,-1.4816,-1.4114,-1.3615,-1.3119,-1.2973,-1.29,-1.2788,-1.2655,-1.2389,-1.2128,-1.1643,-1.1293,-1.1302,-1.1444,-1.1286,-1.081,-1.1015,-1.1343,-1.0652,-1.0242,-1.0074,-0.9793,-0.9921,-0.9725,-0.9647,-0.9635,-0.9962,-1.0143,-1.0234,-1.0329,-1.0488,-1.0063,-0.9458,-0.8932,-0.8496,-0.8711,-0.8696,-0.8026,-0.7966,-0.8403,-0.8399,-0.8089,-0.791,-0.7664,-0.7507,-0.6939,-0.6579,-0.6275,-2.8166,-2.7357,-2.6673,-2.595,-2.5307,-2.4637,-2.3762,-2.2765,-2.296,-2.2811,-2.1699,-2.1354,-2.1462,-2.1653,-2.1511,-2.19,-2.1919,-2.179,-2.1534,-2.1202,-2.0846,-2.0302,-1.9987,-1.9802,-1.9736,-1.9671,-1.9671,-1.9802,-1.9933,-1.9998,-1.9594,-1.8757,-1.815,-1.7092,-1.6208,-1.5653,-1.4731,-1.4107,-1.4012,-1.3571,-1.3442,-1.37,-1.37,-1.3692,-1.3983,-1.441,-1.4784,-1.5029,-1.5205,-1.5313,-1.5371,-1.5362,-1.542,-1.542,-1.542,-1.542,-1.5546,-1.5682,-1.5614,-1.5313,-1.5053,-1.4905,-1.4693,-1.4564,-1.4714,-1.4742,-1.4466,-1.4132,-1.3745,-1.3331,-1.3046,-1.29,-1.2753,-1.2604,-1.2459,-1.2276,-1.1882,-1.1525,-1.1245,-1.1261,-1.1395,-1.1093,-1.0672,-1.0691,-1.0777,-0.9939,-0.9383,-0.9259,-0.9332,-0.946,-0.9583,-0.9493,-0.988,-1.0189,-1.0378,-1.0469,-1.0433,-1.0401,-0.9892,-0.9433,-0.8861,-0.8442,-0.8486,-0.8145,-0.7672,-0.7594,-0.7714,-0.7633,-0.733,-0.7022,-0.6703,-0.6714,-0.6556,-0.6346,-0.6162,-2.8012,-2.722,-2.6522,-2.557,-2.4521,-2.3967,-2.2877,-2.1801,-2.271,-2.2504,-2.1512,-2.1264,-2.1215,-2.1193,-2.1093,-2.1124,-2.1269,-2.0959,-2.0705,-2.0576,-2.0063,-1.9791,-1.9539,-1.9473,-1.9473,-1.9473,-1.9539,-1.9615,-1.9803,-1.9521,-1.9051,-1.8459,-1.8103,-1.7073,-1.6157,-1.5616,-1.5293,-1.4707,-1.4301,-1.3813,-1.3769,-1.3838,-1.3692,-1.3752,-1.4163,-1.4478,-1.4902,-1.5029,-1.5264,-1.5371,-1.5371,-1.542,-1.542,-1.542,-1.542,-1.542,-1.5478,-1.5371,-1.5196,-1.4893,-1.4702,-1.4461,-1.3947,-1.3737,-1.3739,-1.3862,-1.3878,-1.3716,-1.3404,-1.3119,-1.29,-1.2753,-1.2606,-1.2526,-1.2328,-1.2124,-1.1769,-1.1275,-1.1222,-1.1238,-1.1108,-1.087,-1.0712,-1.0639,-1.018,-0.9062,-0.8485,-0.8498,-0.869,-0.9087,-0.926,-0.9319,-0.9901,-1.0473,-1.0542,-1.0393,-1.0209,-1.002,-0.9812,-0.9292,-0.8666,-0.8127,-0.7847,-0.7645,-0.7364,-0.7305,-0.7173,-0.6795,-0.649,-0.6261,-0.618,-0.618,-0.6335,-0.6321,-0.6227,-2.7717,-2.6888,-2.6298,-2.4798,-2.2995,-2.2906,-2.2031,-2.0694,-2.2009,-2.2449,-2.1918,-2.1397,-2.1094,-2.104,-2.0731,-2.0435,-2.0381,-2.02,-2.0028,-1.9998,-1.95,-1.9215,-1.9243,-1.9166,-1.917,-1.9222,-1.9341,-1.9528,-1.962,-1.9369,-1.88,-1.7996,-1.7349,-1.6566,-1.5953,-1.5785,-1.5603,-1.5512,-1.4985,-1.4502,-1.3865,-1.3623,-1.3563,-1.3571,-1.3812,-1.4121,-1.4597,-1.497,-1.5225,-1.5274,-1.5313,-1.542,-1.542,-1.542,-1.542,-1.542,-1.5478,-1.5128,-1.4834,-1.4469,-1.3856,-1.3495,-1.3058,-1.2996,-1.3119,-1.3447,-1.3565,-1.357,-1.3237,-1.3084,-1.2973,-1.2806,-1.2652,-1.2403,-1.2155,-1.1871,-1.1464,-1.1136,-1.1104,-1.112,-1.1262,-1.0893,-1.0177,-1.0021,-0.9592,-0.8254,-0.7753,-0.7822,-0.8112,-0.8569,-0.8793,-0.9017,-0.963,-1.0079,-1.007,-0.9948,-0.9782,-0.9612,-0.9366,-0.8919,-0.8111,-0.7599,-0.7192,-0.6862,-0.6617,-0.6592,-0.6409,-0.618,-0.6106,-0.6106,-0.6025,-0.5944,-0.5944,-0.6106,-0.6103,-2.7323,-2.7019,-2.6035,-2.4061,-2.1752,-2.2525,-2.183,-2.023,-2.0723,-2.1119,-2.1149,-2.0879,-2.0804,-2.088,-2.0146,-1.9759,-1.9744,-1.9566,-1.9329,-1.9284,-1.8982,-1.8927,-1.8965,-1.8768,-1.8874,-1.9191,-1.9341,-1.9412,-1.9555,-1.9282,-1.8757,-1.8008,-1.7378,-1.6849,-1.5971,-1.598,-1.6206,-1.6187,-1.5801,-1.5173,-1.4506,-1.4291,-1.4231,-1.395,-1.3967,-1.4336,-1.4753,-1.4921,-1.5107,-1.5215,-1.5313,-1.542,-1.542,-1.542,-1.542,-1.542,-1.5362,-1.5001,-1.4529,-1.413,-1.3588,-1.3173,-1.2909,-1.2708,-1.2732,-1.3087,-1.3316,-1.326,-1.3221,-1.3071,-1.2917,-1.2823,-1.2563,-1.2254,-1.1935,-1.1572,-1.1142,-1.1053,-1.0958,-1.1128,-1.1312,-1.0796,-0.9962,-0.9297,-0.8733,-0.8262,-0.7741,-0.7602,-0.764,-0.7942,-0.8146,-0.8454,-0.9082,-0.9455,-0.9484,-0.9296,-0.9118,-0.8743,-0.8395,-0.8017,-0.7523,-0.7079,-0.6542,-0.6144,-0.5805,-0.596,-0.5964,-0.5799,-0.5802,-0.5843,-0.583,-0.5767,-0.5662,-0.5736,-0.5724,-2.6329,-2.5931,-2.4972,-2.321,-2.1395,-2.1804,-2.1124,-1.9907,-2.0174,-2.0381,-2.0443,-2.063,-2.0846,-2.0784,-1.9884,-1.9366,-1.9338,-1.9137,-1.9165,-1.902,-1.8705,-1.8653,-1.8506,-1.8319,-1.8374,-1.8626,-1.885,-1.8977,-1.9264,-1.8851,-1.8276,-1.7781,-1.7483,-1.7056,-1.6208,-1.6431,-1.675,-1.6656,-1.6398,-1.5942,-1.5323,-1.5164,-1.4902,-1.4563,-1.4614,-1.481,-1.4827,-1.5015,-1.5172,-1.5273,-1.5313,-1.542,-1.542,-1.542,-1.542,-1.5362,-1.5177,-1.4824,-1.4222,-1.3718,-1.3247,-1.2915,-1.2649,-1.2421,-1.2411,-1.277,-1.2841,-1.2781,-1.3079,-1.2978,-1.2714,-1.2523,-1.2346,-1.2018,-1.1758,-1.1423,-1.1177,-1.1035,-1.0995,-1.1115,-1.1115,-1.0848,-1.0085,-0.9502,-0.8894,-0.7797,-0.74,-0.7357,-0.7428,-0.7279,-0.7495,-0.7703,-0.8165,-0.8667,-0.893,-0.863,-0.8299,-0.7875,-0.7498,-0.7069,-0.6641,-0.6317,-0.5973,-0.574,-0.5556,-0.5608,-0.5608,-0.5477,-0.5553,-0.5708,-0.5657,-0.5598,-0.5483,-0.5132,-0.4953,-2.5067,-2.414,-2.362,-2.2347,-2.0944,-2.1015,-2.0295,-1.9252,-1.9948,-2.0105,-1.9867,-2.058,-2.1051,-2.0614,-1.9944,-1.9524,-1.9206,-1.8901,-1.8934,-1.8889,-1.8356,-1.8155,-1.8015,-1.7853,-1.7833,-1.806,-1.8422,-1.8569,-1.8851,-1.8462,-1.8123,-1.7419,-1.7159,-1.6996,-1.6703,-1.684,-1.725,-1.7309,-1.7149,-1.6915,-1.6536,-1.6078,-1.5495,-1.5303,-1.5179,-1.4934,-1.4976,-1.5109,-1.5295,-1.5319,-1.5264,-1.5313,-1.5371,-1.5371,-1.5177,-1.5118,-1.4942,-1.441,-1.3752,-1.3329,-1.2858,-1.2514,-1.2359,-1.2274,-1.2282,-1.2208,-1.2285,-1.2285,-1.2582,-1.28,-1.247,-1.2344,-1.2095,-1.1847,-1.1549,-1.13,-1.1113,-1.1038,-1.1059,-1.1108,-1.0863,-1.0667,-1.0091,-0.9518,-0.8683,-0.7591,-0.7197,-0.7158,-0.7111,-0.685,-0.6776,-0.6771,-0.6935,-0.7426,-0.7886,-0.7688,-0.7191,-0.7,-0.6586,-0.607,-0.5781,-0.5768,-0.5676,-0.5583,-0.55,-0.5382,-0.5248,-0.5046,-0.5205,-0.5017,-0.4709,-0.4313,-0.4099,-0.3909,-0.387,-2.3594,-2.1984,-2.283,-2.1812,-1.9845,-2.0454,-1.9893,-1.8724,-1.9754,-1.9974,-1.9699,-2.033,-2.0686,-2.0049,-1.9483,-1.9155,-1.9115,-1.8791,-1.8695,-1.8665,-1.7825,-1.7521,-1.7366,-1.7154,-1.7155,-1.7542,-1.8205,-1.8729,-1.8566,-1.8436,-1.8286,-1.7728,-1.8021,-1.7687,-1.707,-1.7455,-1.8033,-1.8029,-1.7929,-1.7793,-1.7312,-1.6684,-1.5694,-1.5401,-1.5207,-1.4897,-1.4773,-1.4937,-1.5037,-1.5117,-1.5156,-1.5205,-1.5196,-1.5137,-1.4951,-1.4638,-1.4519,-1.3983,-1.3381,-1.3086,-1.2666,-1.2305,-1.2182,-1.1981,-1.1839,-1.1589,-1.1545,-1.1276,-1.1574,-1.2212,-1.213,-1.2233,-1.2069,-1.1738,-1.1479,-1.1196,-1.0967,-1.1099,-1.1247,-1.093,-1.0541,-1.0085,-0.9442,-0.8812,-0.8122,-0.7311,-0.706,-0.7026,-0.6749,-0.6432,-0.6029,-0.5806,-0.569,-0.5692,-0.5885,-0.6225,-0.6033,-0.5901,-0.5883,-0.5678,-0.5532,-0.5521,-0.5435,-0.5459,-0.5262,-0.5149,-0.4941,-0.4506,-0.3521,-0.3212,-0.3107,-0.2822,-0.2703,-0.2664,-0.2715]},{"header":{"parameterUnit":"m.s-1","parameterCategory":1,"la1":31.0,"la2":29.5877,"lo1":-88.7671,"lo2":-86.6584,"dy":0.0162,"dx":0.0185,"nx":115,"ny":88,"refTime":"2023-07-12T06:00:00:Z","depth":0,"parameterNumber":3,"parameterNumberName":"V-component_of_WINDS"},"data":[0.0,0.0,0.0,0.0,0.0,0.0,0.0,0.0,0.0,0.0,0.0,0.0,0.0,0.0,0.0,0.0,0.0,0.0,0.0,0.0,0.0,0.0,0.0,0.0,0.0,0.0,0.0,0.0,0.0,0.0,0.0,0.0,0.0,0.0,0.0,0.0,0.0,0.0,0.0,0.0,0.0,0.0,0.0,0.0,0.0,0.0,0.0,0.0,0.0,0.0,0.0,0.0,0.0,0.0,0.0,0.0,0.0,0.0,0.0,0.0,0.0,0.0,0.0,0.0,0.0,0.0,0.0,0.0,0.0,0.0,0.0,0.0,0.0,0.0,0.0,0.0,0.0,0.0,0.0,0.0,0.0,0.0,0.0,0.0,0.0,0.0,0.0,0.0,0.0,0.0,0.0,0.0,0.0,0.0,0.0,0.0,0.0,0.0,0.0,0.0,0.0,0.0,0.0,0.0,0.0,0.0,0.0,0.0,0.0,0.0,0.0,0.0,0.0,0.0,0.0,0.0,0.0,0.0,0.0,0.0,0.0,0.0,0.0,0.0,0.0,0.0,0.0,0.0,0.0,0.0,0.0,0.0,0.0,0.0,0.0,0.0,0.0,0.0,0.0,0.0,0.0,0.0,0.0,0.0,0.0,0.0,0.0,0.0,0.0,0.0,0.0,0.0,0.0,0.0,0.0,0.0,0.0,0.0,0.0,0.0,0.0,0.0,0.0,0.0,0.0,0.0,0.0,0.0,0.0,0.0,0.0,0.0,0.0,0.0,0.0,0.0,0.0,0.0,0.0,0.0,0.0,0.0,0.0,0.0,0.0,0.0,0.0,0.0,0.0,0.0,0.0,0.0,0.0,0.0,0.0,0.0,0.0,0.0,0.0,0.0,0.0,0.0,0.0,0.0,0.0,0.0,0.0,0.0,0.0,0.0,0.0,0.0,0.0,0.0,0.0,0.0,0.0,0.0,0.0,0.0,0.0,0.0,0.0,0.0,0.0,0.0,0.0,0.0,0.0,0.0,0.0,0.0,0.0,0.0,0.0,0.0,0.0,0.0,0.0,0.0,0.0,0.0,0.0,0.0,0.0,0.0,0.0,0.0,0.0,0.0,0.0,0.0,0.0,0.0,0.0,0.0,0.0,0.0,0.0,0.0,0.0,0.0,0.0,0.0,0.0,0.0,0.0,0.0,0.0,0.0,0.0,0.0,0.0,0.0,0.0,0.0,0.0,0.0,0.0,0.0,0.0,0.0,0.0,0.0,0.0,0.0,0.0,0.0,0.0,0.0,0.0,0.0,0.0,0.0,0.0,0.0,0.0,0.0,0.0,0.0,0.0,0.0,0.0,0.0,0.0,0.0,0.0,0.0,0.0,0.0,0.0,0.0,0.0,0.0,0.0,0.0,0.0,0.0,0.0,0.0,0.0,0.0,0.0,0.0,0.0,0.0,0.0,0.0,0.0,0.0,0.0,0.0,0.0,0.0,0.0,0.0,0.0,0.0,0.0,0.0,0.0,0.0,0.0,0.0,0.0,0.0,0.0,0.0,0.0,0.0,0.0,0.0,0.0,0.0,0.0,0.0,0.0,0.0,0.0,0.0,0.0,0.0,0.0,0.0,0.0,0.0,0.0,0.0,0.0,0.0,0.0,0.0,0.0,0.0,0.0,0.0,0.0,0.0,0.0,0.0,0.0,0.0,0.0,0.0,0.0,0.0,0.0,0.0,0.0,0.0,0.0,0.0,0.0,0.0,0.0,0.0,0.0,0.0,0.0,0.0,0.0,0.0,0.0,0.0,0.0,0.0,0.0,0.0,0.0,0.0,0.0,0.0,0.0,0.0,0.0,0.0,0.0,0.0,0.0,0.0,0.0,0.0,0.0,0.0,0.0,0.0,0.0,0.0,0.0,0.0,0.0,0.0,0.0,0.0,0.0,0.0,0.0,0.0,0.0,0.0,0.0,0.0,0.0,0.0,0.0,0.0,0.0,0.0,0.0,0.0,0.0,0.0,0.0,0.0,0.0,0.0,0.0,0.0,0.0,0.0,0.0,0.0,0.0,0.0,0.0,0.0,0.0,0.0,0.0,0.0,0.0,0.0,0.0,0.0,0.0,0.0,0.0,0.0,0.0,0.0,0.0,0.0,0.0,0.0,0.0,0.0,0.0,0.0,0.0,0.0,0.0,0.0,0.0,0.0,0.0,0.0,0.0,0.0,0.0,0.0,0.0,0.0,0.0,0.0,0.0,0.0,0.0,0.0,0.0,0.0,0.0,0.0,0.0,0.0,0.0,0.0,0.0,0.0,0.0,0.0,0.0,0.0,0.0,0.0,0.0,0.0,0.0,0.0,0.0,0.0,0.0,0.0,0.0,0.0,0.0,0.0,0.0,0.0,0.0,0.0,0.0,0.0,0.0,0.0,0.0,0.0,0.0,0.0,0.0,0.0,0.0,0.0,0.0,0.0,0.0,0.0,0.0,0.0,0.0,0.0,0.0,0.0,0.0,0.0,0.0,0.0,0.0,0.0,0.0,0.0,0.0,0.0,0.0,0.0,0.0,0.0,0.0,0.0,0.0,0.0,0.0,0.0,0.0,0.0,0.0,0.0,0.0,0.0,0.0,0.0,0.0,0.0,0.0,0.0,0.0,0.0,0.0,0.0,0.0,0.0,0.0,0.0,0.0,0.0,0.0,0.0,0.0,0.0,0.0,0.0,0.0,0.0,0.0,0.0,0.0,0.0,0.0,0.0,0.0,0.0,0.0,0.0,0.0,0.0,0.0,0.0,0.0,0.0,0.0,0.0,0.0,0.0,0.0,0.0,0.0,0.0,0.0,0.0,0.0,0.0,0.0,0.0,0.0,0.0,0.0,0.0,0.0,0.0,0.0,0.0,0.0,0.0,0.0,0.0,0.0,0.0,0.0,0.0,0.0,0.0,0.0,0.0,0.0,0.0,0.0,0.0,0.0,0.0,0.0,0.0,0.0,0.0,0.0,0.0,0.0,0.0,0.0,0.0,0.0,0.0,0.0,0.0,0.0,0.0,0.0,0.0,0.0,0.0,0.0,0.0,0.0,0.0,0.0,0.0,0.0,0.0,0.0,0.0,0.0,0.0,0.0,0.0,0.0,0.0,0.0,0.0,0.0,0.0,0.0,0.0,0.0,0.0,0.0,0.0,0.0,0.0,0.0,0.0,0.0,0.0,0.0,0.0,0.0,0.0,0.0,0.0,0.0,0.0,0.0,0.0,0.0,0.0,0.0,0.0,0.0,0.0,0.0,0.0,0.0,0.0,0.0,0.0,0.0,0.0,0.0,0.0,0.0,0.0,0.0,0.0,0.0,0.0,0.0,0.0,0.0,0.0,0.0,0.0,0.0,0.0,0.0,0.0,0.0,0.0,0.0,0.0,0.0,0.0,0.0,0.0,0.0,0.0,0.0,0.0,0.0,0.0,0.0,0.0,0.0,0.0,0.0,0.0,0.0,0.0,0.0,0.0,0.0,0.0,0.0,0.0,0.0,0.0,0.0,0.0,0.0,0.0,0.0,0.0,0.0,0.0,0.0,0.0,0.0,0.0,0.0,0.0,0.0,0.0,0.0,0.0,0.0,0.0,0.0,0.0,0.0,0.0,0.0,0.0,0.0,0.0,0.0,0.0,0.0,0.0,0.0,0.0,0.0,0.0,0.0,0.0,0.0,0.0,0.0,0.0,0.0,0.0,0.0,0.0,0.0,0.0,0.0,0.0,0.0,0.0,0.0,0.0,0.0,0.0,0.0,0.0,0.0,0.0,0.0,0.0,0.0,0.0,0.0,0.0,0.0,0.0,0.0,0.0,0.0,0.0,0.0,0.0,0.0,0.0,0.0,0.0,0.0,0.0,0.0,0.0,0.0,0.0,0.0,0.0,0.0,0.0,0.0,0.0,0.0,0.0,0.0,0.0,0.0,0.0,0.0,0.0,0.0,0.0,0.0,0.0,0.0,0.0,0.0,0.0,0.0,0.0,0.0,0.0,0.0,0.0,0.0,0.0,0.0,0.0,0.0,0.0,0.0,0.0,0.0,0.0,0.0,0.0,0.0,0.0,0.0,0.0,0.0,0.0,0.0,0.0,0.0,0.0,0.0,0.0,0.0,0.0,0.0,0.0,0.0,0.0,0.0,0.0,0.0,0.0,0.0,0.0,0.0,0.0,0.0,0.0,0.0,0.0,0.0,0.0,0.0,0.0,0.0,0.0,0.0,0.0,0.0,0.0,0.0,0.0,0.0,0.0,0.0,0.0,0.0,0.0,0.0,0.0,-2.5211,0.0,0.0,0.0,0.0,0.0,0.0,0.0,0.0,0.0,0.0,0.0,0.0,0.0,0.0,0.0,0.0,0.0,0.0,0.0,0.0,0.0,0.0,0.0,0.0,0.0,0.0,0.0,0.0,0.0,0.0,0.0,0.0,0.0,0.0,0.0,0.0,0.0,0.0,0.0,0.0,0.0,0.0,0.0,0.0,0.0,0.0,0.0,0.0,0.0,0.0,0.0,0.0,0.0,0.0,0.0,0.0,0.0,0.0,0.0,0.0,0.0,0.0,0.0,0.0,0.0,0.0,0.0,0.0,0.0,0.0,0.0,0.0,0.0,0.0,0.0,0.0,0.0,0.0,0.0,0.0,0.0,0.0,0.0,0.0,0.0,0.0,0.0,0.0,0.0,0.0,0.0,0.0,0.0,0.0,0.0,0.0,0.0,0.0,0.0,0.0,0.0,0.0,0.0,0.0,0.0,0.0,0.0,0.0,0.0,0.0,-2.6884,-2.5151,-2.7375,-2.752,-2.5186,0.0,0.0,0.0,0.0,0.0,0.0,0.0,0.0,0.0,0.0,0.0,0.0,0.0,0.0,0.0,0.0,0.0,0.0,0.0,0.0,0.0,0.0,0.0,0.0,0.0,0.0,0.0,0.0,0.0,0.0,0.0,0.0,0.0,0.0,0.0,0.0,0.0,0.0,0.0,0.0,0.0,0.0,0.0,0.0,0.0,0.0,0.0,0.0,0.0,0.0,0.0,0.0,0.0,0.0,0.0,0.0,0.0,0.0,0.0,0.0,0.0,0.0,0.0,0.0,0.0,0.0,0.0,0.0,0.0,0.0,0.0,0.0,0.0,0.0,0.0,0.0,0.0,0.0,0.0,0.0,0.0,0.0,0.0,0.0,0.0,0.0,0.0,0.0,0.0,0.0,0.0,0.0,0.0,0.0,0.0,0.0,0.0,0.0,0.0,0.0,0.0,0.0,0.0,0.0,0.0,0.0,0.0,0.0,0.0,0.0,0.0,0.0,-2.8299,-2.8245,-2.6243,0.0,0.0,0.0,0.0,0.0,0.0,0.0,0.0,0.0,0.0,0.0,0.0,0.0,0.0,0.0,0.0,0.0,0.0,0.0,0.0,0.0,0.0,0.0,0.0,0.0,0.0,0.0,0.0,0.0,0.0,0.0,0.0,0.0,0.0,0.0,0.0,0.0,0.0,0.0,0.0,0.0,0.0,0.0,0.0,0.0,0.0,0.0,0.0,0.0,0.0,0.0,0.0,0.0,0.0,0.0,0.0,0.0,0.0,0.0,0.0,0.0,0.0,0.0,0.0,0.0,0.0,0.0,0.0,0.0,0.0,0.0,0.0,0.0,0.0,0.0,0.0,0.0,0.0,0.0,0.0,0.0,0.0,0.0,0.0,0.0,0.0,0.0,0.0,0.0,0.0,0.0,0.0,0.0,0.0,0.0,0.0,0.0,0.0,0.0,0.0,0.0,0.0,0.0,0.0,0.0,0.0,0.0,0.0,0.0,0.0,-2.8293,-2.959,-3.0494,0.0,-2.9353,0.0,0.0,0.0,0.0,0.0,0.0,0.0,0.0,0.0,0.0,0.0,0.0,0.0,0.0,0.0,0.0,0.0,0.0,0.0,0.0,0.0,0.0,0.0,0.0,0.0,0.0,0.0,0.0,0.0,0.0,0.0,0.0,0.0,0.0,0.0,0.0,0.0,0.0,0.0,0.0,0.0,0.0,0.0,0.0,0.0,0.0,0.0,0.0,0.0,0.0,0.0,0.0,0.0,0.0,0.0,0.0,0.0,0.0,0.0,0.0,0.0,0.0,0.0,0.0,0.0,0.0,0.0,0.0,0.0,0.0,0.0,0.0,0.0,0.0,0.0,0.0,0.0,0.0,0.0,0.0,0.0,0.0,0.0,0.0,0.0,0.0,0.0,0.0,0.0,0.0,0.0,0.0,0.0,0.0,0.0,0.0,0.0,0.0,0.0,0.0,0.0,0.0,0.0,0.0,0.0,0.0,0.0,0.0,0.0,0.0,-2.8621,-3.0128,-2.9801,-2.9107,0.0,0.0,0.0,0.0,0.0,0.0,0.0,0.0,0.0,0.0,0.0,0.0,0.0,0.0,0.0,0.0,0.0,0.0,0.0,0.0,0.0,0.0,0.0,0.0,0.0,0.0,0.0,0.0,0.0,0.0,0.0,0.0,0.0,0.0,0.0,0.0,0.0,0.0,0.0,0.0,0.0,0.0,0.0,0.0,0.0,0.0,0.0,0.0,0.0,0.0,0.0,0.0,0.0,0.0,0.0,0.0,0.0,0.0,0.0,0.0,0.0,0.0,0.0,0.0,0.0,0.0,0.0,0.0,0.0,0.0,0.0,0.0,0.0,0.0,0.0,0.0,0.0,0.0,0.0,0.0,0.0,0.0,0.0,0.0,0.0,0.0,0.0,0.0,0.0,0.0,0.0,0.0,0.0,0.0,0.0,0.0,0.0,0.0,0.0,0.0,0.0,0.0,0.0,0.0,0.0,0.0,0.0,0.0,0.0,0.0,-2.8956,-2.9501,-3.0791,-2.9781,-2.8547,-2.7289,0.0,0.0,0.0,0.0,0.0,0.0,0.0,0.0,0.0,0.0,0.0,0.0,0.0,0.0,0.0,0.0,0.0,0.0,0.0,0.0,0.0,0.0,0.0,0.0,0.0,0.0,0.0,0.0,0.0,0.0,0.0,0.0,0.0,0.0,0.0,0.0,0.0,0.0,0.0,0.0,0.0,0.0,0.0,0.0,0.0,0.0,0.0,0.0,0.0,0.0,0.0,0.0,0.0,0.0,0.0,0.0,0.0,0.0,0.0,0.0,0.0,0.0,0.0,0.0,0.0,0.0,0.0,0.0,0.0,0.0,0.0,0.0,0.0,0.0,0.0,0.0,0.0,0.0,0.0,0.0,0.0,0.0,0.0,0.0,0.0,0.0,0.0,0.0,0.0,0.0,0.0,0.0,0.0,0.0,0.0,0.0,0.0,0.0,0.0,0.0,0.0,0.0,0.0,0.0,0.0,0.0,0.0,0.0,-3.3847,-3.1986,-3.1471,-3.2493,-3.1604,-3.0122,0.0,0.0,0.0,0.0,0.0,0.0,0.0,0.0,0.0,0.0,0.0,0.0,0.0,0.0,0.0,0.0,0.0,0.0,0.0,0.0,0.0,0.0,0.0,0.0,0.0,0.0,0.0,0.0,0.0,0.0,0.0,0.0,0.0,0.0,0.0,0.0,0.0,0.0,0.0,0.0,0.0,0.0,0.0,0.0,0.0,0.0,0.0,0.0,0.0,0.0,0.0,0.0,0.0,0.0,0.0,0.0,0.0,0.0,0.0,0.0,0.0,0.0,0.0,0.0,0.0,0.0,0.0,0.0,0.0,0.0,0.0,0.0,0.0,0.0,0.0,0.0,0.0,0.0,0.0,0.0,0.0,0.0,0.0,0.0,0.0,0.0,0.0,0.0,0.0,0.0,0.0,0.0,0.0,0.0,0.0,0.0,0.0,0.0,0.0,0.0,0.0,0.0,0.0,0.0,0.0,0.0,0.0,0.0,0.0,-2.9526,-2.9928,-3.0998,-3.2817,-3.0115,-2.8512,0.0,0.0,0.0,0.0,0.0,0.0,0.0,0.0,0.0,0.0,0.0,0.0,0.0,0.0,0.0,0.0,0.0,0.0,0.0,0.0,0.0,0.0,0.0,0.0,0.0,0.0,0.0,0.0,0.0,0.0,0.0,0.0,0.0,0.0,0.0,0.0,0.0,0.0,0.0,0.0,0.0,0.0,0.0,0.0,0.0,0.0,0.0,0.0,0.0,0.0,0.0,0.0,0.0,0.0,0.0,0.0,0.0,0.0,0.0,0.0,0.0,0.0,0.0,0.0,0.0,0.0,0.0,0.0,0.0,0.0,0.0,0.0,0.0,0.0,0.0,0.0,0.0,0.0,0.0,0.0,0.0,0.0,0.0,0.0,0.0,0.0,0.0,0.0,0.0,0.0,0.0,0.0,0.0,0.0,0.0,0.0,0.0,0.0,0.0,0.0,0.0,0.0,0.0,0.0,0.0,0.0,0.0,0.0,0.0,-2.8127,0.0,-3.1242,-3.1545,-2.9223,-2.757,0.0,0.0,0.0,0.0,0.0,0.0,0.0,0.0,0.0,0.0,0.0,0.0,0.0,0.0,0.0,0.0,0.0,0.0,0.0,0.0,0.0,0.0,0.0,0.0,0.0,0.0,0.0,0.0,0.0,0.0,0.0,0.0,0.0,0.0,0.0,0.0,0.0,0.0,0.0,0.0,0.0,0.0,0.0,0.0,0.0,0.0,0.0,0.0,0.0,0.0,0.0,0.0,0.0,0.0,0.0,0.0,0.0,0.0,0.0,0.0,0.0,0.0,0.0,0.0,0.0,0.0,0.0,0.0,0.0,0.0,0.0,0.0,0.0,0.0,0.0,0.0,0.0,0.0,0.0,0.0,0.0,0.0,0.0,0.0,0.0,0.0,0.0,0.0,0.0,0.0,0.0,0.0,0.0,0.0,0.0,0.0,0.0,0.0,0.0,0.0,0.0,0.0,0.0,0.0,0.0,0.0,0.0,0.0,-2.8685,-3.0773,-3.2874,-3.2254,-2.8811,-2.9171,-2.7424,0.0,0.0,0.0,0.0,0.0,0.0,0.0,0.0,0.0,0.0,0.0,0.0,0.0,0.0,0.0,0.0,0.0,0.0,0.0,0.0,0.0,0.0,0.0,0.0,0.0,0.0,0.0,0.0,0.0,0.0,0.0,0.0,0.0,0.0,0.0,0.0,0.0,0.0,0.0,0.0,0.0,0.0,0.0,0.0,0.0,0.0,0.0,0.0,0.0,0.0,0.0,0.0,0.0,0.0,0.0,0.0,0.0,0.0,0.0,0.0,0.0,0.0,0.0,0.0,0.0,0.0,0.0,0.0,0.0,0.0,0.0,0.0,0.0,0.0,0.0,0.0,0.0,0.0,0.0,0.0,0.0,0.0,0.0,0.0,0.0,0.0,0.0,0.0,0.0,0.0,0.0,0.0,0.0,0.0,0.0,0.0,0.0,0.0,0.0,0.0,0.0,0.0,0.0,0.0,0.0,0.0,0.0,0.0,0.0,-2.9552,-3.0297,-3.111,-3.1859,-2.874,-2.6973,0.0,0.0,0.0,0.0,0.0,0.0,0.0,0.0,0.0,0.0,0.0,0.0,0.0,0.0,0.0,0.0,0.0,0.0,0.0,0.0,0.0,0.0,0.0,0.0,0.0,0.0,0.0,0.0,0.0,0.0,0.0,0.0,0.0,0.0,0.0,0.0,0.0,0.0,0.0,0.0,0.0,0.0,0.0,0.0,0.0,0.0,0.0,0.0,0.0,0.0,0.0,0.0,0.0,0.0,0.0,0.0,0.0,0.0,0.0,0.0,0.0,0.0,0.0,0.0,0.0,0.0,0.0,0.0,0.0,0.0,0.0,0.0,0.0,0.0,0.0,0.0,0.0,0.0,0.0,0.0,0.0,0.0,0.0,0.0,0.0,0.0,0.0,0.0,0.0,0.0,0.0,0.0,0.0,0.0,0.0,0.0,0.0,0.0,0.0,0.0,0.0,0.0,0.0,0.0,0.0,0.0,0.0,0.0,0.0,-3.0646,-3.1189,-3.1958,-3.3057,-2.9224,-2.7458,-2.7929,0.0,0.0,0.0,0.0,0.0,0.0,0.0,0.0,0.0,0.0,0.0,0.0,0.0,0.0,0.0,0.0,0.0,0.0,0.0,0.0,0.0,0.0,0.0,0.0,0.0,0.0,0.0,0.0,0.0,0.0,0.0,0.0,0.0,0.0,0.0,0.0,0.0,0.0,0.0,0.0,0.0,0.0,0.0,0.0,0.0,0.0,0.0,0.0,0.0,0.0,0.0,0.0,0.0,0.0,0.0,0.0,0.0,0.0,0.0,0.0,0.0,0.0,0.0,0.0,0.0,0.0,0.0,0.0,0.0,0.0,0.0,0.0,0.0,0.0,0.0,0.0,0.0,0.0,0.0,0.0,0.0,0.0,0.0,0.0,0.0,0.0,0.0,0.0,0.0,0.0,0.0,0.0,0.0,0.0,0.0,0.0,0.0,0.0,0.0,0.0,0.0,0.0,0.0,0.0,0.0,0.0,0.0,0.0,-3.3646,-3.4952,-3.4627,-3.2638,-3.0573,-2.8736,0.0,0.0,0.0,0.0,0.0,0.0,0.0,0.0,0.0,0.0,0.0,0.0,0.0,0.0,0.0,0.0,0.0,0.0,0.0,0.0,0.0,0.0,0.0,0.0,0.0,0.0,0.0,0.0,0.0,0.0,0.0,0.0,0.0,0.0,0.0,0.0,0.0,0.0,0.0,0.0,0.0,0.0,0.0,0.0,0.0,0.0,0.0,0.0,0.0,0.0,0.0,0.0,0.0,0.0,0.0,0.0,0.0,0.0,0.0,0.0,0.0,0.0,0.0,0.0,0.0,0.0,0.0,0.0,0.0,0.0,0.0,0.0,0.0,0.0,0.0,0.0,0.0,0.0,0.0,0.0,0.0,0.0,0.0,0.0,0.0,0.0,0.0,0.0,0.0,0.0,0.0,0.0,0.0,0.0,0.0,0.0,0.0,0.0,0.0,0.0,0.0,0.0,0.0,0.0,0.0,0.0,0.0,0.0,0.0,-3.4385,-3.6493,-3.719,-3.6239,-3.2982,-3.0623,0.0,0.0,0.0,0.0,0.0,0.0,0.0,0.0,0.0,0.0,0.0,0.0,0.0,0.0,0.0,0.0,0.0,0.0,0.0,0.0,0.0,0.0,0.0,0.0,0.0,0.0,0.0,0.0,0.0,0.0,0.0,0.0,0.0,0.0,0.0,0.0,0.0,0.0,0.0,0.0,0.0,0.0,0.0,0.0,0.0,0.0,0.0,0.0,0.0,0.0,0.0,0.0,0.0,0.0,0.0,0.0,0.0,0.0,0.0,0.0,0.0,0.0,0.0,0.0,0.0,0.0,0.0,0.0,0.0,0.0,0.0,0.0,0.0,0.0,0.0,0.0,0.0,0.0,0.0,0.0,0.0,0.0,0.0,0.0,0.0,0.0,0.0,0.0,0.0,0.0,0.0,0.0,0.0,0.0,0.0,0.0,0.0,0.0,0.0,0.0,0.0,0.0,0.0,0.0,0.0,0.0,0.0,0.0,-3.3417,-3.573,-3.7613,-3.8461,-3.8292,-3.514,-3.2576,0.0,0.0,0.0,0.0,0.0,0.0,0.0,0.0,0.0,0.0,0.0,0.0,0.0,0.0,0.0,0.0,0.0,0.0,0.0,0.0,0.0,0.0,0.0,0.0,0.0,0.0,0.0,0.0,0.0,0.0,0.0,0.0,0.0,0.0,0.0,0.0,0.0,0.0,0.0,0.0,0.0,0.0,0.0,0.0,0.0,0.0,0.0,0.0,0.0,0.0,0.0,0.0,0.0,0.0,0.0,0.0,0.0,0.0,0.0,0.0,0.0,0.0,0.0,0.0,0.0,0.0,0.0,0.0,0.0,0.0,0.0,0.0,0.0,0.0,0.0,0.0,0.0,0.0,0.0,0.0,0.0,0.0,0.0,0.0,0.0,0.0,0.0,0.0,0.0,0.0,0.0,0.0,0.0,0.0,0.0,0.0,0.0,0.0,0.0,0.0,0.0,0.0,0.0,0.0,0.0,0.0,0.0,0.0,-3.3565,-3.7114,-3.8151,-3.8776,-3.9045,-3.6769,-3.4407,0.0,0.0,0.0,0.0,0.0,0.0,0.0,0.0,0.0,0.0,0.0,0.0,0.0,0.0,0.0,0.0,0.0,0.0,0.0,0.0,0.0,0.0,0.0,0.0,0.0,0.0,0.0,0.0,0.0,0.0,0.0,0.0,0.0,0.0,0.0,0.0,0.0,0.0,0.0,0.0,0.0,0.0,0.0,0.0,0.0,0.0,0.0,0.0,0.0,0.0,0.0,0.0,0.0,0.0,0.0,0.0,0.0,0.0,0.0,0.0,0.0,0.0,0.0,0.0,0.0,0.0,0.0,0.0,0.0,0.0,0.0,0.0,0.0,0.0,0.0,0.0,0.0,0.0,0.0,0.0,0.0,0.0,0.0,0.0,0.0,0.0,0.0,0.0,0.0,0.0,0.0,0.0,0.0,0.0,0.0,0.0,0.0,0.0,0.0,0.0,0.0,0.0,0.0,0.0,0.0,0.0,0.0,0.0,-3.4516,-3.7288,-3.7969,-3.8471,-3.8961,-3.7565,-3.5425,0.0,0.0,0.0,0.0,0.0,0.0,0.0,0.0,0.0,0.0,0.0,0.0,0.0,0.0,0.0,0.0,0.0,0.0,0.0,0.0,0.0,0.0,0.0,0.0,0.0,0.0,0.0,0.0,0.0,0.0,0.0,0.0,0.0,0.0,0.0,0.0,0.0,0.0,0.0,0.0,0.0,0.0,0.0,0.0,0.0,0.0,0.0,0.0,-2.8329,0.0,0.0,0.0,0.0,0.0,0.0,0.0,0.0,0.0,0.0,0.0,0.0,0.0,0.0,0.0,0.0,0.0,0.0,0.0,0.0,0.0,0.0,0.0,0.0,0.0,0.0,0.0,0.0,0.0,0.0,0.0,0.0,0.0,0.0,0.0,0.0,0.0,0.0,0.0,0.0,0.0,0.0,0.0,0.0,0.0,0.0,0.0,0.0,0.0,0.0,0.0,0.0,0.0,0.0,0.0,0.0,0.0,0.0,0.0,-3.4438,-3.6555,-3.7509,-3.7955,-3.8122,-3.7868,-3.6227,0.0,0.0,0.0,0.0,0.0,0.0,0.0,0.0,0.0,0.0,0.0,0.0,0.0,0.0,0.0,0.0,0.0,0.0,0.0,0.0,0.0,0.0,0.0,0.0,0.0,0.0,0.0,0.0,0.0,0.0,0.0,0.0,0.0,0.0,0.0,0.0,0.0,0.0,0.0,0.0,0.0,0.0,0.0,0.0,0.0,0.0,0.0,0.0,0.0,0.0,0.0,0.0,0.0,0.0,0.0,0.0,0.0,0.0,0.0,0.0,0.0,0.0,0.0,0.0,0.0,0.0,0.0,0.0,0.0,0.0,0.0,0.0,0.0,0.0,0.0,0.0,0.0,0.0,0.0,0.0,0.0,0.0,0.0,0.0,0.0,0.0,0.0,0.0,0.0,0.0,0.0,0.0,0.0,0.0,0.0,0.0,0.0,0.0,0.0,0.0,0.0,0.0,0.0,0.0,0.0,0.0,0.0,-3.2727,-3.3949,-3.5751,-3.6707,-3.7192,-3.7161,-3.7671,-3.6585,-3.3673,0.0,0.0,0.0,0.0,0.0,0.0,0.0,0.0,0.0,0.0,0.0,0.0,0.0,0.0,0.0,0.0,0.0,0.0,0.0,0.0,0.0,0.0,0.0,0.0,0.0,0.0,0.0,0.0,0.0,0.0,0.0,0.0,0.0,0.0,0.0,0.0,0.0,0.0,-2.7811,-2.9386,0.0,0.0,0.0,0.0,0.0,0.0,0.0,0.0,-3.1637,0.0,0.0,0.0,0.0,0.0,0.0,0.0,0.0,0.0,0.0,0.0,0.0,0.0,0.0,0.0,0.0,0.0,0.0,0.0,0.0,0.0,0.0,0.0,0.0,0.0,0.0,0.0,0.0,0.0,0.0,0.0,0.0,0.0,0.0,0.0,0.0,0.0,0.0,0.0,0.0,0.0,0.0,0.0,0.0,0.0,0.0,0.0,0.0,0.0,0.0,0.0,0.0,0.0,0.0,0.0,0.0,-3.2198,-3.2334,-3.3514,-3.5722,-3.5437,-3.5709,-3.6481,-3.6788,-3.5956,-3.3966,0.0,0.0,0.0,0.0,0.0,0.0,0.0,0.0,0.0,0.0,0.0,0.0,0.0,0.0,0.0,0.0,0.0,0.0,0.0,0.0,0.0,0.0,0.0,0.0,0.0,0.0,0.0,0.0,0.0,0.0,0.0,0.0,0.0,0.0,0.0,0.0,0.0,0.0,0.0,-3.2027,-3.3451,0.0,0.0,0.0,0.0,0.0,0.0,0.0,0.0,-3.2248,0.0,0.0,0.0,0.0,0.0,0.0,0.0,0.0,0.0,0.0,0.0,0.0,0.0,0.0,0.0,0.0,0.0,0.0,0.0,0.0,0.0,0.0,0.0,0.0,0.0,0.0,0.0,0.0,0.0,0.0,0.0,0.0,0.0,0.0,0.0,0.0,0.0,0.0,0.0,0.0,0.0,0.0,0.0,0.0,0.0,0.0,0.0,0.0,0.0,0.0,0.0,0.0,0.0,0.0,0.0,-3.1308,-3.2053,-3.3028,-3.4432,-3.4816,-3.5095,-3.5368,-3.5683,-3.5102,0.0,0.0,0.0,0.0,0.0,0.0,0.0,0.0,0.0,0.0,0.0,0.0,0.0,0.0,0.0,0.0,0.0,0.0,0.0,0.0,0.0,0.0,0.0,0.0,0.0,0.0,0.0,0.0,0.0,0.0,0.0,0.0,0.0,0.0,0.0,0.0,0.0,0.0,0.0,0.0,-3.3093,-3.4497,-3.5627,0.0,0.0,0.0,0.0,0.0,0.0,-3.3659,-3.3665,0.0,0.0,0.0,0.0,0.0,0.0,0.0,0.0,0.0,0.0,0.0,0.0,0.0,0.0,0.0,0.0,0.0,0.0,0.0,0.0,0.0,0.0,0.0,0.0,0.0,0.0,0.0,0.0,0.0,0.0,0.0,0.0,0.0,0.0,0.0,0.0,0.0,0.0,0.0,0.0,0.0,0.0,0.0,0.0,0.0,0.0,0.0,0.0,0.0,0.0,0.0,0.0,0.0,0.0,0.0,-3.0335,-3.1724,-3.2688,-3.3258,-3.4384,-3.4871,-3.4632,-3.5172,-3.468,0.0,0.0,0.0,0.0,0.0,0.0,0.0,0.0,0.0,0.0,0.0,0.0,0.0,0.0,0.0,0.0,0.0,0.0,0.0,0.0,0.0,0.0,0.0,0.0,0.0,0.0,0.0,0.0,0.0,0.0,0.0,0.0,0.0,0.0,0.0,0.0,0.0,0.0,0.0,0.0,0.0,-3.5645,-3.6725,-3.5995,0.0,0.0,0.0,0.0,-3.437,-3.5623,0.0,0.0,0.0,0.0,0.0,0.0,0.0,0.0,0.0,0.0,0.0,0.0,0.0,0.0,0.0,0.0,0.0,0.0,0.0,0.0,0.0,0.0,0.0,0.0,0.0,0.0,0.0,0.0,0.0,0.0,0.0,0.0,0.0,0.0,0.0,0.0,0.0,0.0,0.0,0.0,0.0,0.0,0.0,0.0,0.0,0.0,0.0,0.0,0.0,0.0,0.0,0.0,0.0,0.0,0.0,0.0,-2.9711,-3.1382,-3.2609,-3.3347,-3.4085,-3.4816,-3.5419,-3.623,-3.5452,0.0,0.0,0.0,0.0,0.0,0.0,0.0,0.0,0.0,0.0,0.0,0.0,0.0,0.0,0.0,0.0,0.0,0.0,0.0,0.0,0.0,0.0,0.0,0.0,0.0,0.0,0.0,0.0,0.0,0.0,0.0,0.0,0.0,0.0,0.0,0.0,0.0,0.0,0.0,0.0,0.0,-3.8376,-3.6594,-3.6801,-3.6781,0.0,0.0,-3.6568,-3.7769,-3.9298,0.0,0.0,0.0,0.0,0.0,0.0,0.0,0.0,0.0,0.0,0.0,0.0,0.0,0.0,0.0,0.0,0.0,0.0,0.0,0.0,0.0,0.0,0.0,0.0,0.0,0.0,0.0,0.0,0.0,0.0,0.0,0.0,0.0,0.0,0.0,0.0,0.0,0.0,0.0,0.0,0.0,0.0,0.0,0.0,0.0,0.0,0.0,0.0,0.0,0.0,0.0,0.0,0.0,0.0,0.0,-2.7964,-2.9726,-3.1224,-3.2392,-3.3147,-3.3921,-3.4493,-3.4984,-3.5347,-3.4513,0.0,0.0,0.0,0.0,0.0,0.0,0.0,0.0,0.0,0.0,0.0,0.0,0.0,0.0,0.0,0.0,0.0,0.0,0.0,0.0,0.0,0.0,0.0,0.0,0.0,0.0,0.0,0.0,0.0,0.0,0.0,0.0,0.0,0.0,0.0,0.0,0.0,0.0,0.0,0.0,0.0,0.0,-3.7938,-3.8328,0.0,0.0,0.0,-3.7758,-3.8052,0.0,0.0,0.0,0.0,0.0,0.0,0.0,0.0,0.0,0.0,0.0,0.0,0.0,0.0,0.0,0.0,0.0,0.0,0.0,0.0,0.0,0.0,0.0,0.0,0.0,0.0,0.0,0.0,0.0,0.0,0.0,0.0,0.0,0.0,0.0,0.0,0.0,0.0,0.0,0.0,0.0,0.0,0.0,0.0,0.0,0.0,0.0,0.0,0.0,0.0,0.0,0.0,0.0,0.0,0.0,0.0,0.0,-2.9175,-3.058,-3.1747,-3.266,-3.3608,-3.4416,-3.4887,-3.488,0.0,0.0,0.0,0.0,0.0,0.0,0.0,0.0,0.0,0.0,0.0,0.0,0.0,0.0,0.0,0.0,0.0,0.0,0.0,0.0,0.0,0.0,0.0,0.0,0.0,0.0,0.0,-2.4112,0.0,0.0,0.0,0.0,0.0,0.0,0.0,0.0,0.0,0.0,0.0,0.0,0.0,0.0,-3.7306,-3.8421,-3.929,-3.9977,0.0,0.0,-3.911,-3.8692,-4.104,-4.1351,0.0,0.0,0.0,0.0,0.0,0.0,0.0,0.0,0.0,0.0,0.0,0.0,0.0,0.0,0.0,0.0,0.0,0.0,0.0,0.0,0.0,0.0,0.0,0.0,0.0,0.0,0.0,0.0,0.0,0.0,0.0,0.0,0.0,0.0,0.0,0.0,0.0,0.0,0.0,0.0,0.0,0.0,0.0,0.0,0.0,0.0,0.0,0.0,0.0,0.0,0.0,0.0,0.0,0.0,0.0,-2.7216,-2.8965,-3.0488,-3.1752,-3.3223,-3.4667,-3.6023,-3.5879,-3.4894,0.0,0.0,0.0,0.0,0.0,0.0,0.0,0.0,0.0,0.0,0.0,0.0,0.0,0.0,0.0,0.0,0.0,0.0,0.0,0.0,0.0,0.0,0.0,0.0,0.0,0.0,0.0,0.0,0.0,0.0,0.0,0.0,0.0,0.0,0.0,0.0,0.0,0.0,0.0,0.0,0.0,-3.6594,-3.6786,-3.8998,-4.0709,0.0,0.0,-4.1017,-4.1098,-4.3594,-4.3805,-3.8587,0.0,0.0,0.0,0.0,0.0,0.0,0.0,0.0,0.0,0.0,0.0,0.0,0.0,0.0,0.0,0.0,0.0,0.0,0.0,0.0,0.0,0.0,0.0,0.0,0.0,0.0,0.0,0.0,0.0,0.0,0.0,0.0,0.0,0.0,0.0,0.0,0.0,0.0,0.0,0.0,0.0,0.0,0.0,0.0,0.0,0.0,0.0,0.0,0.0,0.0,0.0,0.0,0.0,-2.5701,-2.7589,-2.9064,-3.062,-3.2155,-3.3544,-3.4778,-3.5693,-3.608,-3.508,0.0,0.0,0.0,0.0,0.0,0.0,0.0,0.0,0.0,0.0,0.0,0.0,0.0,0.0,0.0,0.0,0.0,0.0,0.0,0.0,0.0,0.0,0.0,0.0,0.0,0.0,0.0,0.0,-2.6621,-2.6453,-2.5473,0.0,0.0,0.0,0.0,0.0,0.0,0.0,0.0,0.0,0.0,-3.7008,-3.798,-3.9183,0.0,0.0,-4.0724,-4.0566,-4.134,-4.2271,-4.1894,-3.8945,-3.8294,0.0,0.0,0.0,0.0,0.0,0.0,0.0,0.0,0.0,0.0,0.0,0.0,0.0,0.0,0.0,0.0,0.0,0.0,0.0,0.0,0.0,0.0,0.0,0.0,0.0,0.0,0.0,0.0,0.0,0.0,0.0,0.0,0.0,0.0,0.0,0.0,0.0,0.0,0.0,0.0,0.0,0.0,0.0,0.0,0.0,0.0,0.0,0.0,0.0,0.0,0.0,0.0,-2.5645,-2.7676,-2.889,-3.0291,-3.2004,-3.353,-3.4629,-3.5305,-3.5902,-3.5123,0.0,0.0,0.0,0.0,0.0,0.0,0.0,0.0,0.0,0.0,0.0,0.0,0.0,0.0,0.0,0.0,0.0,0.0,0.0,0.0,0.0,0.0,0.0,0.0,0.0,0.0,0.0,0.0,-2.7593,-2.7151,-2.5926,0.0,0.0,0.0,0.0,0.0,0.0,0.0,0.0,0.0,0.0,-3.6997,-3.8396,-3.9136,-3.9941,-4.11,-4.0425,-4.0069,-4.0603,-4.1056,-4.0752,-3.8821,0.0,0.0,0.0,0.0,0.0,0.0,0.0,0.0,0.0,0.0,0.0,0.0,0.0,0.0,0.0,0.0,0.0,0.0,0.0,0.0,0.0,0.0,0.0,0.0,0.0,0.0,0.0,0.0,0.0,0.0,0.0,0.0,0.0,0.0,0.0,0.0,0.0,0.0,0.0,0.0,0.0,0.0,0.0,0.0,0.0,0.0,0.0,0.0,0.0,0.0,0.0,0.0,0.0,-2.5448,-2.6993,-2.812,-2.9405,-3.1015,-3.2948,-3.4371,-3.4978,-3.5336,-3.5168,-3.4442,0.0,0.0,0.0,0.0,0.0,0.0,0.0,0.0,0.0,0.0,0.0,0.0,0.0,0.0,0.0,0.0,0.0,0.0,0.0,0.0,0.0,0.0,0.0,0.0,0.0,0.0,-2.8012,-2.7912,-2.7594,0.0,0.0,0.0,0.0,0.0,0.0,0.0,0.0,0.0,0.0,-3.4243,-3.6271,-3.7368,-3.8772,-3.9801,-4.0069,-4.0031,-3.9762,-3.9176,-4.07,-4.1071,0.0,0.0,0.0,0.0,0.0,0.0,0.0,0.0,0.0,0.0,0.0,0.0,0.0,0.0,0.0,0.0,0.0,0.0,0.0,0.0,0.0,0.0,0.0,0.0,0.0,0.0,0.0,0.0,-1.851,0.0,0.0,0.0,0.0,0.0,0.0,0.0,0.0,0.0,0.0,0.0,-2.8677,-3.0049,0.0,0.0,0.0,0.0,0.0,0.0,0.0,0.0,0.0,0.0,0.0,0.0,-2.5794,-2.7961,-2.8721,-3.0132,-3.2326,-3.3427,-3.45,-3.5464,-3.595,-3.5564,-3.4319,0.0,0.0,0.0,0.0,0.0,0.0,0.0,0.0,0.0,0.0,0.0,0.0,0.0,0.0,0.0,0.0,0.0,0.0,0.0,0.0,0.0,0.0,0.0,0.0,0.0,-2.8217,0.0,0.0,0.0,0.0,0.0,0.0,0.0,0.0,0.0,0.0,0.0,-3.1618,-3.3053,-3.5244,-3.6787,-3.7212,-3.8117,-3.8907,0.0,0.0,0.0,0.0,0.0,0.0,0.0,0.0,0.0,0.0,0.0,0.0,0.0,0.0,-4.3597,-3.934,-3.8173,-3.7568,-3.6637,0.0,0.0,0.0,0.0,0.0,0.0,0.0,0.0,0.0,0.0,0.0,0.0,0.0,0.0,0.0,0.0,-2.1083,0.0,0.0,0.0,0.0,0.0,0.0,0.0,0.0,-2.877,-3.0257,-3.0686,-3.1861,-3.2037,0.0,-3.104,-2.9954,0.0,0.0,0.0,0.0,0.0,0.0,0.0,0.0,-2.6735,-2.8734,-2.942,-3.0729,-3.2774,-3.3765,-3.4468,-3.5057,-3.5984,-3.5837,-3.4574,-3.3663,-3.2817,0.0,0.0,0.0,0.0,0.0,0.0,0.0,0.0,0.0,0.0,0.0,0.0,0.0,0.0,0.0,0.0,0.0,0.0,0.0,0.0,0.0,0.0,0.0,-2.8366,0.0,0.0,0.0,0.0,0.0,0.0,0.0,0.0,0.0,-3.0516,-3.2307,-3.4066,-3.5073,-3.6458,-3.7297,-3.7297,0.0,0.0,0.0,0.0,0.0,0.0,0.0,-4.071,-4.1439,-4.0617,-4.0146,-4.091,-4.3138,-4.4674,-4.4174,0.0,0.0,-4.1923,-4.0826,-4.0331,-3.9614,-3.8634,-3.8056,-3.8695,-3.8042,-3.7247,0.0,0.0,0.0,0.0,0.0,0.0,0.0,0.0,-2.0757,-2.1509,0.0,-2.1665,0.0,0.0,0.0,0.0,0.0,0.0,0.0,0.0,-3.0624,-3.2192,-3.2801,-3.2311,-3.2325,-3.2882,-3.2723,-3.2136,-3.0954,-2.8948,0.0,0.0,0.0,0.0,0.0,0.0,-2.8201,-2.9253,-3.0136,-3.1219,-3.2241,-3.3802,-3.4393,-3.3955,-3.5564,-3.6079,-3.5302,-3.5679,-3.5278,-3.3779,-3.3968,0.0,0.0,0.0,0.0,0.0,0.0,0.0,0.0,0.0,0.0,0.0,0.0,0.0,0.0,0.0,0.0,0.0,0.0,0.0,0.0,-2.7871,0.0,0.0,0.0,0.0,0.0,0.0,0.0,0.0,0.0,0.0,-3.4031,-3.5192,-3.6395,-3.7444,0.0,0.0,0.0,0.0,-3.8074,-3.8883,-3.9643,-4.0244,-4.0561,-4.153,-4.215,-4.1868,0.0,0.0,-4.1917,-4.3764,-4.5057,-4.4248,-4.5716,-4.6641,-4.5085,-4.4281,-4.3826,-4.2921,-4.133,-4.0372,-4.0264,-3.9358,-3.8415,-2.5591,0.0,0.0,0.0,0.0,-2.2464,-2.2402,-2.2654,-2.2729,-2.3001,-2.346,-2.3694,0.0,0.0,0.0,0.0,0.0,0.0,-2.8494,-2.9646,-3.1057,-3.2323,-3.3362,-3.2872,-3.2687,-3.2752,-3.3192,-3.2698,-3.1429,-3.0723,-2.9694,-2.8232,0.0,0.0,0.0,0.0,-2.8352,-3.0108,-3.0344,-3.1351,-3.3255,-3.3291,-3.3798,-3.4862,-3.6222,-3.6821,-3.6485,-3.5969,-3.5857,-3.6045,-3.4772,0.0,0.0,0.0,0.0,0.0,0.0,0.0,0.0,0.0,0.0,0.0,0.0,0.0,0.0,0.0,0.0,0.0,0.0,0.0,-2.7417,-2.8231,-2.8959,0.0,0.0,0.0,0.0,0.0,0.0,0.0,0.0,0.0,-3.6511,-3.6118,-3.5986,0.0,0.0,-3.7758,-3.7273,-3.815,-3.9082,-3.9812,0.0,0.0,0.0,-4.239,-4.2327,-4.2064,-4.2152,-4.2364,-4.2617,-4.3896,-4.475,-4.4312,-4.473,-4.4797,-4.3983,-4.3929,-4.3625,-4.2549,-4.1376,-4.0835,-4.1193,-4.0388,-3.9306,-2.6589,-2.5947,-2.5305,-2.4769,-2.4404,-2.372,-2.3579,-2.3917,-2.3965,-2.4179,-2.4491,-2.4675,-2.4869,-2.5004,-2.4611,0.0,0.0,0.0,-2.9359,-3.0075,-3.1143,-3.2008,-3.2593,-3.2443,-3.2482,-3.2684,-3.2798,-3.2546,-3.1836,-3.1345,-3.0594,-2.9473,0.0,0.0,-2.8377,-2.8222,-2.9001,-3.0697,-3.054,-3.1383,-3.3186,-3.3612,-3.4353,-3.5664,-3.7199,-3.7817,-3.7402,-3.6804,-3.6724,-3.7096,-3.5608,-3.4559,0.0,0.0,0.0,0.0,0.0,0.0,0.0,0.0,0.0,0.0,0.0,-2.8878,-2.7575,0.0,0.0,0.0,-2.6934,-2.774,-2.8949,-2.946,0.0,0.0,0.0,0.0,0.0,0.0,0.0,-3.5783,-3.6781,-3.74,-3.7138,-3.6535,-3.6225,-3.6797,-3.7364,-3.7562,-3.7136,0.0,-3.9054,-3.9848,-4.1058,-4.2076,-4.2558,-4.2353,-4.1981,-4.1622,-4.1648,-4.1923,-4.2451,-4.328,-4.3812,-4.3855,-4.3888,-4.3646,-4.2837,-4.3011,-4.3133,-4.2546,-4.1749,-4.1301,-4.172,-4.0779,-3.9546,-2.7375,-2.72,-2.6315,-2.5911,-2.5836,-2.537,-2.4913,-2.4529,-2.454,-2.5031,-2.5663,-2.4861,-2.565,-2.7377,-2.7176,0.0,0.0,-2.9068,-2.937,-2.9934,-3.0963,-3.1323,-3.1163,-3.1268,-3.1734,-3.2447,-3.191,-3.1857,-3.2159,-3.1078,-3.053,-3.063,-2.996,-2.9614,-2.9477,-2.9405,-2.9914,-3.0999,-3.0854,-3.1351,-3.2568,-3.4312,-3.5498,-3.6027,-3.7945,-3.8585,-3.7841,-3.7804,-3.7619,-3.7188,-3.6449,-3.5907,-3.5524,0.0,0.0,0.0,0.0,0.0,0.0,0.0,0.0,0.0,0.0,0.0,0.0,0.0,0.0,0.0,-2.8243,0.0,-3.126,-3.1252,0.0,0.0,0.0,-3.3561,-3.2382,-3.5355,-3.6921,-3.5493,0.0,0.0,0.0,0.0,-3.6938,-3.7958,-3.7571,-3.7204,-3.7189,-3.7762,-3.843,-3.9339,-4.0418,-4.1392,-4.1743,-4.1594,-4.1253,-4.0753,-4.0803,-4.1104,-4.1531,-4.2066,-4.2501,-4.289,-4.3024,-4.28,-4.2075,-4.1988,-4.2144,-4.2714,-4.2175,-4.1569,-4.1431,-4.0367,-3.9305,-2.7079,-2.7094,-2.6672,-2.6222,-2.5857,-2.542,-2.4947,-2.455,-2.4871,-2.52,-2.5359,-2.5115,-2.5424,-2.6268,-2.7722,-2.8568,-2.8961,-2.9433,-2.9933,-3.0423,-3.0174,-3.0188,-3.0528,-3.0172,-3.0102,-3.0253,-3.0823,-3.1062,-3.1067,-3.0735,-3.0885,-3.1467,-3.0614,-3.0119,-3.0081,-2.9973,-3.0452,-3.1552,-3.1459,-3.1804,-3.2461,-3.3403,-3.4093,-3.4503,-3.6104,-3.6982,-3.7047,-3.706,-3.699,-3.6828,-3.6168,-3.5465,-3.4751,-3.5274,0.0,0.0,0.0,0.0,0.0,0.0,0.0,0.0,0.0,-3.0944,-2.8771,0.0,-3.0598,0.0,-2.9744,-3.0754,-3.1827,-3.189,0.0,0.0,-3.4778,-3.4893,-3.5667,-3.6697,-3.6963,-3.6276,-3.7157,-3.7545,-3.6631,-3.6754,-3.6863,-3.6923,-3.7213,-3.7428,-3.7443,-3.8003,-3.8682,-3.9372,-4.0167,-4.0727,-4.1115,-4.0703,-4.0245,-4.0091,-4.0062,-3.9971,-4.0129,-4.0764,-4.1309,-4.1423,-4.1596,-4.1509,-4.1229,-4.1459,-4.1422,-4.0995,-4.0556,-4.0285,-4.0129,-3.9424,-3.8691,-2.6915,-2.7023,-2.6812,-2.6517,-2.6134,-2.5502,-2.5176,-2.5165,-2.5211,-2.5285,-2.5538,-2.5946,-2.6084,-2.6291,-2.7997,-2.8889,-2.9088,-2.9436,-2.9749,-3.0051,-2.9358,-2.9107,-2.9349,-2.8756,-2.8673,-2.9114,-2.9326,-2.9753,-3.0304,-2.9939,-3.0168,-3.0984,-3.0367,-3.0044,-3.0059,-3.027,-3.0893,-3.1992,-3.2007,-3.212,-3.2413,-3.349,-3.4191,-3.457,-3.5969,-3.6605,-3.6315,-3.6282,-3.6205,-3.6041,-3.5832,-3.5791,-3.5767,-3.5782,-3.562,0.0,0.0,0.0,0.0,0.0,0.0,0.0,0.0,0.0,0.0,0.0,-3.15,0.0,-3.1309,0.0,-3.3243,-3.3397,-3.4046,-3.5591,-3.5739,-3.5849,-3.611,-3.6804,-3.7167,-3.677,-3.6801,-3.6878,-3.6739,-3.6507,-3.6414,-3.6507,-3.7049,-3.7468,-3.7514,-3.806,-3.8654,-3.9304,-4.0205,-4.0828,-4.0922,-4.011,-3.9506,-3.9638,-3.9631,-3.9679,-3.9885,-4.0468,-4.0918,-4.0995,-4.1117,-4.1087,-4.0763,-4.0857,-4.0745,-3.9957,-3.9508,-3.9248,-3.884,-3.8316,-3.7822,-2.6791,-2.6886,-2.6921,-2.6825,-2.6588,-2.5757,-2.5627,-2.587,-2.5423,-2.5503,-2.5876,-2.6676,-2.6817,-2.6572,-2.7727,-2.8549,-2.8849,-2.8699,-2.8644,-2.8763,-2.8321,-2.8007,-2.7855,-2.7389,-2.7554,-2.8333,-2.7764,-2.8236,-2.9539,-2.8969,-2.9115,-2.9908,-2.9804,-2.9765,-2.978,-3.0392,-3.1217,-3.2244,-3.2259,-3.2391,-3.2576,-3.3931,-3.4816,-3.5291,-3.6439,-3.6541,-3.5554,-3.5487,-3.5351,-3.5076,-3.5514,-3.6247,-3.7255,-3.6456,-3.6019,0.0,-3.4559,0.0,0.0,0.0,0.0,0.0,0.0,0.0,0.0,-3.214,-3.2079,-3.2481,-3.2974,-3.3804,-3.5056,-3.5072,-3.5154,-3.5489,-3.6215,-3.6277,-3.5353,-3.6396,-3.7156,-3.6815,-3.6088,-3.5888,-3.6578,-3.6071,-3.5949,-3.6566,-3.7207,-3.7578,-3.7557,-3.7884,-3.838,-3.8859,-4.0001,-4.0498,-4.0338,-3.9557,-3.8983,-3.9232,-3.9309,-3.9581,-4.0116,-4.0435,-4.0712,-4.0861,-4.0899,-4.0769,-4.035,-4.0288,-4.0014,-3.9076,-3.8734,-3.8477,-3.7912,-3.7533,-3.707,-2.6486,-2.6793,-2.6851,-2.6909,-2.6804,-2.6451,-2.6186,-2.5849,-2.576,-2.548,-2.5182,-2.5734,-2.5766,-2.534,-2.5677,-2.6132,-2.6593,-2.5814,-2.5706,-2.6239,-2.6441,-2.6502,-2.6514,-2.6726,-2.6855,-2.7037,-2.6734,-2.7047,-2.797,-2.8034,-2.8669,-2.9783,-2.9771,-2.9872,-3.0271,0.0,0.0,0.0,-3.1582,-3.2269,-3.3559,-3.364,-3.4285,-3.553,-3.4947,0.0,-3.4873,-3.4752,-3.4568,-3.4278,-3.5196,0.0,0.0,0.0,0.0,0.0,0.0,0.0,0.0,0.0,0.0,0.0,-3.6653,-3.5453,-3.4523,-3.4666,-3.4831,-3.4804,-3.4856,-3.5425,-3.6763,-3.5396,-3.5155,-3.6731,-3.6039,-3.5457,-3.5778,-3.5875,-3.586,-3.5813,-3.5778,-3.5751,-3.5681,-3.6115,-3.6644,-3.6933,-3.7657,-3.8091,-3.792,-3.7653,-3.7302,-3.6928,-3.7997,-3.8742,-3.911,-3.8737,-3.8465,-3.8707,-3.8451,-3.8721,-3.9606,-3.9658,-3.9555,-3.9659,-3.9733,-3.9817,-3.9463,-3.9711,-3.9416,-3.7892,-3.7704,-3.7805,-3.7712,-3.7463,-3.717,-2.6197,0.0,-2.6465,-2.6662,0.0,-2.6654,-2.6444,-2.6212,-2.5902,-2.5622,-2.5383,-2.5627,-2.5401,-2.4997,-2.527,-2.5631,-2.5958,-2.5413,-2.5483,-2.6094,-2.6305,-2.6264,-2.5975,-2.6181,-2.6099,-2.5887,-2.5722,-2.6142,-2.7041,-2.7371,-2.8018,-2.9017,-2.9055,-2.9057,-2.9109,-2.9327,-2.992,-3.0905,-3.1175,-3.1774,-3.2819,-3.3335,-3.4081,-3.5087,0.0,0.0,0.0,0.0,0.0,0.0,0.0,0.0,0.0,0.0,0.0,-3.7791,-3.8222,-3.8618,-3.8995,-3.8942,-3.886,-3.8773,-3.7641,-3.6604,-3.5895,-3.6088,-3.61,-3.5978,-3.5823,-3.6105,-3.6695,-3.5633,-3.5369,-3.666,-3.6041,-3.5503,-3.5505,-3.5493,-3.5397,-3.5205,-3.5096,-3.5115,-3.5483,-3.5662,-3.6104,-3.6605,-3.7232,-3.7498,-3.7164,-3.7453,-3.7598,-3.7637,-3.7752,-3.8233,-3.8623,-3.8187,-3.7937,-3.8263,-3.8167,-3.8362,-3.9338,-3.9328,-3.9252,-3.9341,-3.9217,-3.8885,-3.8483,-3.83,-3.7772,-3.6557,-3.6184,-3.6139,-3.6086,-3.6163,-3.5989,-2.6044,-2.5926,-2.6217,-2.6451,-2.6644,-2.6704,-2.6594,-2.6352,0.0,0.0,0.0,-2.5451,-2.5199,-2.4809,-2.5169,-2.535,-2.5474,-2.5307,-2.5455,-2.6056,-2.6114,-2.5954,-2.5555,-2.56,-2.5432,-2.5035,-2.487,-2.5387,-2.6328,-2.6581,-2.709,-2.7836,-2.8041,-2.803,-2.7925,-2.8201,-2.895,-3.0079,-3.0668,-3.1272,-3.1961,-3.315,-3.4105,-3.4752,-3.5244,-3.5307,-3.4941,-3.4924,-3.4882,-3.4882,-3.5266,-3.5775,-3.6364,-3.64,-3.6701,-3.7361,-3.7935,-3.8542,-3.9228,-3.9221,-3.9115,-3.8988,-3.777,-3.6776,-3.6323,-3.6516,-3.6593,-3.6453,-3.6326,-3.631,-3.6381,-3.5638,-3.5382,-3.6121,-3.5737,-3.523,-3.4927,-3.4972,-3.4948,-3.4753,-3.4486,-3.4546,-3.5391,-3.5364,-3.5456,-3.6163,-3.6901,-3.692,-3.639,-3.7014,-3.7797,-3.8402,-3.8104,-3.802,-3.8219,-3.7833,-3.7511,-3.7991,-3.7849,-3.8033,-3.8671,-3.8807,-3.8748,-3.8518,-3.8256,-3.7694,-3.7237,-3.672,-3.5935,-3.5168,-3.48,-3.4462,-3.4154,-3.453,-3.4656,-2.633,-2.6207,-2.6579,-2.6716,-2.6639,-2.6982,-2.661,-2.5743,-2.5219,-2.4791,-2.4407,-2.4407,-2.4372,-2.4303,-2.4005,-2.392,-2.3892,-2.31,-2.2983,0.0,-2.3955,-2.4279,-2.4586,-2.4957,-2.5101,-2.4936,-2.4478,-2.4567,-2.5172,-2.5134,-2.5604,-2.6602,-2.6922,-2.7446,-2.8253,-2.825,-2.8458,-2.8933,-2.9632,-3.0835,-3.2542,-3.3321,-3.4309,-3.5493,-3.5275,-3.5128,-3.5084,-3.4966,-3.4823,-3.4755,-3.5725,-3.6288,-3.6308,-3.6619,-3.6872,-3.7034,-3.7998,-3.8668,-3.8776,-3.9045,-3.8877,-3.8138,-3.7385,-3.6186,-3.4398,-3.5683,-3.6518,-3.634,-3.6163,-3.6288,-3.6779,-3.5406,-3.4754,-3.5304,-3.4272,-3.359,-3.4106,-3.3931,-3.395,-3.425,-3.425,-3.4313,-3.4874,-3.5415,-3.5889,-3.6592,-3.6838,-3.7398,-3.6624,-3.6354,-3.6535,-3.7165,-3.7267,-3.7136,-3.7148,-3.7177,-3.7171,-3.7603,-3.7234,-3.7096,-3.7638,-3.7305,-3.6754,-3.6025,-3.5954,-3.5722,-3.5596,-3.5489,-3.5025,-3.4401,-3.414,-3.3808,-3.288,-3.3407,-3.3986,-2.653,-2.63,-2.6585,-2.6729,-2.6594,-2.6885,-2.66,-2.5824,-2.5304,-2.4733,-2.4212,-2.4189,-2.4189,-2.42,-2.397,-2.3897,-2.3875,-2.3161,-2.3149,-2.3665,-2.3874,-2.4067,-2.4318,-2.4761,-2.4805,-2.4491,-2.4076,-2.407,-2.4462,-2.4426,-2.469,-2.5232,-2.6035,-2.6916,-2.7827,-2.8292,-2.8605,-2.8905,-2.945,-3.0286,-3.1534,-3.2971,-3.4084,-3.4846,-3.5019,-3.5173,-3.5132,-3.4696,-3.4432,-3.4391,-3.4706,-3.4936,-3.4895,-3.5146,-3.5327,-3.5362,-3.6876,-3.7816,-3.7871,-3.8146,-3.788,-3.6859,-3.6451,-3.5357,-3.3303,-3.5248,-3.653,-3.6389,-3.6141,-3.6141,-3.6456,-3.5367,-3.4904,-3.5646,-3.4664,-3.3952,-3.386,-3.3571,-3.3485,-3.3612,-3.3587,-3.3677,-3.427,-3.4571,-3.4806,-3.5094,-3.5487,-3.5564,-3.5258,-3.4976,-3.5207,-3.6336,-3.6488,-3.6266,-3.6028,-3.5942,-3.5966,-3.6033,-3.5861,-3.5876,-3.6221,-3.5935,-3.5632,-3.5275,-3.4918,-3.465,-3.4615,-3.4222,-3.3847,-3.3616,-3.3273,-3.2857,-3.2679,-3.3024,-3.347,-2.6814,-2.6445,-2.6615,-2.6725,-2.6727,-2.6657,-2.6372,-2.5866,-2.535,-2.4777,-2.4235,-2.4189,-2.4189,-2.4189,-2.4158,-2.4085,-2.4085,-2.3431,-2.3433,-2.3949,-2.3916,-2.389,-2.3988,-2.4512,-2.4465,-2.3916,-2.3702,-2.37,-2.3919,-2.3868,-2.3928,-2.4149,-2.534,-2.6408,-2.7396,-2.8062,-2.867,-2.9199,-2.9469,-2.9896,-3.0489,-3.2356,-3.3495,-3.3852,-3.4548,-3.4938,-3.4921,-3.4387,-3.4076,-3.4037,-3.3842,-3.3704,-3.3704,-3.3848,-3.3928,-3.4093,-3.5475,-3.6429,-3.6538,-3.6713,-3.6387,-3.5419,-3.5176,-3.4431,-3.3101,-3.451,-3.5729,-3.5754,-3.5497,-3.5531,-3.5646,-3.5065,-3.4864,-3.5358,-3.4951,-3.4225,-3.3708,-3.3559,-3.3482,-3.3351,-3.3226,-3.3317,-3.3712,-3.3744,-3.3751,-3.3857,-3.3704,-3.3704,-3.3744,-3.3842,-3.449,-3.5328,-3.5717,-3.5494,-3.5094,-3.5047,-3.4979,-3.478,-3.4888,-3.4996,-3.5098,-3.4989,-3.4811,-3.4633,-3.4187,-3.3865,-3.3776,-3.3434,-3.3059,-3.2973,-3.2811,-3.2641,-3.287,-3.2952,-3.3144,-2.7264,-2.7243,-2.7112,-2.7114,-2.7056,-2.6389,-2.5939,-2.5589,-2.4927,-2.4464,-2.4189,-2.4189,-2.4189,-2.4131,-2.3883,-2.3941,-2.4039,-2.2923,-2.2729,-2.3375,-2.2979,-2.2983,-2.3504,-2.3968,-2.389,-2.3437,-2.3503,-2.3514,-2.3362,-2.3004,-2.3196,-2.3898,-2.4717,-2.5848,-2.7211,-2.7489,-2.82,-2.9621,-2.9672,-2.9835,-3.0201,-3.1456,-3.2352,-3.2736,-3.3716,-3.4197,-3.4197,-3.4128,-3.4019,-3.39,-3.3768,-3.3686,-3.3669,-3.3639,-3.3639,-3.3693,-3.4246,-3.4565,-3.46,-3.4557,-3.4387,-3.3877,-3.3753,-3.3362,-3.2641,-3.2788,-3.3189,-3.3604,-3.3843,-3.4267,-3.4982,-3.4167,-3.3642,-3.379,-3.3802,-3.355,-3.3224,-3.3607,-3.3907,-3.3859,-3.3518,-3.3656,-3.366,-3.3594,-3.3659,-3.3619,-3.3511,-3.3488,-3.3602,-3.3659,-3.3874,-3.4495,-3.4603,-3.4526,-3.4498,-3.4815,-3.4836,-3.4836,-3.5065,-3.488,-3.4434,-3.4169,-3.4026,-3.3633,-3.3241,-3.3134,-3.3112,-3.2965,-3.3015,-3.2948,-3.2898,-3.293,-3.2979,-3.3028,-3.3086,-2.7264,-2.7232,-2.6931,-2.6841,-2.6841,-2.6143,-2.5565,-2.5137,-2.4484,-2.3947,-2.3615,-2.397,-2.4189,-2.4177,-2.4054,-2.3999,-2.3826,-2.2993,-2.2827,-2.322,-2.2923,-2.3017,-2.3509,-2.4086,-2.4218,-2.3927,-2.3702,-2.3511,-2.3351,-2.2811,-2.2767,-2.3305,-2.409,-2.4936,-2.5788,-2.6638,-2.7441,-2.8222,-2.8957,-2.9424,-2.9765,-3.1091,-3.2009,-3.233,-3.2918,-3.3287,-3.3352,-3.299,-3.2731,-3.2655,-3.2544,-3.2466,-3.2466,-3.2405,-3.2361,-3.2439,-3.3029,-3.3559,-3.3894,-3.3928,-3.3686,-3.3203,-3.3322,-3.2653,-3.0855,-3.1206,-3.1271,-3.0671,-3.1646,-3.2611,-3.2949,-3.2837,-3.2773,-3.2821,-3.321,-3.3324,-3.2837,-3.3194,-3.345,-3.3311,-3.2857,-3.2772,-3.3031,-3.2818,-3.2634,-3.2638,-3.2616,-3.2685,-3.2672,-3.2638,-3.2827,-3.3159,-3.3336,-3.3739,-3.4162,-3.4389,-3.4363,-3.4171,-3.4092,-3.3894,-3.3677,-3.3448,-3.3305,-3.2952,-3.2916,-3.2916,-3.2983,-3.2979,-3.2997,-3.3011,-3.3024,-3.3055,-3.3055,-3.3122,-3.317,-2.7346,-2.7361,-2.7097,-2.6797,-2.6485,-2.5665,-2.4955,-2.4323,-2.4018,-2.3555,-2.3097,-2.3824,-2.412,-2.3982,-2.3927,-2.371,-2.3398,-2.2829,-2.2686,-2.2895,-2.2787,-2.2969,-2.3318,-2.3826,-2.4142,-2.4093,-2.3595,-2.3324,-2.3192,-2.2785,-2.2583,-2.2867,-2.3443,-2.4102,-2.4747,-2.5895,-2.6713,-2.7332,-2.8347,-2.8993,-2.9428,-3.0502,-3.1341,-3.1748,-3.2026,-3.2207,-3.2346,-3.1909,-3.1671,-3.1671,-3.1634,-3.1617,-3.1654,-3.1559,-3.1538,-3.1627,-3.2166,-3.2698,-3.3094,-3.3008,-3.273,-3.2352,-3.2369,-3.145,-2.9624,-2.9675,-2.9342,-2.8142,-2.9215,-3.0307,-3.1356,-3.1577,-3.1781,-3.2115,-3.2807,-3.3057,-3.2767,-3.3007,-3.3172,-3.2849,-3.2479,-3.2097,-3.2325,-3.2121,-3.1921,-3.1903,-3.1852,-3.18,-3.18,-3.1852,-3.1981,-3.2335,-3.2669,-3.3126,-3.3885,-3.4042,-3.3749,-3.3563,-3.3448,-3.3376,-3.3091,-3.306,-3.3028,-3.3011,-3.2961,-3.2961,-3.2993,-3.3042,-3.3091,-3.3135,-3.3117,-3.3117,-3.3152,-3.3262,-3.3292,-2.75,-2.7883,-2.7951,-2.7087,-2.5793,-2.5101,-2.4162,-2.3221,-2.3253,-2.313,-2.3075,-2.3824,-2.3925,-2.3454,-2.3156,-2.2879,-2.2649,-2.2104,-2.2022,-2.228,-2.2414,-2.242,-2.2482,-2.2944,-2.3216,-2.3367,-2.2948,-2.2695,-2.2503,-2.2594,-2.2661,-2.2809,-2.2975,-2.3568,-2.4552,-2.5244,-2.6157,-2.715,-2.785,-2.8586,-2.9244,-2.9466,-3.0052,-3.0838,-3.1043,-3.1156,-3.1162,-3.1252,-3.1334,-3.1334,-3.1466,-3.1617,-3.1746,-3.1654,-3.1634,-3.1763,-3.1852,-3.1812,-3.173,-3.136,-3.0965,-3.0709,-3.0445,-2.9484,-2.8294,-2.8262,-2.7813,-2.6607,-2.6731,-2.7933,-3.0108,-3.0224,-3.0543,-3.1463,-3.2295,-3.2658,-3.2696,-3.3069,-3.3298,-3.2821,-3.2366,-3.2047,-3.1682,-3.1743,-3.1765,-3.1765,-3.1783,-3.1731,-3.1662,-3.1714,-3.1864,-3.2309,-3.2638,-3.2876,-3.3214,-3.3563,-3.3597,-3.347,-3.3382,-3.3208,-3.3165,-3.3104,-3.3086,-3.3068,-3.3086,-3.3068,-3.3117,-3.3165,-3.3262,-3.3262,-3.3196,-3.3165,-3.3244,-3.3292,-3.3322,-2.7401,-2.7056,-2.7042,-2.6389,-2.5284,-2.3896,-2.297,-2.2331,-2.1767,-2.1824,-2.2317,-2.3065,-2.3217,-2.2949,-2.2833,-2.2636,-2.2379,-2.2138,-2.2057,-2.202,-2.2258,-2.2482,-2.2678,-2.3125,-2.3454,-2.3354,-2.2792,-2.2307,-2.2164,-2.2753,-2.3048,-2.2869,-2.2902,-2.3154,-2.3629,-2.4356,-2.5082,-2.5677,-2.6828,-2.7679,-2.8174,-2.8936,-2.9589,-2.9935,-3.0563,-3.0952,-3.0992,-3.1078,-3.1078,-3.0965,-3.1044,-3.1123,-3.1162,-3.1334,-3.1542,-3.1746,-3.1579,-3.1428,-3.1291,-3.0804,-3.0276,-2.9892,-2.9821,-2.9002,-2.7491,-2.7237,-2.6796,-2.5555,-2.5518,-2.6539,-2.7703,-2.8375,-2.886,-2.9592,-3.0957,-3.1742,-3.1557,-3.1905,-3.2111,-3.1537,-3.0984,-3.0675,-3.102,-3.1076,-3.1282,-3.1662,-3.1403,-3.1145,-3.1007,-3.0713,-3.0612,-3.1014,-3.1426,-3.1859,-3.2094,-3.3038,-3.3559,-3.352,-3.3415,-3.299,-3.2811,-3.3136,-3.3208,-3.2679,-3.2781,-3.3082,-3.3076,-3.325,-3.3316,-3.3382,-3.3286,-3.3256,-3.3352,-3.3352,-3.3382,-2.7662,-2.6937,-2.6598,-2.5853,-2.4648,-2.3132,-2.1988,-2.1274,-2.0755,-2.0879,-2.1558,-2.2596,-2.2817,-2.2502,-2.2741,-2.2561,-2.2069,-2.201,-2.1952,-2.1898,-2.2185,-2.2432,-2.2616,-2.2944,-2.3191,-2.3083,-2.2486,-2.199,-2.1897,-2.2606,-2.2955,-2.2917,-2.2947,-2.2947,-2.3112,-2.3991,-2.4552,-2.4934,-2.6308,-2.7325,-2.7748,-2.8594,-2.9374,-2.9812,-3.0249,-3.0597,-3.0797,-3.0855,-3.0838,-3.074,-3.0804,-3.0845,-3.0828,-3.1004,-3.1218,-3.1428,-3.1257,-3.11,-3.0975,-3.0518,-2.9995,-2.9601,-2.9512,-2.8719,-2.7038,-2.6901,-2.6197,-2.5268,-2.5137,-2.5746,-2.6402,-2.717,-2.7876,-2.8594,-2.9837,-3.0622,-3.0533,-3.0759,-3.0745,-3.0368,-2.9972,-2.9886,-3.0162,-3.0282,-3.0524,-3.1007,-3.0593,-3.0386,-3.0541,-3.0041,-2.9919,-3.0585,-3.1087,-3.1426,-3.1773,-3.2673,-3.3219,-3.3243,-3.3433,-3.3013,-3.2694,-3.3027,-3.2954,-3.2444,-3.2437,-3.2839,-3.3103,-3.3277,-3.335,-3.3433,-3.3393,-3.3364,-3.3411,-3.3411,-3.3393,-2.8115,-2.7638,-2.6846,-2.553,-2.4145,-2.2739,-2.1351,-2.0226,-2.0343,-2.0469,-2.0914,-2.2382,-2.2418,-2.204,-2.2548,-2.2585,-2.1829,-2.1694,-2.171,-2.1749,-2.2073,-2.2197,-2.2259,-2.2309,-2.2273,-2.2246,-2.1966,-2.1773,-2.1774,-2.2172,-2.255,-2.2884,-2.3007,-2.3082,-2.3097,-2.409,-2.4672,-2.5053,-2.6336,-2.7549,-2.8355,-2.8443,-2.906,-3.0159,-2.9876,-2.9862,-3.0344,-3.0593,-3.0651,-3.0551,-3.0773,-3.0918,-3.0764,-3.0804,-3.0804,-3.0885,-3.0845,-3.0781,-3.0675,-3.0241,-2.9941,-2.9705,-2.938,-2.8744,-2.7762,-2.7154,-2.6545,-2.5936,-2.5869,-2.5986,-2.6357,-2.697,-2.7793,-2.885,-2.9017,-2.9372,-2.9983,-2.9868,-2.9523,-2.9489,-2.9334,-2.9455,-2.9506,-2.954,-2.9661,-2.9765,-2.9695,-2.9765,-3.0214,-2.9748,-3.03,-3.1236,-3.1322,-3.1091,-3.1732,-3.2366,-3.2652,-3.2947,-3.325,-3.3212,-3.2788,-3.2824,-3.2454,-3.1991,-3.191,-3.2292,-3.2746,-3.2938,-3.332,-3.3411,-3.3408,-3.3452,-3.3452,-3.3452,-3.3441,-2.8023,-2.7261,-2.6041,-2.4919,-2.371,-2.2208,-2.0985,-2.0058,-1.9705,-1.9937,-2.0688,-2.0734,-2.1042,-2.1571,-2.1855,-2.1775,-2.1445,-2.1346,-2.1457,-2.1827,-2.1925,-2.2037,-2.2173,-2.2173,-2.1886,-2.1494,-2.2008,-2.1977,-2.173,-2.2551,-2.3154,-2.3022,-2.3059,-2.3097,-2.3171,-2.409,-2.4704,-2.4958,-2.595,-2.674,-2.7133,-2.7584,-2.8068,-2.8452,-2.8693,-2.917,-2.9805,-3.0278,-3.0426,-3.0316,-3.0401,-3.0468,-3.0593,-3.0593,-3.0658,-3.0764,-3.0543,-3.0477,-3.0351,-2.9968,-2.9694,-2.956,-2.9305,-2.879,-2.8115,-2.78,-2.7359,-2.6882,-2.7243,-2.7782,-2.8052,-2.8135,-2.8129,-2.7791,-2.8186,-2.8596,-2.9007,-2.8954,-2.8782,-2.8678,-2.8299,-2.842,-2.9126,-2.9194,-2.9069,-2.945,-2.9306,-2.9199,-2.9223,-2.9225,-2.8914,-2.9535,-2.9935,-3.0664,-3.0847,-3.1144,-3.1483,-3.1974,-3.2469,-3.294,-3.2643,-3.2528,-3.2101,-3.1637,-3.1555,-3.18,-3.2265,-3.2794,-3.3204,-3.3459,-3.3512,-3.352,-3.3509,-3.3481,-3.3481,-2.8022,-2.6767,-2.5599,-2.4353,-2.3071,-2.1628,-2.0721,-2.0038,-1.9402,-1.9589,-2.0098,-2.0032,-2.0114,-2.0807,-2.134,-2.1472,-2.1235,-2.1389,-2.1689,-2.1916,-2.1761,-2.1774,-2.1813,-2.1512,-2.1257,-2.0994,-2.1506,-2.1886,-2.1957,-2.2904,-2.3501,-2.345,-2.347,-2.3436,-2.3319,-2.4063,-2.4664,-2.5036,-2.5924,-2.6637,-2.6971,-2.7341,-2.771,-2.7942,-2.8085,-2.861,-2.9486,-2.9682,-2.9857,-3.0159,-3.0248,-3.0274,-3.0359,-3.0342,-3.0384,-3.041,-3.0284,-3.0156,-3.0113,-2.987,-2.9665,-2.9621,-2.9486,-2.9191,-2.8685,-2.8434,-2.7989,-2.7838,-2.8126,-2.8563,-2.8425,-2.8665,-2.8232,-2.7371,-2.771,-2.8066,-2.8184,-2.8667,-2.8615,-2.8372,-2.8011,-2.8236,-2.8494,-2.8546,-2.8383,-2.8798,-2.8697,-2.8767,-2.8714,-2.8771,-2.8862,-2.9125,-2.9868,-3.0076,-2.9661,-2.99,-3.0234,-3.0885,-3.1524,-3.2029,-3.2218,-3.2365,-3.2201,-3.1305,-3.0991,-3.1448,-3.1931,-3.2775,-3.3332,-3.3451,-3.3615,-3.3577,-3.3567,-3.3567,-3.352,-2.7859,-2.6416,-2.5447,-2.3945,-2.2213,-2.1257,-2.0552,-1.9913,-1.9524,-1.9389,-1.9524,-1.977,-1.9758,-1.9872,-2.0884,-2.1192,-2.1238,-2.162,-2.1992,-2.2017,-2.1728,-2.1536,-2.1451,-2.0807,-2.0609,-2.0844,-2.0816,-2.1473,-2.2644,-2.319,-2.3571,-2.399,-2.406,-2.3984,-2.3805,-2.4166,-2.4704,-2.5162,-2.6233,-2.7052,-2.7481,-2.7549,-2.7835,-2.8424,-2.7844,-2.8068,-2.916,-2.9025,-2.9194,-3.0137,-3.0126,-3.01,-3.0156,-3.0087,-2.9972,-2.994,-2.9865,-2.9751,-2.9772,-2.9691,-2.9696,-2.968,-2.9733,-2.9782,-2.9287,-2.8874,-2.8602,-2.8394,-2.8581,-2.8517,-2.8268,-2.8612,-2.8561,-2.7802,-2.7683,-2.7679,-2.7829,-2.8899,-2.8938,-2.8325,-2.8347,-2.853,-2.815,-2.7949,-2.7727,-2.7714,-2.7852,-2.8334,-2.8893,-2.9173,-2.9781,-3.0145,-3.0334,-3.0041,-2.9782,-2.9541,-2.9861,-2.9937,-3.0677,-3.1394,-3.1738,-3.1909,-3.1623,-3.0796,-3.0571,-3.1072,-3.1634,-3.2407,-3.3213,-3.3616,-3.368,-3.3615,-3.3605,-3.3605,-3.3577,-2.7172,-2.5842,-2.4581,-2.3217,-2.1896,-2.1046,-2.0526,-2.0197,-1.9744,-1.956,-1.9456,-1.8996,-1.915,-1.9382,-1.9635,-2.0105,-2.0774,-2.0991,-2.158,-2.2176,-2.1945,-2.1714,-2.1508,-2.1006,-2.0851,-2.1087,-2.1219,-2.1556,-2.2501,-2.3486,-2.3994,-2.417,-2.4345,-2.4401,-2.4372,-2.4596,-2.4981,-2.5368,-2.6178,-2.6753,-2.6927,-2.6961,-2.7046,-2.7164,-2.6975,-2.7506,-2.877,-2.9065,-2.9251,-2.9591,-2.9633,-2.9873,-3.021,-2.9781,-2.9435,-2.9358,-2.9209,-2.8955,-2.8605,-2.8822,-2.9108,-2.9172,-2.9578,-2.9632,-2.907,-2.9318,-2.9173,-2.9006,-2.9306,-2.9807,-2.9861,-2.9895,-2.9558,-2.8794,-2.8087,-2.7724,-2.7771,-2.8017,-2.8473,-2.9141,-2.8513,-2.8526,-2.8767,-2.8411,-2.783,-2.7719,-2.7818,-2.8135,-2.8836,-2.9398,-2.9935,-3.0577,-3.08,-3.0368,-2.9989,-2.9661,-2.9434,-2.9239,-2.9905,-3.097,-3.1138,-3.1192,-3.0509,-2.9562,-3.0075,-3.0577,-3.1127,-3.1799,-3.2632,-3.3733,-3.3762,-3.3698,-3.3643,-3.3615,-3.3605,-2.6092,-2.4327,-2.3556,-2.2566,-2.1425,-2.0944,-2.0722,-2.0623,-2.0236,-1.995,-1.9605,-1.9046,-1.8832,-1.8963,-1.9168,-1.9777,-2.0577,-2.0888,-2.159,-2.2372,-2.2478,-2.2283,-2.2016,-2.1691,-2.1704,-2.2043,-2.2216,-2.2636,-2.334,-2.4242,-2.4529,-2.447,-2.4728,-2.4655,-2.4118,-2.4434,-2.4847,-2.5329,-2.5888,-2.6227,-2.6436,-2.6436,-2.6332,-2.6297,-2.626,-2.6759,-2.7408,-2.8059,-2.8747,-2.9187,-2.9201,-2.9277,-2.9815,-2.9222,-2.8911,-2.905,-2.8796,-2.8559,-2.8737,-2.8842,-2.8842,-2.8955,-2.9286,-2.9162,-2.8951,-2.9211,-2.9237,-2.9399,-2.9943,-3.0237,-3.0325,-3.0307,-2.9913,-2.9158,-2.8665,-2.8275,-2.7975,-2.8293,-2.8611,-2.8918,-2.8782,-2.8429,-2.9236,-2.8481,-2.8052,-2.7789,-2.7864,-2.8338,-2.8943,-2.9482,-3.0194,-3.0941,-3.1007,-3.0506,-3.0058,-2.9713,-2.9588,-2.9341,-3.019,-3.108,-3.1319,-3.1249,-3.0687,-3.0173,-3.0063,-3.0265,-3.1189,-3.2034,-3.2944,-3.3697,-3.377,-3.378,-3.3698,-3.3671,-3.3661,-2.4791,-2.2548,-2.2507,-2.1791,-2.0848,-2.0722,-2.0644,-2.0864,-2.0542,-2.0216,-1.9833,-1.9434,-1.9083,-1.862,-1.9111,-1.9868,-2.0613,-2.1129,-2.1978,-2.2641,-2.2967,-2.2992,-2.2934,-2.2661,-2.2513,-2.2698,-2.3301,-2.3612,-2.3957,-2.4682,-2.4903,-2.4676,-2.5007,-2.4714,-2.4176,-2.4058,-2.4477,-2.5082,-2.5427,-2.5742,-2.5997,-2.6016,-2.5908,-2.5742,-2.6045,-2.5995,-2.6168,-2.6727,-2.7736,-2.8959,-2.8494,-2.8708,-2.9171,-2.8768,-2.8646,-2.8984,-2.8624,-2.86,-2.9484,-2.8967,-2.8876,-2.8958,-2.8949,-2.8767,-2.8718,-2.8799,-2.9085,-2.9339,-3.0025,-3.0212,-3.0212,-3.0041,-2.9691,-2.9289,-2.9307,-2.8831,-2.8538,-2.8852,-2.903,-2.8431,-2.8798,-2.8656,-2.8482,-2.8134,-2.794,-2.7864,-2.7999,-2.8499,-2.9071,-2.9619,-3.0542,-3.1565,-3.1268,-3.0593,-3.0162,-2.9748,-2.9706,-2.9748,-3.091,-3.1836,-3.2265,-3.2173,-3.1685,-3.1268,-3.087,-3.1182,-3.2077,-3.2886,-3.343,-3.3723,-3.3815,-3.378,-3.3726,-3.3753,-3.3726,-2.3709,-2.2527,-2.1757,-2.0946,-2.0098,-1.9775,-1.9687,-1.9756,-2.0207,-2.0107,-1.9746,-1.97,-1.9475,-1.9022,-1.9028,-1.9386,-2.0655,-2.1215,-2.1978,-2.333,-2.345,-2.3717,-2.3809,-2.3607,-2.2789,-2.2355,-2.2654,-2.3059,-2.3269,-2.3957,-2.4278,-2.4531,-2.4658,-2.4687,-2.4491,-2.4261,-2.4461,-2.4879,-2.523,-2.5481,-2.5577,-2.5635,-2.5577,-2.5497,-2.5966,-2.5928,-2.5603,-2.6102,-2.6631,-2.6848,-2.7081,-2.7896,-2.9246,-2.8831,-2.8616,-2.8883,-2.8563,-2.8277,-2.8509,-2.8551,-2.8461,-2.8936,-2.8976,-2.8796,-2.8192,-2.8591,-2.8706,-2.8919,-2.9601,-3.0432,-3.0908,-2.9747,-2.9589,-2.9722,-2.9148,-2.849,-2.8279,-2.8405,-2.8637,-2.8859,-2.8653,-2.8564,-2.8966,-2.8413,-2.8142,-2.7986,-2.8246,-2.8646,-2.9197,-2.9807,-3.0751,-3.1826,-3.1721,-3.1078,-3.0507,-3.0266,-3.0431,-3.0596,-3.1673,-3.2492,-3.292,-3.2996,-3.247,-3.1968,-3.15,-3.2066,-3.2808,-3.2919,-3.328,-3.3574,-3.386,-3.3807,-3.378,-3.3807,-3.3807,-2.2724,-2.1761,-2.1033,-2.0557,-2.0167,-1.9696,-1.9529,-1.9599,-1.9923,-1.9956,-1.9807,-1.9938,-1.9848,-1.9573,-1.9446,-2.0031,-2.1175,-2.1978,-2.2738,-2.3573,-2.388,-2.3944,-2.3966,-2.4335,-2.402,-2.3026,-2.3754,-2.3882,-2.3621,-2.384,-2.4295,-2.4177,-2.4442,-2.4388,-2.4282,-2.4261,-2.4369,-2.4719,-2.4997,-2.5176,-2.5198,-2.5198,-2.5237,-2.5176,-2.5409,-2.525,-2.5108,-2.537,-2.5726,-2.5869,-2.5998,-2.6756,-2.8277,-2.7992,-2.798,-2.8605,-2.8202,-2.8213,-2.8448,-2.8672,-2.8648,-2.8681,-2.8919,-2.8592,-2.8232,-2.8403,-2.8484,-2.8593,-2.9426,-3.0605,-3.1497,-3.1132,-3.059,-3.0249,-2.9717,-2.913,-2.9047,-2.8653,-2.8307,-2.8691,-2.8449,-2.8467,-2.8495,-2.8423,-2.8287,-2.8085,-2.8594,-2.9059,-2.9677,-3.0289,-3.1009,-3.1742,-3.1914,-3.16,-3.0975,-3.089,-3.1315,-3.1675,-3.2403,-3.3047,-3.3476,-3.339,-3.3209,-3.2773,-3.2391,-3.265,-3.3234,-3.3227,-3.332,-3.3663,-3.3895,-3.386,-3.3834,-3.386,-3.386,-2.1663,-2.0984,-2.0498,-2.0333,-2.0479,-1.9766,-1.9529,-1.9678,-1.9972,-2.0185,-2.0202,-2.0267,-2.0502,-2.0312,-2.0238,-2.0907,-2.188,-2.2693,-2.3205,-2.3612,-2.3968,-2.3865,-2.3838,-2.4728,-2.5348,-2.4936,-2.5169,-2.4834,-2.4147,-2.4413,-2.4345,-2.4017,-2.4237,-2.4207,-2.3874,-2.3897,-2.4162,-2.4517,-2.4695,-2.4799,-2.4799,-2.4823,-2.4839,-2.4918,-2.4751,-2.4733,-2.4815,-2.4949,-2.5058,-2.5436,-2.5274,-2.5692,-2.6233,-2.6582,-2.6965,-2.8351,-2.7916,-2.8108,-2.8843,-2.9098,-2.8834,-2.8372,-2.8688,-2.8657,-2.8254,-2.8444,-2.8594,-2.8887,-2.9534,-3.054,-3.1332,-3.1079,-3.0959,-3.0766,-3.0384,-3.0331,-3.011,-2.9218,-2.8859,-2.8513,-2.8655,-2.8727,-2.8566,-2.8413,-2.8322,-2.8372,-2.8918,-2.9513,-3.018,-3.0718,-3.1389,-3.183,-3.2039,-3.2091,-3.1551,-3.1198,-3.1653,-3.234,-3.3003,-3.334,-3.375,-3.371,-3.3603,-3.3622,-3.3499,-3.3617,-3.366,-3.3709,-3.3839,-3.4023,-3.3972,-3.3921,-3.3895,-3.3921,-3.3858,-2.0508,-2.1578,-2.0411,-2.0167,-2.0323,-1.9311,-1.8913,-1.9152,-2.011,-2.0604,-2.0737,-2.1481,-2.1512,-2.1311,-2.0917,-2.1277,-2.2067,-2.2718,-2.3063,-2.3507,-2.3795,-2.3681,-2.4169,-2.5253,-2.5697,-2.549,-2.5463,-2.4841,-2.3912,-2.3914,-2.4244,-2.4058,-2.4081,-2.3988,-2.3958,-2.3982,-2.4124,-2.4302,-2.4441,-2.4467,-2.4533,-2.4574,-2.4719,-2.4942,-2.4863,-2.4799,-2.4799,-2.4839,-2.4742,-2.4513,-2.4782,-2.5037,-2.5385,-2.5869,-2.6824,-2.781,-2.7914,-2.805,-2.8764,-2.8784,-2.8903,-2.8969,-2.8923,-2.857,-2.8477,-2.896,-2.9147,-2.9256,-2.9751,-3.0488,-2.9885,-3.0404,-3.0162,-3.0019,-3.0184,-3.0254,-3.0327,-3.0107,-2.9679,-2.928,-2.9155,-2.8877,-2.8592,-2.8574,-2.8823,-2.9116,-2.9728,-3.035,-3.0982,-3.1331,-3.1694,-3.2035,-3.2231,-3.2266,-3.2092,-3.1833,-3.1907,-3.2619,-3.3182,-3.3305,-3.3647,-3.3891,-3.3917,-3.3894,-3.3944,-3.3975,-3.4031,-3.4099,-3.4099,-3.4074,-3.4023,-3.3954,-3.3788,-3.364,-3.3769,-2.0195,-2.1241,-2.0604,-2.0469,-2.0382,-1.924,-1.8806,-1.8999,-1.9659,-2.0157,-2.0659,-2.115,-2.1448,-2.1451,-2.1394,-2.1848,-2.2573,-2.3428,-2.3683,-2.3983,-2.4343,-2.4276,-2.4395,-2.5588,-2.5813,-2.5859,-2.5887,-2.5531,-2.4285,-2.4479,-2.4477,-2.4036,-2.3982,-2.3982,-2.4024,-2.4082,-2.4124,-2.4208,-2.4441,-2.4574,-2.4655,-2.4759,-2.5059,-2.5137,-2.5214,-2.5098,-2.4918,-2.5137,-2.4863,-2.4523,-2.4639,-2.4719,-2.4789,-2.5096,-2.5923,-2.7064,-2.7308,-2.7622,-2.8364,-2.8589,-2.9015,-2.943,-2.939,-2.9268,-2.9069,-2.9349,-2.9669,-2.9833,-3.0176,-3.0802,-3.0782,-3.0628,-3.0732,-3.0768,-3.0712,-3.0808,-3.1026,-3.0787,-3.0362,-2.9893,-2.9512,-2.9037,-2.8418,-2.8607,-2.918,-2.9815,-3.0493,-3.1135,-3.1742,-3.1983,-3.2157,-3.2103,-3.2266,-3.2283,-3.2335,-3.2332,-3.2301,-3.298,-3.3387,-3.3521,-3.3663,-3.3943,-3.4023,-3.4037,-3.4105,-3.4173,-3.4173,-3.4148,-3.4148,-3.413,-3.4025,-3.3864,-3.3549,-3.342,-3.342,-2.0023,-2.105,-2.0873,-2.0938,-2.0841,-1.9618,-1.917,-1.9344,-1.9606,-1.999,-2.0475,-2.095,-2.1404,-2.169,-2.2065,-2.2572,-2.3421,-2.4254,-2.4286,-2.4395,-2.4856,-2.4925,-2.5025,-2.5645,-2.6403,-2.6476,-2.703,-2.6797,-2.5615,-2.5435,-2.5017,-2.467,-2.4372,-2.4193,-2.4276,-2.44,-2.4333,-2.4467,-2.4719,-2.4942,-2.5098,-2.5313,-2.5577,-2.5615,-2.5615,-2.5465,-2.5275,-2.5351,-2.5098,-2.4719,-2.4614,-2.4655,-2.4343,-2.4317,-2.4879,-2.5927,-2.6254,-2.6927,-2.7574,-2.8596,-2.9019,-2.922,-2.9928,-2.9855,-2.9639,-2.9549,-2.9909,-3.0341,-3.0851,-3.1011,-3.1098,-3.1496,-3.1565,-3.1515,-3.134,-3.1386,-3.1711,-3.1505,-3.0772,-3.0285,-2.9786,-2.9144,-2.8447,-2.9123,-2.9815,-3.035,-3.1011,-3.1706,-3.2259,-3.2523,-3.2577,-3.2297,-3.2249,-3.2318,-3.247,-3.2781,-3.2901,-3.3368,-3.367,-3.3792,-3.3906,-3.4049,-3.4099,-3.4173,-3.408,-3.413,-3.4173,-3.4216,-3.4216,-3.4136,-3.4018,-3.3734,-3.3345,-3.29,-3.2678,-1.9638,-2.1606,-2.0997,-2.1229,-2.1679,-2.0534,-2.002,-2.0073,-2.0715,-2.1043,-2.0853,-2.1968,-2.2438,-2.2664,-2.3083,-2.3382,-2.3592,-2.3771,-2.4121,-2.4475,-2.4696,-2.5049,-2.5431,-2.6237,-2.7003,-2.7255,-2.8048,-2.7705,-2.678,-2.6563,-2.6184,-2.5634,-2.5096,-2.4846,-2.4766,-2.4766,-2.4886,-2.491,-2.5075,-2.5291,-2.5465,-2.554,-2.5762,-2.5944,-2.6016,-2.5961,-2.5799,-2.5689,-2.5313,-2.4918,-2.4533,-2.4385,-2.4302,-2.4302,-2.4549,-2.5227,-2.5894,-2.6581,-2.6942,-2.7987,-2.886,-2.8993,-2.9443,-2.9513,-2.9586,-2.9794,-3.0213,-3.082,-3.1305,-3.1323,-3.0958,-3.1059,-3.1182,-3.1389,-3.1421,-3.1747,-3.206,-3.1217,-3.0576,-3.0255,-2.9661,-2.902,-2.8378,-2.9447,-3.0457,-3.0975,-3.1528,-3.2206,-3.267,-3.2795,-3.293,-3.2636,-3.2437,-3.2437,-3.2684,-3.2983,-3.3296,-3.3716,-3.385,-3.3998,-3.4074,-3.4148,-3.4269,-3.4293,-3.4221,-3.4154,-3.4245,-3.4269,-3.424,-3.4067,-3.382,-3.3467,-3.3083,-3.2618,-3.2205,-1.8269,-2.0448,-2.036,-2.0916,-2.1609,-2.0736,-2.0278,-2.029,-2.0697,-2.075,-2.0733,-2.1521,-2.2418,-2.3162,-2.3811,-2.4204,-2.4391,-2.4371,-2.449,-2.4892,-2.5126,-2.5473,-2.5842,-2.6762,-2.756,-2.7875,-2.8334,-2.8576,-2.7934,-2.7523,-2.7076,-2.6135,-2.5708,-2.5329,-2.5171,-2.5021,-2.5068,-2.5285,-2.561,-2.5977,-2.6191,-2.621,-2.6245,-2.6419,-2.6419,-2.6315,-2.6139,-2.598,-2.5652,-2.5313,-2.502,-2.4981,-2.4981,-2.4965,-2.5098,-2.5269,-2.5875,-2.6454,-2.6951,-2.7893,-2.8505,-2.912,-2.9454,-2.9638,-2.9721,-3.018,-3.061,-3.0912,-3.1524,-3.155,-3.1255,-3.1532,-3.1722,-3.1772,-3.1547,-3.1565,-3.1643,-3.0706,-3.0047,-2.9804,-2.9561,-2.9048,-2.8762,-2.9654,-3.06,-3.1189,-3.1809,-3.2523,-3.2745,-3.2734,-3.2848,-3.2939,-3.2798,-3.2687,-3.297,-3.3255,-3.3478,-3.3795,-3.3954,-3.4074,-3.4173,-3.4264,-3.4358,-3.445,-3.4431,-3.4409,-3.4386,-3.4255,-3.4147,-3.3881,-3.3603,-3.3064,-3.2581,-3.2734,-3.246,-1.6656,-1.8738,-1.941,-2.0308,-2.1217,-2.0766,-2.0478,-2.0247,-2.0516,-2.045,-2.0577,-2.1331,-2.2576,-2.3749,-2.459,-2.5068,-2.5204,-2.5346,-2.535,-2.5601,-2.5969,-2.6246,-2.6484,-2.7229,-2.784,-2.7955,-2.8542,-2.8795,-2.887,-2.8672,-2.7965,-2.6771,-2.6677,-2.6198,-2.5687,-2.5644,-2.5788,-2.5832,-2.6156,-2.6504,-2.6775,-2.6775,-2.6742,-2.6742,-2.6742,-2.6607,-2.635,-2.6175,-2.5961,-2.5815,-2.5561,-2.5486,-2.5465,-2.5443,-2.5519,-2.5668,-2.6059,-2.6385,-2.6952,-2.7694,-2.851,-2.9221,-2.9934,-3.0118,-3.0118,-3.0808,-3.1257,-3.115,-3.1642,-3.1913,-3.2021,-3.2159,-3.2221,-3.2019,-3.1746,-3.1586,-3.1231,-3.0339,-2.9748,-2.9558,-2.9415,-2.9354,-2.9354,-3.0005,-3.0719,-3.1332,-3.2059,-3.2751,-3.2809,-3.2656,-3.2818,-3.2979,-3.3015,-3.2852,-3.2834,-3.3176,-3.3495,-3.3836,-3.4,-3.4105,-3.4197,-3.4293,-3.4386,-3.4495,-3.4561,-3.4539,-3.445,-3.4242,-3.403,-3.3807,-3.3436,-3.2525,-3.2121,-3.2311,-3.253,-1.4972,-1.6562,-1.8032,-1.9412,-2.0657,-2.0845,-2.0637,-2.0299,-2.0818,-2.0664,-2.0545,-2.2007,-2.3431,-2.4546,-2.5331,-2.5726,-2.5417,-2.5852,-2.5791,-2.5887,-2.6254,-2.6634,-2.6953,-2.747,-2.8005,-2.8348,-2.8748,-2.9029,-2.9198,-2.9435,-2.914,-2.8777,-2.7948,-2.7331,-2.6792,-2.6482,-2.6462,-2.6484,-2.6624,-2.6775,-2.6942,-2.6975,-2.6959,-2.6942,-2.6909,-2.6876,-2.6892,-2.6538,-2.6349,-2.6297,-2.6052,-2.5872,-2.5905,-2.5885,-2.5957,-2.6068,-2.6123,-2.6414,-2.6801,-2.7408,-2.8065,-2.8992,-2.9844,-3.0459,-3.0297,-3.0677,-3.1055,-3.1351,-3.1714,-3.2074,-3.2243,-3.2353,-3.2505,-3.2358,-3.1969,-3.1523,-3.1017,-3.0016,-2.9482,-2.9339,-2.9303,-2.9303,-2.9833,-3.0449,-3.085,-3.1476,-3.1601,-3.2258,-3.2553,-3.2535,-3.2775,-3.2977,-3.3146,-3.2993,-3.2584,-3.2873,-3.343,-3.3746,-3.3932,-3.4074,-3.4179,-3.4316,-3.452,-3.4517,-3.4561,-3.4539,-3.4495,-3.4302,-3.4073,-3.3788,-3.3343,-3.2771,-3.1908,-3.1638,-3.1911,-1.3611,-1.5083,-1.6327,-1.8002,-1.993,-2.0405,-2.0413,-2.0148,-2.0704,-2.1145,-2.1315,-2.2576,-2.3765,-2.4688,-2.5077,-2.563,-2.5854,-2.5583,-2.576,-2.6105,-2.6496,-2.6901,-2.7342,-2.776,-2.8235,-2.8493,-2.8873,-2.9091,-2.9183,-2.9637,-2.9777,-2.942,-2.8844,-2.7826,-2.7228,-2.6882,-2.6772,-2.6775,-2.6891,-2.7152,-2.7006,-2.7007,-2.6992,-2.6992,-2.6975,-2.6992,-2.6959,-2.6842,-2.6759,-2.6708,-2.659,-2.6453,-2.6365,-2.6365,-2.64,-2.6436,-2.6419,-2.6487,-2.6689,-2.7229,-2.7835,-2.8272,-2.9328,-3.0185,-3.0073,-3.046,-3.0914,-3.1295,-3.1714,-3.2179,-3.2161,-3.2503,-3.2798,-3.2619,-3.22,-3.157,-3.0841,-2.9889,-2.9296,-2.917,-2.9332,-2.9475,-3.014,-3.0859,-3.1207,-3.1554,-3.1619,-3.175,-3.2151,-3.231,-3.2475,-3.262,-3.2745,-3.2761,-3.2371,-3.2828,-3.3414,-3.3666,-3.3894,-3.4208,-3.4428,-3.4588,-3.4752,-3.4689,-3.4583,-3.4604,-3.452,-3.434,-3.4078,-3.3738,-3.3589,-3.3431,-3.244,-3.1294,-3.1657,-1.2672,-1.4118,-1.5274,-1.699,-1.8987,-1.992,-2.0057,-1.9867,-2.0648,-2.1712,-2.2638,-2.3125,-2.4007,-2.4898,-2.5056,-2.5392,-2.5944,-2.5838,-2.5827,-2.6222,-2.6707,-2.7159,-2.758,-2.8042,-2.8525,-2.8684,-2.8998,-2.9229,-2.9275,-2.9681,-2.981,-2.9702,-2.9316,-2.8233,-2.7382,-2.6795,-2.6691,-2.6906,-2.7135,-2.7373,-2.723,-2.7137,-2.7089,-2.7089,-2.7072,-2.7072,-2.7089,-2.704,-2.699,-2.699,-2.6957,-2.6957,-2.6909,-2.6876,-2.6842,-2.6759,-2.6708,-2.664,-2.6774,-2.7194,-2.7631,-2.7933,-2.913,-2.9572,-2.9749,-3.0451,-3.1227,-3.1334,-3.1842,-3.2231,-3.2248,-3.2773,-3.3087,-3.2985,-3.1748,-3.1044,-3.0638,-2.9872,-2.9368,-2.9017,-2.917,-2.9341,-3.0305,-3.099,-3.1258,-3.1445,-3.1308,-3.1588,-3.2163,-3.2177,-3.1935,-3.2078,-3.2223,-3.2173,-3.2103,-3.2725,-3.3334,-3.3566,-3.3892,-3.4577,-3.482,-3.4961,-3.4868,-3.4668,-3.4604,-3.4649,-3.452,-3.4293,-3.3966,-3.3589,-3.3506,-3.3452,-3.2608,-3.1657,-3.2064,-1.2282,-1.3819,-1.5032,-1.6564,-1.8233,-1.9357,-1.9691,-1.9724,-2.0656,-2.212,-2.3552,-2.3358,-2.419,-2.5581,-2.5236,-2.5412,-2.5866,-2.598,-2.6144,-2.6505,-2.7019,-2.7515,-2.7978,-2.8479,-2.8795,-2.9059,-2.9305,-2.9441,-2.9486,-2.9754,-2.9858,-2.9643,-2.9134,-2.8445,-2.7784,-2.7069,-2.7038,-2.7535,-2.7509,-2.7478,-2.7434,-2.7327,-2.725,-2.7218,-2.712,-2.712,-2.7169,-2.7105,-2.7055,-2.7055,-2.7038,-2.699,-2.6926,-2.6876,-2.6825,-2.6725,-2.6691,-2.6657,-2.657,-2.7207,-2.7408,-2.7645,-2.8757,-2.9572,-3.0095,-3.0899,-3.1582,-3.1582,-3.2231,-3.2666,-3.2876,-3.3099,-3.3286,-3.3002,-3.1826,-3.111,-3.0776,-3.0016,-2.9518,-2.93,-2.905,-2.9104,-3.0215,-3.1075,-3.1271,-3.1304,-3.1067,-3.1374,-3.1997,-3.1844,-3.1486,-3.17,-3.1834,-3.1898,-3.2009,-3.2713,-3.3228,-3.3478,-3.4049,-3.4864,-3.523,-3.5282,-3.5111,-3.4739,-3.4604,-3.4626,-3.4431,-3.424,-3.4116,-3.3986,-3.3462,-3.3175,-3.2411,-3.2087,-3.2444,-1.202,-1.3648,-1.4789,-1.6239,-1.7843,-1.8887,-1.9497,-2.0114,-2.1268,-2.2458,-2.3169,-2.2999,-2.3406,-2.424,-2.4547,-2.4696,-2.5469,-2.5764,-2.5977,-2.6834,-2.7414,-2.7913,-2.8415,-2.8764,-2.9029,-2.9167,-2.935,-2.9531,-2.9486,-2.9754,-2.9874,-2.9691,-2.8737,-2.8043,-2.7587,-2.7114,-2.7066,-2.7396,-2.7504,-2.7582,-2.7478,-2.739,-2.733,-2.7313,-2.7198,-2.7166,-2.7152,-2.7087,-2.7055,-2.7023,-2.7023,-2.6975,-2.6926,-2.6893,-2.6842,-2.6742,-2.6708,-2.664,-2.6503,-2.6701,-2.6768,-2.7341,-2.8306,-2.9289,-2.9485,-3.0874,-3.1468,-3.1896,-3.2519,-3.2844,-3.3006,-3.328,-3.3455,-3.3317,-3.2508,-3.2045,-3.1501,-3.0462,-2.9771,-2.9758,-2.9624,-2.9972,-3.0782,-3.1,-3.1166,-3.0749,-3.0396,-3.0995,-3.1634,-3.1219,-3.0857,-3.1297,-3.1532,-3.1613,-3.1908,-3.2642,-3.3811,-3.4585,-3.498,-3.5522,-3.5737,-3.5835,-3.5358,-3.499,-3.4776,-3.4561,-3.4517,-3.4498,-3.4609,-3.4468,-3.3976,-3.3715,-3.3408,-3.2901,-3.2611,-1.2081,-1.3811,-1.474,-1.6193,-1.782,-1.8614,-1.9449,-2.0453,-2.1483,-2.2331,-2.2989,-2.293,-2.3209,-2.374,-2.396,-2.4297,-2.5369,-2.6054,-2.6541,-2.7348,-2.7963,-2.8511,-2.8904,-2.9182,-2.938,-2.9425,-2.9515,-2.9665,-2.9681,-2.9814,-2.9518,-2.8864,-2.8087,-2.7514,-2.7171,-2.6962,-2.7051,-2.7382,-2.7565,-2.7642,-2.76,-2.7557,-2.7434,-2.7434,-2.7355,-2.7244,-2.7135,-2.7055,-2.6975,-2.6975,-2.6959,-2.6909,-2.6876,-2.6842,-2.6792,-2.6742,-2.6674,-2.6623,-2.6554,-2.645,-2.6604,-2.6894,-2.8164,-2.9066,-2.9725,-3.1237,-3.19,-3.2368,-3.2781,-3.3037,-3.3238,-3.3549,-3.3494,-3.3338,-3.2956,-3.2456,-3.1592,-3.052,-2.9783,-2.9832,-3.0033,-3.0534,-3.0967,-3.1004,-3.1034,-3.0374,-2.9728,-3.0554,-3.137,-3.1114,-3.1027,-3.1568,-3.1723,-3.1747,-3.2076,-3.2642,-3.3941,-3.5506,-3.5945,-3.6153,-3.6672,-3.6825,-3.6044,-3.5263,-3.5057,-3.4888,-3.479,-3.4791,-3.4851,-3.4813,-3.4566,-3.439,-3.4353,-3.3895,-3.3302,-1.2435,-1.4168,-1.4993,-1.6373,-1.7984,-1.8637,-1.9609,-2.0792,-2.1075,-2.2065,-2.3419,-2.2795,-2.3032,-2.4077,-2.4558,-2.4988,-2.5683,-2.6757,-2.7519,-2.8112,-2.8591,-2.9136,-2.9515,-2.9738,-2.9782,-2.9913,-2.9957,-2.9886,-2.9918,-2.9874,-2.9211,-2.8192,-2.7856,-2.7296,-2.7007,-2.6979,-2.722,-2.7513,-2.7569,-2.7672,-2.7713,-2.7672,-2.76,-2.7569,-2.7491,-2.7307,-2.7135,-2.7023,-2.6942,-2.6909,-2.6893,-2.6825,-2.6742,-2.6708,-2.6708,-2.6674,-2.6657,-2.6606,-2.6572,-2.6503,-2.7012,-2.752,-2.868,-2.9679,-3.056,-3.1581,-3.236,-3.2699,-3.305,-3.328,-3.352,-3.3577,-3.3605,-3.3313,-3.2967,-3.2274,-3.1391,-3.0531,-2.9807,-2.9637,-2.9813,-3.0186,-3.0525,-3.068,-3.0748,-3.0291,-2.9958,-3.055,-3.1297,-3.1707,-3.1808,-3.2566,-3.2529,-3.2083,-3.2415,-3.2959,-3.4319,-3.5983,-3.6287,-3.657,-3.7204,-3.7547,-3.6635,-3.5875,-3.547,-3.5204,-3.5001,-3.4982,-3.5035,-3.4956,-3.4931,-3.4945,-3.4883,-3.4654,-3.4274,-1.232,-1.3939,-1.5168,-1.6373,-1.7556,-1.8905,-2.0205,-2.1322,-2.1884,-2.2514,-2.2866,-2.2601,-2.2715,-2.3018,-2.3891,-2.4644,-2.5664,-2.6788,-2.7937,-2.8653,-2.9225,-2.9677,-2.9913,-3.006,-3.0103,-3.0146,-3.0146,-3.006,-2.9973,-2.993,-2.9049,-2.794,-2.8083,-2.762,-2.7242,-2.725,-2.756,-2.7687,-2.7648,-2.7672,-2.7713,-2.763,-2.763,-2.7612,-2.7444,-2.7244,-2.7087,-2.6975,-2.6876,-2.6792,-2.6759,-2.6742,-2.6708,-2.6708,-2.6708,-2.6708,-2.6657,-2.6623,-2.664,-2.6792,-2.7296,-2.833,-2.947,-2.986,-3.0677,-3.1614,-3.2684,-3.2893,-3.3184,-3.3415,-3.3549,-3.3605,-3.3661,-3.3488,-3.3104,-3.2401,-3.1568,-3.0826,-3.0076,-2.9527,-2.9685,-3.007,-3.0346,-3.0401,-3.0433,-3.0142,-3.0217,-3.0766,-3.1254,-3.1684,-3.2096,-3.2835,-3.3088,-3.2564,-3.2914,-3.3459,-3.494,-3.6273,-3.6597,-3.7141,-3.8004,-3.8079,-3.7128,-3.6365,-3.5709,-3.5346,-3.516,-3.5157,-3.5242,-3.5304,-3.5307,-3.5364,-3.5374,-3.5095,-3.4949,-1.2618,-1.4246,-1.5467,-1.6925,-1.8478,-1.9408,-2.0419,-2.1424,-2.1835,-2.2019,-2.218,-2.231,-2.2356,-2.2726,-2.4158,-2.5287,-2.5801,-2.7688,-2.8894,-2.9249,-2.9745,-3.0044,-3.0231,-3.0274,-3.0274,-3.0274,-3.0231,-3.0205,-2.9919,-2.9215,-2.8378,-2.8021,-2.8553,-2.7998,-2.7567,-2.7743,-2.8167,-2.8103,-2.7917,-2.7704,-2.7617,-2.7604,-2.7612,-2.7582,-2.7352,-2.723,-2.7023,-2.6975,-2.6842,-2.6759,-2.6759,-2.6708,-2.6708,-2.6708,-2.6708,-2.6708,-2.6674,-2.6759,-2.6859,-2.7006,-2.7797,-2.869,-2.9571,-2.9798,-3.0677,-3.1691,-3.2301,-3.2709,-3.3176,-3.352,-3.3605,-3.3661,-3.3716,-3.3726,-3.3195,-3.2645,-3.1902,-3.1189,-3.0418,-2.9661,-2.971,-3.0068,-3.0249,-3.0254,-3.0206,-3.0111,-3.034,-3.0904,-3.1337,-3.1692,-3.2028,-3.2499,-3.2898,-3.2966,-3.3436,-3.3994,-3.5312,-3.644,-3.6942,-3.7619,-3.869,-3.8647,-3.7728,-3.6752,-3.5793,-3.5506,-3.5254,-3.5369,-3.5446,-3.5507,-3.5501,-3.5501,-3.5474,-3.5397,-3.5315,-1.3072,-1.4904,-1.5958,-1.777,-1.9989,-1.9824,-2.0276,-2.115,-2.1069,-2.1118,-2.1445,-2.1965,-2.2229,-2.2761,-2.4597,-2.5922,-2.6803,-2.8319,-2.9415,-2.9789,-2.9884,-3.0161,-3.0351,-3.0377,-3.0236,-3.0318,-3.0359,-3.0215,-2.9642,-2.8988,-2.8404,-2.8112,-2.8173,-2.7984,-2.7911,-2.8476,-2.8887,-2.887,-2.8332,-2.7858,-2.7809,-2.7777,-2.7654,-2.7672,-2.7552,-2.7417,-2.7166,-2.7007,-2.691,-2.6859,-2.6792,-2.6708,-2.6708,-2.6708,-2.6708,-2.6708,-2.6674,-2.6875,-2.7038,-2.7213,-2.7639,-2.8294,-2.882,-2.9362,-3.0353,-3.1678,-3.2349,-3.2559,-3.2969,-3.3429,-3.3577,-3.3578,-3.3616,-3.3396,-3.2947,-3.2177,-3.1286,-3.0595,-2.9899,-2.9351,-2.9338,-2.9727,-2.998,-2.995,-2.9967,-3.0019,-3.0253,-3.08,-3.1088,-3.1431,-3.1977,-3.2239,-3.251,-3.2966,-3.3724,-3.4411,-3.5574,-3.651,-3.7218,-3.8251,-3.9428,-3.9092,-3.8335,-3.7026,-3.5701,-3.5566,-3.5441,-3.5501,-3.5534,-3.5534,-3.5528,-3.5522,-3.5522,-3.5534,-3.5515,-1.2668,-1.4746,-1.6348,-1.7886,-1.9244,-1.9667,-2.0004,-2.0318,-2.0543,-2.0753,-2.1057,-2.1433,-2.2019,-2.2987,-2.4878,-2.6221,-2.73,-2.8737,-2.9623,-2.9838,-2.9939,-2.9997,-3.0203,-2.9889,-2.9914,-3.0269,-3.0359,-3.0035,-2.9544,-2.8858,-2.8339,-2.8267,-2.8498,-2.8747,-2.8372,-2.9127,-2.9693,-2.9659,-2.8802,-2.8387,-2.847,-2.7747,-2.7338,-2.7526,-2.7561,-2.7393,-2.7171,-2.7057,-2.6976,-2.6893,-2.6792,-2.6708,-2.6708,-2.6708,-2.6708,-2.6708,-2.6742,-2.6923,-2.7181,-2.7434,-2.7859,-2.8575,-2.9165,-2.9402,-3.0178,-3.1596,-3.2347,-3.2412,-3.2723,-3.3182,-3.3431,-3.3405,-3.3378,-3.2993,-3.257,-3.1579,-3.0613,-2.996,-2.9308,-2.918,-2.9089,-2.9263,-2.9558,-2.9712,-2.972,-2.9793,-2.9933,-3.021,-3.0362,-3.0708,-3.1785,-3.2109,-3.2201,-3.2704,-3.3629,-3.4997,-3.6234,-3.7129,-3.787,-3.8969,-4.0101,-3.915,-3.8075,-3.6716,-3.5644,-3.5618,-3.5637,-3.5605,-3.5624,-3.5875,-3.5798,-3.5907,-3.5746,-3.5714,-3.5637,-1.2488,-1.4374,-1.5909,-1.749,-1.8763,-1.9037,-1.9272,-1.9562,-1.9653,-2.0028,-2.0712,-2.1457,-2.2355,-2.3493,-2.5336,-2.6778,-2.7875,-2.9188,-2.9938,-3.0146,-2.979,-2.9707,-2.9615,-2.9317,-2.9121,-2.9378,-2.9305,-2.9083,-2.9105,-2.8347,-2.7744,-2.8318,-2.9097,-2.9394,-2.909,-3.0105,-3.0531,-3.036,-2.9431,-2.9059,-2.9125,-2.837,-2.7734,-2.7826,-2.7777,-2.7562,-2.7308,-2.7228,-2.723,-2.6995,-2.6792,-2.6708,-2.6708,-2.6708,-2.6708,-2.6742,-2.6825,-2.7021,-2.7321,-2.7665,-2.8088,-2.8671,-2.8917,-2.891,-2.9062,-3.0268,-3.081,-3.1046,-3.2169,-3.2736,-3.2483,-3.2411,-3.2374,-3.2143,-3.1448,-3.0552,-2.9893,-2.932,-2.9022,-2.8956,-2.8956,-2.9015,-2.9289,-2.9463,-2.955,-2.9878,-2.9959,-3.0352,-3.0354,-3.0611,-3.1523,-3.2397,-3.2747,-3.2921,-3.3619,-3.5268,-3.7051,-3.7861,-3.8575,-3.9092,-3.9682,-3.8786,-3.7713,-3.6761,-3.6098,-3.5912,-3.5912,-3.611,-3.6612,-3.7083,-3.6755,-3.6369,-3.6149,-3.5944,-3.5811,-1.2362,-1.4008,-1.5339,-1.6916,-1.8448,-1.8188,-1.8354,-1.8919,-1.893,-1.9415,-2.0483,-2.2069,-2.3175,-2.4567,-2.6228,-2.7625,-2.8744,-2.9527,-3.0154,-3.0228,-2.9663,-2.9626,-2.9254,-2.871,-2.8539,-2.8349,-2.8232,-2.8323,-2.8347,-2.7761,-2.7774,-2.8565,-2.913,-2.9587,-3.0446,-3.1016,-3.1281,-3.1227,-3.0622,-2.9746,-2.9377,-2.9006,-2.839,-2.8184,-2.825,-2.7939,-2.7583,-2.7399,-2.7452,-2.7215,-2.6842,-2.6792,-2.6759,-2.6759,-2.6825,-2.6858,-2.6956,-2.7244,-2.7582,-2.7789,-2.8053,-2.8272,-2.8255,-2.8398,-2.8587,-2.8936,-2.9476,-3.0215,-3.1338,-3.1882,-3.1656,-3.1538,-3.1508,-3.1269,-3.0483,-2.9826,-2.9332,-2.8943,-2.8998,-2.8937,-2.8863,-2.8915,-2.9101,-2.9293,-2.9551,-2.9891,-3.0269,-3.07,-3.1112,-3.155,-3.2225,-3.3283,-3.4087,-3.4203,-3.4501,-3.5785,-3.7878,-3.8708,-3.9355,-3.9438,-3.9264,-3.8595,-3.7977,-3.7358,-3.6798,-3.6559,-3.6756,-3.708,-3.763,-3.8109,-3.7675,-3.7133,-3.6686,-3.6431,-3.6062,-1.2413,-1.4345,-1.5471,-1.6586,-1.748,-1.7702,-1.807,-1.8481,-1.916,-1.98,-2.0941,-2.2878,-2.4328,-2.4981,-2.6572,-2.8001,-2.9156,-2.9782,-3.0211,-3.0459,-2.9666,-2.9597,-2.919,-2.8269,-2.8131,-2.7937,-2.7767,-2.803,-2.7786,-2.7591,-2.8158,-2.9359,-3.0141,-3.0789,-3.1603,-3.2149,-3.2701,-3.2525,-3.2178,-3.1448,-3.0912,-3.0099,-2.8459,-2.8219,-2.8302,-2.787,-2.7493,-2.7226,-2.7127,-2.6993,-2.6926,-2.6876,-2.6859,-2.6892,-2.6973,-2.71,-2.7164,-2.7444,-2.7742,-2.7904,-2.8119,-2.83,-2.8353,-2.8396,-2.8582,-2.8685,-2.9123,-2.9375,-3.0348,-3.1002,-3.0992,-3.1056,-3.1037,-3.0578,-2.9904,-2.9552,-2.9137,-2.9296,-2.9491,-2.9234,-2.8962,-2.9082,-2.9277,-2.9513,-2.9792,-3.0162,-3.0582,-3.1051,-3.1752,-3.2335,-3.2929,-3.4238,-3.5425,-3.6453,-3.7154,-3.7198,-3.8633,-3.9483,-3.996,-3.9772,-3.9359,-3.867,-3.8071,-3.7653,-3.7444,-3.7224,-3.7528,-3.8074,-3.8315,-3.8656,-3.841,-3.7981,-3.7481,-3.6935,-3.654]}]]